GFSSE_con_mucape_000.txt.gz
CAPE
0 12 202 162 408 60 15 0 0 0 0 0 1 10 13 18 1 0 6 10 10 0 1 4 5 8 16 6 14 20 7 0 0 0 0 0 0 9 1 20 25 39 3
0 11 449 514 385 20 0 0 0 0 0 3 4 16 18 13 19 15 16 18 20 11 6 8 9 15 11 20 34 27 3 0 0 0 1 12 0 2 20 2 0 3 62
0 22 483 693 285 19 0 0 0 0 3 2 0 15 29 9 6 6 8 1 10 16 8 5 5 4 4 9 32 27 0 0 0 0 22 2 0 9 0 0 7 14 29
0 3 316 820 359 18 1 0 0 0 4 0 2 21 26 16 10 6 13 1 0 5 0 0 1 2 4 3 10 9 0 0 0 1 0 10 0 4 13 6 4 1 10
13 0 269 908 223 19 8 0 0 0 3 3 29 33 24 21 5 1 1 0 0 0 0 0 0 3 6 17 9 9 0 0 0 0 1 13 0 0 0 0 0 0 0
0 49 730 951 317 54 27 3 0 0 6 8 1 34 35 26 13 0 0 0 2 0 0 0 0 0 7 3 3 2 0 0 0 0 0 0 0 0 0 0 0 0 0
0 25 366 1069 203 28 5 7 0 0 10 6 13 14 7 21 15 3 0 0 0 0 0 0 0 0 3 0 4 0 0 0 0 0 2 0 0 0 0 0 0 0 0
0 13 172 385 77 29 15 7 9 12 17 14 12 0 0 3 13 7 4 22 7 7 0 0 0 0 3 0 0 0 0 0 0 0 0 0 0 0 0 0 0 0 0
0 0 0 0 1 10 26 22 27 22 27 31 12 0 0 0 18 17 27 27 25 0 0 0 0 0 0 1 0 0 0 0 0 0 0 0 0 0 0 0 0 0 0
0 0 0 0 0 0 0 25 22 32 24 30 25 10 1 8 15 19 24 17 1 0 0 0 0 0 0 0 0 0 0 0 0 0 0 0 0 0 0 0 0 0 0
0 0 0 0 0 0 0 0 12 25 15 19 10 0 0 0 0 0 0 5 0 0 0 0 0 0 0 0 0 0 0 0 0 0 0 0 0 0 0 0 0 0 0
0 0 0 0 0 0 0 0 0 0 0 0 0 0 0 0 0 1 0 0 0 0 0 0 0 0 0 0 0 0 0 0 0 0 0 0 0 0 0 0 0 0 0
0 0 0 0 0 0 0 0 0 0 0 0 0 0 0 0 0 0 0 0 0 0 0 0 0 0 0 0 0 0 0 0 0 0 0 0 0 0 0 0 0 0 0
0 0 0 0 0 0 0 0 0 0 0 0 0 0 0 0 0 0 0 0 0 0 0 0 0 0 0 0 0 0 0 0 0 0 0 0 0 0 0 0 0 0 0
0 0 0 0 0 0 0 0 0 0 0 0 0 0 0 0 0 0 0 0 0 0 0 0 0 0 0 0 0 0 0 0 0 0 0 0 0 0 0 0 0 0 0
0 0 0 0 0 0 0 0 0 0 0 0 0 0 0 0 0 0 0 0 0 0 0 0 0 0 0 0 0 0 0 0 0 0 0 0 0 0 0 0 0 0 0
0 0 0 0 0 0 0 0 0 0 0 0 0 0 0 0 0 0 0 0 0 0 0 0 0 0 0 0 0 0 0 0 0 0 0 0 0 0 0 0 0 0 0
0 0 0 0 0 0 0 0 0 0 0 0 0 0 0 0 0 0 0 0 0 0 0 0 0 0 0 0 0 0 0 0 0 0 0 0 0 0 0 0 0 0 0
0 0 0 0 0 0 0 0 0 0 0 0 0 0 0 0 0 0 0 0 0 0 0 0 0 0 0 0 0 0 0 0 0 0 0 0 0 0 0 0 0 0 0
0 0 0 0 0 0 0 0 0 0 0 0 0 0 0 0 0 0 0 0 0 0 0 0 0 0 0 0 0 0 0 0 0 0 0 0 0 0 0 0 0 0 0
0 0 0 0 0 0 0 0 0 0 0 0 0 0 0 0 0 0 0 0 0 0 0 0 0 0 0 0 0 0 0 0 0 0 0 0 0 0 0 0 0 0 0
0 0 0 0 0 0 0 0 0 0 0 0 4 0 7 3 0 0 0 0 0 0 0 0 0 0 0 0 0 0 0 0 0 0 0 0 0 0 0 0 0 0 0
0 0 0 0 0 0 0 0 0 0 0 0 0 0 6 3 2 0 0 0 0 0 0 0 0 0 0 0 0 2 3 0 0 0 0 0 0 0 0 0 0 0 0
0 0 0 0 0 0 0 0 0 0 0 0 0 0 0 4 5 0 0 0 0 1 2 2 2 0 2 0 3 4 2 0 0 0 0 0 0 0 0 0 0 0 0
0 0 0 0 0 0 0 0 0 0 0 0 0 0 0 0 0 0 0 0 0 10 7 7 8 9 3 2 0 1 7 3 2 5 1 0 0 0 0 0 0 0 0
0 0 0 0 0 0 0 0 0 0 0 0 0 0 0 0 0 0 0 0 0 0 23 38 82 79 76 60 42 25 3 3 0 2 2 0 0 0 0 1 0 4 8

GFSSE_con_mucape_003.txt.gz
CAPE
11 73 514 394 633 316 40 6 0 0 0 0 12 10 18 19 10 13 20 24 18 16 7 14 13 30 14 14 26 23 2 0 0 0 0 0 8 13 32 8 7 25 27
54 190 700 501 631 221 19 1 0 0 0 0 2 7 26 28 24 20 42 40 32 14 16 9 13 24 12 16 35 19 2 0 0 0 4 19 15 22 7 0 0 40 46
83 278 480 1028 516 21 1 0 0 0 0 3 5 29 29 28 19 15 19 15 30 12 7 9 11 6 6 33 42 26 0 0 0 0 6 4 0 0 1 3 13 25 41
135 327 596 1137 640 15 0 0 0 0 3 0 12 37 32 29 23 25 12 1 1 5 2 0 2 3 2 2 29 9 0 0 0 3 0 0 0 10 4 2 5 10 10
171 296 628 1136 766 44 2 0 0 0 16 7 28 29 39 24 20 13 1 0 0 1 0 0 1 8 5 4 26 1 0 0 0 0 4 0 0 0 0 0 0 0 0
56 294 925 1188 664 327 56 0 0 0 4 7 33 35 33 40 18 1 0 0 0 0 0 0 0 0 3 3 8 0 0 0 0 0 0 0 0 0 0 0 0 0 0
96 342 817 1206 751 280 2 6 0 1 11 6 24 23 17 20 4 9 0 0 0 0 0 0 0 0 7 0 4 0 0 0 0 0 0 0 0 0 0 0 0 0 0
144 389 686 916 582 235 35 13 7 0 20 7 15 12 2 2 3 11 0 4 0 0 0 0 0 0 4 1 0 0 0 0 0 0 0 0 0 0 0 0 0 0 0
212 350 490 226 41 203 70 25 22 37 18 28 14 4 0 0 1 4 1 14 5 10 0 0 0 0 1 3 0 0 0 0 0 0 0 0 0 0 0 0 0 0 0
124 148 108 15 0 0 0 16 27 28 22 26 26 9 0 0 11 14 17 28 19 0 0 0 0 0 0 1 3 0 0 0 0 0 0 0 0 0 0 0 0 0 0
0 8 0 0 0 0 0 0 7 17 14 15 11 5 0 0 0 0 0 18 16 0 0 0 0 0 0 3 0 0 0 0 0 0 0 0 0 0 0 0 0 0 0
0 0 0 0 0 0 0 0 0 0 0 0 0 0 0 0 0 0 0 7 1 0 0 0 0 0 0 0 0 0 0 0 0 0 0 0 0 0 0 0 0 0 0
0 0 0 0 0 0 0 0 0 0 0 0 0 0 0 0 0 0 0 0 0 0 0 0 0 0 0 0 0 0 0 0 0 0 0 0 0 0 0 0 0 0 0
0 0 0 0 0 0 0 0 0 0 0 0 0 0 0 0 0 0 0 0 0 0 0 0 0 0 0 0 0 0 0 0 0 0 0 0 0 0 0 0 0 0 0
0 0 0 0 0 0 0 0 0 0 0 0 0 0 0 0 0 0 0 0 0 0 0 0 0 0 0 0 0 0 0 0 0 0 0 0 0 0 0 0 0 0 0
0 0 0 0 0 0 0 0 0 0 0 0 0 0 0 0 0 0 0 0 0 0 0 0 0 0 0 0 0 0 0 0 0 0 0 0 0 0 0 0 0 0 0
0 0 0 0 0 0 0 0 0 0 0 0 0 0 0 0 0 0 0 0 0 0 0 0 0 0 0 0 0 0 0 0 0 0 0 0 0 0 0 0 0 0 0
0 0 0 0 0 0 0 0 0 0 0 0 0 0 0 0 0 0 0 0 0 0 0 0 0 0 0 0 0 0 0 0 0 0 0 0 0 0 0 0 0 0 0
0 0 0 0 0 0 0 0 0 0 0 0 0 0 0 0 0 0 0 0 0 0 0 0 0 0 0 0 0 0 0 0 0 0 0 0 0 0 0 0 0 0 0
0 0 0 0 0 0 0 0 0 0 0 0 0 0 0 0 0 0 0 0 0 0 0 0 0 0 0 0 0 0 0 0 0 0 0 0 0 0 0 0 0 0 0
0 0 0 0 0 0 0 0 0 0 0 0 0 0 10 17 16 12 4 0 0 0 0 0 0 0 0 0 0 0 0 0 0 0 0 0 0 0 0 0 0 0 0
0 0 0 0 0 0 0 0 0 0 0 0 0 0 11 16 21 19 16 9 7 6 0 0 0 0 0 0 0 0 0 0 0 0 0 0 0 0 0 0 0 0 0
0 0 0 0 0 0 0 0 0 0 0 0 0 0 0 15 20 20 23 22 18 8 0 0 0 3 0 0 0 2 1 0 0 0 0 0 0 0 0 0 0 0 0
0 0 0 0 0 0 0 0 0 0 0 0 0 0 0 0 0 0 9 12 11 8 0 0 6 15 29 28 17 2 2 0 0 0 0 0 0 0 0 0 0 0 0
0 0 0 0 0 0 0 0 0 0 0 0 0 0 0 0 0 0 0 6 12 18 17 19 21 96 124 93 71 73 51 4 4 4 3 0 0 0 0 0 0 0 0
0 0 0 0 0 0 0 0 0 0 0 0 0 0 0 0 0 0 0 9 32 34 48 56 69 90 86 85 117 129 127 127 75 88 27 0 0 0 0 0 0 0 0

GFSSE_con_mucape_006.txt.gz
CAPE
20 14 560 674 666 447 140 17 3 0 0 0 6 12 9 17 4 21 22 22 16 8 5 6 10 47 27 42 32 22 1 0 0 0 0 1 6 27 14 0 28 14 23
49 180 742 611 765 486 118 17 5 0 0 0 2 3 21 23 18 16 28 29 22 14 7 9 3 20 19 16 31 4 0 0 0 0 3 5 12 8 0 0 26 26 49
83 258 529 948 802 387 23 8 2 0 0 0 10 13 37 31 17 10 6 20 32 24 5 4 1 12 14 49 34 9 0 0 0 0 1 10 0 0 2 3 14 39 41
194 343 396 1259 651 206 24 2 0 0 0 0 6 41 42 33 27 23 12 0 9 6 4 3 4 4 1 14 37 12 0 0 0 2 0 0 0 2 2 1 4 13 15
272 401 629 1332 780 174 0 6 0 0 0 3 23 45 53 34 27 11 0 0 0 1 0 7 2 1 1 1 20 3 0 0 0 0 2 0 0 0 0 0 3 1 0
227 522 993 1287 830 424 4 0 0 0 0 12 33 60 40 38 31 3 0 0 0 0 0 0 0 0 1 2 3 0 0 0 0 0 0 0 0 0 0 0 0 0 0
174 464 941 1349 930 314 9 0 0 0 4 2 22 30 35 35 11 4 0 0 0 0 0 0 0 0 0 1 4 1 0 0 0 0 0 0 0 0 0 0 0 0 0
133 400 790 1138 976 586 89 11 0 0 3 5 23 21 10 9 0 0 1 0 0 3 1 0 0 0 0 3 0 3 0 0 0 0 0 0 0 0 0 0 0 0 0
284 553 746 780 613 459 202 128 4 0 16 27 18 8 0 0 0 0 0 17 16 14 1 0 0 0 0 6 3 1 0 0 0 0 0 0 0 0 0 0 0 0 0
235 424 616 550 189 23 7 126 0 0 16 25 25 17 0 0 0 9 17 19 15 21 3 0 0 0 0 2 5 1 0 0 0 0 0 0 0 0 0 0 0 0 0
176 224 380 309 11 0 0 0 0 0 1 10 15 7 0 0 0 0 0 5 22 0 0 0 0 0 0 0 4 12 1 0 0 0 0 0 0 0 0 0 0 0 0
63 135 124 34 0 0 0 0 0 0 0 0 0 0 0 0 0 0 0 0 0 0 0 0 0 0 0 0 0 0 0 0 0 0 0 0 0 0 0 0 0 0 0
0 1 7 0 0 0 0 0 0 0 0 0 0 0 0 0 0 0 0 0 0 0 0 0 0 0 0 0 0 0 0 0 0 0 0 0 0 1 2 0 0 0 0
0 0 0 0 0 0 0 0 0 0 0 0 0 0 0 0 0 0 0 0 0 0 0 0 0 0 0 0 0 0 0 0 0 0 0 0 0 0 1 0 0 0 0
0 0 0 0 0 0 0 0 0 0 0 0 0 0 0 0 0 0 0 0 0 0 0 0 0 0 0 0 0 0 0 0 0 0 0 0 0 0 0 0 0 0 2
0 0 0 0 0 0 0 0 0 0 0 0 0 0 0 0 0 0 0 0 0 0 0 0 0 0 0 0 0 0 0 0 0 0 0 0 0 0 0 0 0 0 2
0 0 0 0 0 0 0 0 0 0 0 0 0 0 0 0 0 0 0 0 0 0 0 0 0 0 0 0 0 0 0 0 0 0 0 0 0 0 0 0 0 0 6
0 0 0 0 0 0 0 0 0 0 0 0 0 0 0 0 0 0 0 0 0 0 0 0 0 0 0 0 0 0 0 0 0 0 0 0 0 0 0 0 0 0 0
0 0 0 0 0 0 0 0 0 0 0 0 0 0 0 0 0 0 0 0 0 0 0 0 0 0 0 0 0 0 0 0 0 0 0 0 0 0 0 0 0 0 0
0 0 0 0 0 0 0 0 0 0 0 0 0 0 0 0 0 0 0 0 3 2 0 0 0 0 0 0 0 0 0 0 0 0 0 0 0 0 0 0 0 0 0
0 0 0 0 0 0 0 0 0 0 0 0 0 0 0 0 0 5 6 5 11 11 12 4 4 0 0 0 0 0 0 0 0 0 0 0 0 0 0 0 0 0 0
0 0 0 0 0 0 0 0 0 0 0 0 1 5 3 0 0 0 0 0 0 4 4 0 0 0 1 3 5 12 7 0 0 0 0 0 0 0 0 0 0 0 0
0 0 0 0 0 0 0 0 0 0 0 0 0 0 0 0 0 0 0 0 0 1 0 1 1 3 13 5 3 6 27 2 0 0 0 0 0 0 0 0 0 0 0
0 0 0 0 0 0 0 0 0 0 0 0 0 0 0 0 0 0 0 0 0 2 5 10 21 21 25 8 5 4 6 10 17 11 0 0 2 3 0 0 0 0 0
0 0 0 0 0 0 0 0 0 0 0 0 0 0 0 0 0 0 0 0 2 6 19 28 36 50 56 36 40 47 36 19 61 31 38 0 12 21 36 30 34 17 0
0 0 0 0 0 0 0 0 0 0 0 0 0 0 0 0 0 0 0 0 0 1 17 38 61 75 102 109 75 110 119 89 46 79 80 26 8 23 44 67 56 76 86

GFSSE_con_mucape_009.txt.gz
CAPE
26 10 432 754 592 573 246 109 20 1 0 0 3 7 4 6 0 25 5 17 18 5 0 0 15 46 43 51 43 25 4 0 0 0 0 1 7 27 15 18 12 4 10
44 26 666 668 709 494 266 53 6 0 0 0 4 1 19 25 12 9 20 28 22 12 3 3 2 38 29 15 35 13 2 0 0 0 0 0 23 21 1 3 39 37 36
59 133 409 934 776 545 298 57 10 0 0 0 5 7 40 30 33 20 18 22 27 19 3 2 2 23 15 43 26 13 0 0 0 0 0 6 11 4 17 7 26 37 28
119 281 364 987 888 685 308 23 6 0 0 0 1 15 39 25 21 25 10 1 4 2 3 6 3 5 4 34 38 18 0 0 0 0 0 3 0 11 6 0 12 13 18
201 293 381 1080 979 480 256 17 0 0 0 1 0 29 57 41 29 25 10 2 0 4 1 9 6 1 0 1 1 12 0 0 0 0 0 0 0 0 1 1 2 0 0
232 295 444 1312 827 475 209 52 0 0 0 0 12 17 70 28 22 16 2 0 0 0 0 1 0 2 0 0 0 7 0 0 0 0 0 0 0 0 0 0 0 0 0
190 285 660 1272 933 507 195 30 0 0 0 0 36 32 31 42 22 5 0 0 0 0 0 0 0 0 0 1 0 9 1 0 0 0 0 0 0 0 0 0 0 0 0
111 305 769 1123 1106 840 364 51 0 0 0 0 3 17 16 27 13 1 8 3 2 3 1 0 0 0 2 3 4 6 11 0 0 0 0 0 0 0 0 0 0 0 0
83 269 683 923 833 788 506 341 181 0 0 10 21 18 19 22 6 2 1 1 12 10 15 8 1 0 0 2 6 2 11 1 0 0 0 0 0 0 0 0 0 0 0
80 279 572 813 753 476 164 356 206 27 12 29 24 15 7 0 0 9 24 0 6 16 17 15 1 0 0 0 4 13 10 3 0 0 0 0 0 1 0 0 0 0 0
111 301 448 610 544 398 73 40 146 30 5 0 5 2 1 0 0 0 0 0 0 12 24 21 6 1 0 0 0 12 18 0 0 0 0 0 0 0 1 4 0 0 0
53 229 396 417 355 216 17 0 0 0 0 0 0 0 0 0 0 0 0 0 0 0 13 7 5 6 5 0 0 0 0 0 0 0 0 0 0 0 3 3 3 0 0
0 90 156 245 226 57 0 0 0 0 0 0 0 0 0 0 0 0 0 0 0 0 0 0 0 0 0 0 0 0 0 0 0 0 0 0 0 0 4 11 12 4 0
0 0 69 100 30 0 0 0 0 0 0 0 0 0 0 0 0 0 0 0 0 0 0 0 0 0 0 0 0 0 0 0 0 0 0 0 0 0 0 8 24 24 5
0 0 0 0 1 0 0 0 0 0 0 0 0 0 0 0 0 0 0 0 0 0 0 0 0 0 0 0 0 0 0 0 0 0 0 0 0 0 0 0 24 39 27
0 0 0 0 0 0 0 0 0 0 0 0 0 0 0 0 0 0 0 0 0 0 0 0 0 0 0 0 0 0 0 0 0 0 0 0 0 0 0 0 2 19 45
0 0 0 0 0 0 0 0 0 0 0 0 0 0 0 0 0 0 0 0 0 0 0 0 0 0 0 0 0 0 0 0 0 0 0 0 0 0 0 0 0 2 44
0 0 0 0 0 0 0 0 0 0 0 0 0 0 0 0 0 0 0 0 0 0 0 0 0 0 0 0 0 0 0 0 0 0 0 0 0 0 0 0 0 0 0
0 0 0 0 0 0 0 0 0 0 0 0 0 0 0 0 0 0 0 0 0 0 0 2 2 0 0 0 0 0 0 0 0 0 0 0 0 0 0 0 0 0 0
0 0 0 0 0 0 0 0 0 0 0 0 0 0 0 0 0 0 0 0 0 0 0 0 0 0 0 0 0 0 0 0 0 0 0 0 0 0 0 0 0 0 0
0 0 0 0 0 0 0 0 0 0 0 0 0 0 0 0 0 0 1 4 4 3 1 2 3 2 1 2 9 3 1 0 0 0 0 0 0 0 0 0 0 0 0
0 0 0 0 0 0 0 0 0 0 0 0 0 0 0 0 0 0 5 5 5 5 1 0 6 11 15 16 12 9 1 0 0 0 0 0 0 0 0 0 0 0 0
0 0 0 0 0 0 0 0 0 0 0 0 0 0 0 0 0 0 0 0 0 0 0 0 5 14 23 22 31 8 8 12 5 0 0 0 0 0 0 0 0 0 5
0 0 0 0 0 0 0 0 0 0 0 0 0 0 0 0 0 0 0 0 0 0 1 2 3 13 25 24 22 21 35 47 41 19 6 0 0 0 5 15 11 15 21
0 0 0 0 0 0 0 0 0 0 0 0 0 0 0 0 0 0 0 0 0 0 0 0 0 29 51 67 44 86 50 37 35 113 41 16 6 0 17 22 30 68 80
0 0 0 0 0 0 0 0 0 0 0 0 0 0 0 0 0 0 0 0 0 0 0 0 0 0 0 26 61 69 74 60 68 49 55 43 23 6 0 0 5 36 60

GFSSE_con_mucape_012.txt.gz
CAPE
7 0 471 949 414 423 413 152 43 22 0 0 0 1 4 3 0 0 6 15 13 9 4 0 0 66 56 49 40 21 0 0 0 0 0 0 10 30 17 23 2 0 0
21 23 652 958 642 544 287 163 23 1 0 0 0 3 8 11 13 0 7 21 4 3 3 0 0 28 22 20 17 19 6 0 0 0 0 0 4 18 1 11 29 18 22
26 37 387 1046 747 632 355 233 23 1 0 0 0 0 16 25 32 14 20 24 24 9 2 5 0 7 4 32 36 21 9 0 0 0 0 0 0 0 2 12 46 51 43
43 70 316 965 770 583 484 250 36 4 0 0 0 1 54 35 10 6 6 1 6 4 3 1 4 3 3 16 55 16 3 0 0 0 0 0 0 3 12 1 23 28 26
96 181 286 961 896 750 464 224 64 0 0 0 0 0 52 20 21 31 6 1 0 0 1 0 11 10 1 3 7 14 4 0 0 0 0 0 0 3 10 3 9 6 0
136 228 296 947 991 690 449 213 64 0 1 0 0 13 54 38 22 30 7 0 2 0 0 0 10 6 7 0 0 6 8 0 0 0 0 0 0 0 4 0 0 0 0
147 202 257 744 997 639 496 286 81 0 0 0 17 22 36 53 34 11 0 0 0 0 1 1 0 5 3 1 0 2 9 4 0 0 0 0 0 0 4 1 0 0 0
139 189 276 939 1074 881 522 304 122 0 0 0 6 15 16 18 38 2 0 0 0 4 6 8 6 1 1 9 8 8 12 24 0 0 0 0 0 0 13 7 0 0 0
104 185 359 816 826 834 682 506 289 20 5 0 2 14 9 13 6 3 2 9 3 12 22 32 25 19 6 3 5 9 18 23 4 0 0 0 0 0 16 9 4 0 0
106 142 341 653 706 583 446 513 426 303 88 48 43 26 9 4 0 5 12 18 0 11 33 30 35 27 17 5 1 7 18 18 6 0 0 0 0 0 9 10 5 1 0
65 116 243 458 665 566 422 195 359 264 78 30 12 8 4 0 0 0 0 0 4 8 15 32 43 32 35 19 0 0 4 0 0 0 0 0 0 0 7 22 16 10 2
26 111 198 329 485 546 414 194 58 14 0 0 0 0 0 0 0 0 0 0 0 17 17 12 20 36 29 1 0 0 0 0 0 0 0 0 0 0 3 14 21 22 13
0 43 164 242 312 341 287 154 3 0 0 0 0 0 0 0 0 0 0 0 0 0 0 0 0 0 0 0 0 0 0 0 0 0 0 0 0 0 0 3 14 40 29
0 0 36 135 251 212 152 43 0 0 0 0 0 0 0 0 0 0 0 0 0 0 0 0 0 0 0 0 0 0 0 0 0 0 0 0 0 0 0 0 5 31 139
0 0 0 11 90 116 68 3 0 0 0 0 0 0 0 0 0 0 0 0 0 0 0 0 0 0 0 0 0 0 0 0 0 0 0 0 0 0 0 0 0 5 21
0 0 0 0 0 14 6 0 0 0 0 0 0 0 0 0 0 0 0 0 0 0 0 0 0 0 0 0 0 0 0 0 0 0 0 0 0 0 0 0 0 0 2
0 0 0 0 0 0 0 0 0 0 0 0 0 0 0 0 0 0 0 0 0 0 0 0 0 0 0 0 0 0 0 0 0 0 0 0 0 0 0 0 0 0 0
0 0 0 0 0 0 0 0 0 0 0 0 0 0 0 0 0 0 0 0 0 0 0 0 0 0 0 0 0 0 0 0 0 0 0 0 0 0 0 0 0 0 0
0 0 0 0 0 0 0 0 0 0 0 0 0 0 0 0 0 0 0 0 0 0 0 2 2 8 6 4 3 1 1 0 0 0 0 0 0 0 0 0 0 0 0
0 0 0 0 0 0 0 0 0 0 0 0 0 0 0 0 0 0 0 0 5 9 5 5 7 15 11 10 11 5 2 0 0 0 0 0 0 0 0 0 0 0 0
0 0 0 0 0 0 0 0 0 0 0 0 0 0 0 0 0 0 7 9 1 0 0 0 5 4 0 0 14 8 8 2 0 0 0 0 0 0 0 0 0 0 0
0 0 0 0 0 0 0 0 0 0 0 0 0 0 0 0 0 0 0 0 0 0 0 0 0 0 5 0 8 19 8 2 0 1 0 0 0 0 0 0 0 0 0
0 0 0 0 0 0 0 0 0 0 0 0 0 0 0 0 0 0 0 0 0 0 0 0 1 5 0 0 13 44 29 37 41 9 6 0 0 0 0 0 0 0 0
0 0 0 0 0 0 0 0 0 0 0 0 0 0 0 0 0 0 0 0 0 0 0 0 0 0 5 20 21 29 38 45 53 30 27 27 16 2 5 0 0 0 8
0 0 0 0 0 0 0 0 0 0 0 0 0 0 0 0 0 0 0 0 0 0 0 0 0 0 0 0 0 1 4 0 7 37 8 1 0 14 41 9 3 0 19
0 0 0 0 0 0 0 0 0 0 0 0 0 0 0 0 0 0 0 0 0 0 0 0 0 0 0 0 0 0 0 0 0 0 0 0 3 2 2 9 36 12 15

GFSSE_con_mucape_015.txt.gz
CAPE
8 0 417 924 764 454 184 100 48 14 0 0 0 0 0 0 0 0 3 5 8 2 0 0 0 56 43 40 31 22 2 0 0 0 0 0 0 18 9 8 0 0 0
13 5 645 1167 482 536 342 144 95 28 0 0 0 3 0 6 0 0 3 6 9 2 0 0 0 27 27 6 15 22 6 0 0 0 0 0 0 12 1 3 25 5 15
22 23 452 1204 953 649 343 231 77 17 0 0 0 0 3 14 17 12 15 10 13 12 1 0 0 4 10 5 19 21 16 2 0 0 0 0 0 9 0 8 44 59 52
30 63 370 1261 892 665 440 304 133 24 0 0 0 3 13 30 11 2 0 0 7 2 3 0 0 3 13 6 61 17 8 1 0 0 0 0 2 1 5 16 31 42 35
50 91 317 1050 975 739 577 366 158 22 0 0 0 13 51 35 18 6 3 0 0 0 0 0 1 4 9 2 8 19 4 2 0 0 0 0 0 0 20 8 8 33 8
99 153 331 988 961 981 492 309 165 34 0 0 0 6 36 57 21 8 0 0 0 0 0 0 0 14 10 8 6 8 20 13 0 0 0 0 0 0 6 13 10 12 5
150 227 273 670 866 941 486 290 173 40 0 0 5 22 23 87 32 4 0 0 0 0 0 2 2 1 11 12 9 10 11 23 5 0 0 0 0 10 19 12 6 3 2
169 221 246 571 1125 953 629 383 238 60 0 0 1 23 29 23 14 11 1 0 0 2 10 11 12 4 2 4 13 10 23 11 11 2 0 0 0 2 0 17 9 5 4
147 213 264 369 882 872 788 588 455 195 24 14 11 12 5 8 2 1 0 6 18 19 10 22 38 33 30 17 12 9 25 30 13 18 0 0 0 0 13 20 28 21 13
108 193 283 386 838 782 614 515 481 373 242 145 69 30 15 6 0 7 15 17 22 21 20 36 38 43 37 39 23 27 29 30 10 15 5 0 0 0 18 29 35 22 17
66 119 238 386 698 676 532 372 399 314 220 73 20 10 5 2 0 0 0 0 0 11 14 18 32 44 50 42 16 9 5 0 0 2 4 0 0 0 0 19 26 36 29
21 96 183 298 495 580 430 371 314 225 135 5 0 0 0 0 0 0 0 0 0 0 0 0 1 4 18 7 3 0 0 0 0 0 0 0 1 5 0 0 12 26 36
0 23 134 185 316 410 454 340 264 123 37 0 0 0 0 0 0 0 0 0 0 0 0 0 0 0 0 0 0 0 0 0 0 0 0 0 0 1 5 1 2 10 22
0 0 26 167 226 265 279 254 176 95 0 0 0 0 0 0 0 0 0 0 0 0 0 0 0 0 0 0 0 0 0 0 0 0 0 0 0 0 0 0 0 0 5
0 0 0 20 159 190 248 199 124 25 0 0 0 0 0 0 0 0 0 0 0 0 0 0 0 0 0 0 0 0 0 0 0 0 0 0 0 0 0 0 0 0 0
0 0 0 0 12 77 94 104 59 2 0 0 0 0 0 0 0 0 0 0 0 0 0 0 0 0 0 0 0 0 0 0 0 0 0 0 0 0 0 0 0 0 0
0 0 0 0 0 0 27 22 19 0 0 0 0 0 0 0 0 0 0 0 0 0 0 0 0 0 0 0 0 0 0 0 0 0 0 0 0 0 0 0 0 0 0
0 0 0 0 0 0 0 0 0 0 0 0 0 0 0 0 0 0 0 0 0 0 0 0 0 0 0 2 2 2 0 0 0 0 0 0 0 0 0 0 0 0 0
0 0 0 0 0 0 0 0 0 0 0 0 0 0 0 0 0 0 0 0 0 0 4 0 0 0 0 0 0 0 0 0 0 0 0 0 0 0 0 0 0 0 0
0 0 0 0 0 0 0 0 0 0 0 0 0 0 0 0 0 0 0 0 0 0 0 0 0 0 0 0 0 0 0 0 0 0 0 0 0 0 0 0 0 0 0
0 0 0 0 0 0 0 0 0 0 0 0 0 0 0 0 0 0 0 0 0 0 0 0 0 0 5 13 9 0 1 4 0 0 0 0 0 0 0 0 0 0 0
0 0 0 0 0 0 0 0 0 0 0 0 0 0 0 0 0 0 0 0 0 0 0 0 0 0 2 4 29 33 29 6 14 16 11 0 0 0 0 0 0 0 0
0 0 0 0 0 0 0 0 0 0 0 0 0 0 0 0 0 0 0 0 0 0 0 0 0 0 0 0 0 8 8 0 7 0 11 4 3 3 0 0 0 4 5
0 0 0 0 0 0 0 0 0 0 0 0 0 0 0 0 0 0 0 0 0 0 0 0 0 0 0 0 0 0 0 2 0 0 0 0 1 5 3 1 8 5 0
0 0 0 0 0 0 0 0 0 0 0 0 0 0 0 0 0 0 0 0 0 0 0 0 0 0 0 0 0 0 0 0 0 0 0 0 0 0 6 10 1 7 19
0 0 0 0 0 0 0 0 0 0 0 0 0 0 0 0 0 0 0 0 0 0 0 0 0 0 0 0 0 0 0 0 0 0 0 0 0 0 11 25 32 29 48

GFSSE_con_mucape_018.txt.gz
CAPE
25 9 662 930 903 539 256 114 45 2 0 0 0 0 0 0 0 0 0 0 4 3 0 0 0 12 48 40 29 14 7 1 0 0 0 0 0 15 10 0 0 0 0
18 5 623 814 955 564 233 137 108 21 0 0 0 0 3 0 0 0 0 1 12 2 0 0 0 11 33 4 8 16 13 2 0 0 0 0 0 2 6 0 4 8 4
31 4 490 1322 1000 628 332 222 159 66 7 0 0 0 5 18 16 4 13 5 9 2 0 0 0 5 9 7 22 15 14 3 0 0 0 0 0 0 0 0 7 45 34
35 22 350 1365 1025 843 435 308 167 56 6 0 0 0 12 33 15 18 0 0 1 0 0 0 0 0 1 14 35 27 6 3 1 0 0 0 0 0 0 0 9 31 53
57 63 179 1395 1024 865 580 354 189 85 23 0 0 0 12 62 13 3 1 0 0 0 0 0 0 0 4 11 9 11 15 3 1 0 0 0 7 0 0 24 0 15 30
72 96 397 1270 1007 973 783 449 219 100 34 0 0 0 15 97 32 13 0 0 0 0 0 0 0 6 11 12 0 16 24 19 9 12 0 0 3 6 0 11 12 6 19
90 113 172 823 1051 987 742 342 237 116 15 0 0 11 25 33 133 17 0 0 0 0 0 0 3 2 0 4 10 8 16 20 3 16 5 0 0 16 29 25 22 9 6
130 149 104 506 1041 1210 743 392 263 136 40 3 0 14 28 72 15 6 4 0 0 4 8 14 14 15 10 4 3 7 9 35 6 9 12 2 0 0 27 37 22 19 11
146 165 125 132 386 948 928 748 459 231 116 11 0 13 16 4 0 0 0 5 16 32 18 20 28 39 40 37 29 20 32 29 12 6 7 8 0 0 3 30 19 36 24
177 201 171 181 318 694 623 619 580 462 316 224 187 76 16 0 0 0 1 8 0 13 14 2 7 32 44 41 20 24 18 7 0 0 1 0 0 0 0 2 23 23 32
143 249 299 264 372 561 521 441 424 358 291 201 76 13 0 2 6 1 0 0 0 0 0 0 0 0 11 16 18 6 0 1 0 0 0 0 0 3 1 1 4 21 28
106 203 313 405 410 575 489 494 451 287 238 132 26 2 0 0 2 0 0 0 0 0 0 0 0 0 0 2 3 0 4 0 0 0 0 0 0 0 1 1 1 4 14
16 91 194 366 458 524 581 529 427 353 247 143 55 4 0 0 0 0 0 0 0 0 0 0 0 0 0 0 2 2 2 2 1 0 0 0 0 0 0 0 2 0 2
0 1 45 197 378 473 553 563 456 373 288 200 74 3 0 0 0 0 0 0 0 0 0 0 0 0 0 1 1 0 2 2 1 0 0 0 0 0 0 0 0 2 4
2 9 11 44 192 350 496 498 490 374 276 163 112 11 0 0 0 0 0 0 0 0 0 1 1 1 0 1 1 0 1 0 0 0 0 0 0 0 0 0 0 0 0
0 0 1 2 22 165 347 440 436 369 255 165 70 16 0 0 0 0 0 0 0 0 0 0 0 0 0 0 0 0 0 2 2 2 2 0 0 0 0 0 0 0 0
0 0 0 0 0 46 181 273 343 315 156 122 36 0 0 0 0 0 0 0 0 1 0 0 0 0 3 4 5 4 5 6 4 5 7 3 2 0 0 0 1 1 1
0 0 0 0 0 0 87 134 149 97 64 39 2 0 0 0 0 0 0 1 1 0 0 0 0 9 12 14 13 14 14 10 4 5 4 3 2 0 0 0 0 0 1
0 0 0 0 0 0 12 18 6 0 0 0 0 0 0 0 0 0 0 0 0 0 0 3 4 5 7 10 5 7 7 5 5 7 9 5 1 0 0 0 0 0 0
0 0 0 0 0 0 0 1 0 0 1 2 1 1 0 0 0 0 0 0 0 0 0 0 0 0 1 6 4 5 3 0 1 4 11 15 22 17 15 13 6 1 0
0 0 0 0 2 5 40 47 0 0 0 0 0 0 0 0 0 0 0 0 0 0 0 0 0 0 0 0 0 0 0 0 7 1 33 36 18 22 31 57 58 46 25
0 0 0 0 0 3 18 0 0 0 0 0 0 0 0 0 0 0 0 0 0 0 0 0 0 0 0 0 0 0 0 0 0 0 0 0 0 0 1 33 55 74 96
0 0 0 0 0 0 0 0 0 0 0 0 0 0 0 0 0 0 0 0 0 0 0 0 0 0 0 0 0 0 0 0 0 0 0 0 0 0 0 0 3 7 19
0 0 0 0 0 0 0 0 0 0 0 0 0 0 0 0 0 0 0 0 0 0 0 0 0 0 0 0 0 0 0 0 0 0 0 0 0 0 0 0 0 0 1
0 0 0 0 0 0 0 0 0 0 0 0 0 0 0 0 0 0 0 0 0 0 0 0 0 0 0 0 0 0 0 0 0 0 0 0 0 0 0 0 0 3 2
0 0 0 0 0 0 0 0 0 0 0 0 0 0 0 0 0 0 0 0 0 0 0 0 0 0 0 0 0 0 0 0 0 0 0 0 0 0 0 0 0 14 31

GFSSE_con_mucape_021.txt.gz
CAPE
3 357 1238 1122 804 451 310 147 56 1 0 0 0 0 0 0 0 0 2 0 0 2 0 0 0 0 41 39 20 18 9 7 0 0 0 0 0 5 16 0 0 5 0
1 67 1319 1326 882 527 353 140 87 6 0 0 0 0 0 0 0 0 0 0 17 2 0 0 0 5 29 5 14 25 10 13 2 0 0 0 0 0 6 0 0 15 8
0 29 642 1382 1356 675 262 165 143 42 0 0 0 0 1 12 12 1 19 13 23 6 0 0 0 0 3 19 39 41 20 6 0 0 0 0 0 0 0 0 0 6 40
0 26 125 1518 1101 704 377 326 171 89 17 0 0 0 5 18 15 16 0 0 4 5 0 0 0 0 0 4 15 20 11 3 0 0 0 0 0 17 0 0 0 1 41
0 17 852 1526 1150 981 608 346 158 92 14 0 0 0 10 37 51 8 6 0 0 0 0 0 0 0 0 0 3 8 22 20 5 0 0 0 0 2 0 0 11 0 18
17 40 859 1549 1166 988 717 440 174 99 61 0 0 0 15 20 116 16 0 0 0 0 0 0 0 0 0 8 0 0 13 28 14 2 3 0 0 0 3 0 10 9 3
43 66 403 1336 1069 941 935 461 215 111 23 0 0 3 28 51 173 17 5 0 0 0 0 1 1 0 0 0 0 0 7 25 0 0 0 8 0 0 9 14 11 16 8
66 79 126 765 1156 996 984 410 260 134 38 6 0 4 34 78 72 21 12 0 0 0 3 6 18 18 14 6 3 0 1 9 0 0 0 0 3 0 0 5 20 14 19
100 105 96 100 383 826 956 721 423 196 73 26 1 0 10 1 0 0 0 0 0 2 16 0 1 16 18 15 9 7 13 9 0 0 0 0 3 0 0 0 7 23 34
130 142 120 145 179 518 482 650 517 468 298 154 147 102 10 0 0 0 0 0 0 0 0 0 0 0 0 3 16 20 9 0 0 0 0 0 0 0 0 0 0 7 23
99 198 200 195 260 473 458 560 419 332 248 168 90 16 0 0 0 1 0 0 0 0 0 0 0 0 0 0 0 0 1 0 0 0 0 0 0 0 0 1 0 2 7
80 148 268 286 296 452 357 457 389 302 203 144 65 20 13 0 0 0 0 0 0 0 0 0 0 0 0 0 2 3 0 0 1 0 0 0 0 0 0 0 2 4 4
36 108 164 308 356 414 501 406 391 277 196 115 43 7 0 0 0 0 0 0 0 0 0 0 0 0 0 0 0 0 0 0 0 0 0 0 0 0 0 0 0 0 3
0 6 69 130 317 370 471 467 399 310 250 172 76 14 0 0 0 0 0 0 0 0 0 0 0 0 0 0 0 0 0 0 1 1 0 0 0 0 0 0 2 0 0
0 13 20 51 158 292 406 447 446 351 287 199 168 90 11 0 0 0 0 0 0 0 0 0 0 0 3 6 7 6 10 10 13 14 10 1 5 4 0 0 5 12 8
0 9 20 27 39 123 293 419 420 402 304 248 182 151 60 10 2 2 1 3 3 4 4 6 6 10 13 10 15 14 17 26 24 22 23 16 7 9 4 0 0 10 52
0 0 0 0 1 52 188 338 426 421 304 265 215 133 51 12 3 3 3 5 11 14 12 9 11 30 25 38 23 8 22 19 13 8 8 12 23 19 25 29 15 0 11
0 0 0 0 0 0 136 277 354 353 273 233 159 77 26 6 3 4 9 9 15 31 39 57 5 12 8 7 6 0 0 0 0 0 0 5 23 21 22 49 53 30 10
0 0 0 0 0 3 152 223 196 121 86 47 18 12 7 6 4 5 5 2 0 0 0 0 0 0 0 0 0 0 0 0 0 0 0 1 9 37 37 23 24 36 38
0 0 0 4 14 46 82 76 84 80 14 0 0 0 0 0 0 0 0 0 0 0 0 0 0 0 0 0 0 0 0 0 0 0 6 19 21 28 11 20 63 75 42
0 0 0 7 33 74 119 99 0 0 0 0 0 0 0 0 0 0 0 0 0 0 0 0 0 0 0 0 0 0 0 0 0 0 0 0 5 0 0 0 0 22 44
0 0 0 0 16 17 0 0 0 0 0 0 0 0 0 0 0 0 0 0 0 0 0 0 0 0 0 0 0 0 0 0 0 0 0 0 0 0 0 0 0 5 8
0 0 0 0 0 0 0 0 0 0 0 0 0 0 0 0 0 0 0 0 0 0 0 0 0 0 0 0 0 0 0 0 0 0 0 0 0 0 0 0 0 0 0
0 0 0 0 0 0 0 0 0 0 0 0 0 0 0 0 0 0 0 0 0 0 0 0 0 0 0 0 0 0 0 0 0 0 0 0 0 0 0 0 0 0 0
0 0 0 0 0 0 0 0 0 0 0 0 0 0 0 0 0 0 0 0 0 0 0 0 0 0 0 0 0 0 0 0 0 0 0 0 0 0 0 0 0 0 0
0 0 0 0 0 0 0 0 0 0 0 0 0 0 0 0 0 0 0 0 0 0 0 0 0 0 0 0 0 0 0 0 0 0 0 0 0 0 0 0 0 0 14

GFSSE_con_mucape_024.txt.gz
CAPE
123 595 1680 1074 809 532 334 153 46 1 0 0 0 0 0 0 0 0 0 0 13 9 11 13 16 1 48 40 10 13 21 11 0 0 0 0 0 0 17 0 0 10 0
380 463 1679 1377 812 477 429 164 85 18 5 0 0 0 0 0 0 0 0 11 17 13 11 15 35 43 22 11 22 28 15 22 3 0 0 0 0 0 0 0 0 10 34
160 681 1337 1640 1331 788 485 168 98 30 0 0 0 0 1 4 5 1 3 11 24 8 1 0 1 6 18 21 21 37 17 10 4 0 0 0 0 0 0 0 0 0 39
29 552 765 1616 1386 827 507 276 154 56 6 0 0 0 9 21 17 9 0 0 0 0 0 0 0 0 0 0 0 2 17 8 3 0 0 0 0 14 6 0 0 0 3
1 101 664 1712 1504 1042 699 359 169 84 0 0 0 0 14 21 40 3 5 0 0 0 0 0 0 0 0 0 0 0 10 27 17 0 0 0 0 0 17 0 0 0 0
0 996 1399 1578 1553 1460 1149 323 148 93 45 0 0 0 11 14 110 20 6 0 0 0 0 0 0 0 0 0 0 0 0 0 0 0 0 0 0 0 0 4 0 0 0
74 714 1226 1598 1497 1296 1076 467 196 92 28 0 0 0 30 42 94 28 9 0 0 0 0 0 0 0 0 0 0 0 0 0 0 0 0 0 0 0 0 6 11 4 3
47 296 790 1314 1346 1268 1133 564 281 110 28 4 0 0 12 36 30 62 17 0 0 0 0 0 0 2 13 5 1 1 1 0 0 0 0 0 0 0 0 0 2 5 23
69 100 186 690 897 843 1094 706 558 224 84 36 1 0 5 3 0 0 0 0 0 0 0 0 0 0 1 9 17 20 18 2 0 0 0 0 0 0 1 0 0 1 9
99 92 98 87 285 293 674 672 561 425 228 103 65 30 3 0 0 6 5 20 0 0 0 0 0 0 0 0 0 2 8 0 0 0 0 0 0 0 0 0 0 0 2
101 109 97 97 152 345 481 449 498 379 253 130 59 29 4 0 0 0 0 0 0 0 0 0 0 0 0 0 0 0 0 0 0 0 0 0 0 0 0 0 0 2 2
72 121 166 150 180 342 356 471 293 166 136 84 52 23 0 0 0 0 0 0 0 0 0 0 0 0 0 0 0 0 0 0 0 0 0 0 0 0 0 0 0 1 4
52 75 152 198 199 298 302 324 369 268 201 170 132 45 5 0 0 0 0 0 0 0 0 0 0 0 0 0 0 0 0 0 0 0 0 10 29 3 0 0 0 1 7
24 41 112 141 233 236 362 317 296 247 169 114 58 22 0 0 0 0 0 0 0 0 0 0 0 0 0 0 0 2 1 5 5 4 1 3 45 37 20 23 34 21 22
0 0 7 71 93 245 270 384 308 274 202 153 110 73 12 0 0 0 0 0 0 0 0 0 0 2 6 9 12 21 11 12 18 15 12 7 26 89 95 49 43 47 53
0 0 3 5 23 101 250 297 358 308 250 196 161 126 86 32 5 0 0 2 18 8 10 10 23 8 7 15 10 11 5 6 3 3 0 0 4 62 136 102 69 112 126
0 0 0 0 3 16 101 319 310 346 282 321 219 138 91 46 14 2 3 13 12 8 21 14 11 7 2 0 0 0 0 0 0 0 0 0 0 0 50 163 279 181 104
0 0 0 0 0 2 65 253 320 522 287 249 232 187 210 79 14 0 14 6 10 9 0 0 0 0 0 0 0 0 0 0 0 0 0 0 0 0 20 132 212 164 189
0 0 0 0 0 0 123 208 264 269 182 149 68 29 34 1 0 4 2 0 0 0 0 0 0 0 0 0 0 0 0 0 0 0 0 0 0 0 6 13 37 98 160
0 0 0 0 9 72 124 166 192 110 33 21 2 0 0 0 0 0 0 0 0 0 0 0 0 0 0 0 0 0 0 0 0 0 0 0 0 0 0 16 31 12 1
0 0 0 0 0 7 18 18 14 5 0 0 0 0 0 0 0 0 0 0 0 0 0 0 0 0 0 0 0 0 0 0 0 0 0 0 0 0 0 0 0 0 0
0 0 0 1 20 19 11 0 0 0 0 0 0 0 0 0 0 0 0 0 0 0 0 0 0 0 0 0 0 0 0 0 0 0 0 0 0 0 0 0 0 0 0
0 0 0 0 0 0 0 0 0 0 0 0 0 0 0 0 0 0 0 0 0 0 0 0 0 0 0 0 0 0 0 0 0 0 0 0 0 0 0 0 0 0 0
0 0 0 0 0 0 0 0 0 0 0 0 0 0 0 0 0 0 0 0 0 0 0 0 0 0 0 0 0 0 0 0 0 0 0 0 0 0 0 0 0 0 0
0 0 0 0 0 0 0 0 0 0 0 0 0 0 0 0 0 0 0 0 0 0 0 0 0 0 0 0 0 0 0 0 0 0 0 0 0 0 0 0 0 0 0
0 0 0 0 0 0 0 0 0 0 0 0 0 0 0 0 0 0 0 0 0 0 0 0 0 0 0 0 0 0 0 0 0 0 0 0 0 0 0 0 0 0 0

GFSSE_con_mucape_027.txt.gz
CAPE
420 1245 1709 1033 830 599 298 153 22 5 0 0 0 0 0 0 0 1 0 0 14 12 12 34 22 22 65 30 11 23 22 12 1 0 0 0 0 0 3 0 0 0 5
509 1196 1663 1429 825 667 435 168 35 15 0 0 0 0 0 0 0 0 0 15 6 9 1 16 25 26 36 32 32 19 25 15 7 0 0 0 0 0 0 0 0 0 31
698 1190 1259 1564 1290 783 527 201 68 21 0 0 0 0 3 13 8 14 6 4 5 6 0 0 0 2 17 17 3 5 7 15 6 0 0 0 0 0 0 1 0 0 3
592 1054 1174 1593 1452 960 528 160 75 29 0 0 0 0 3 28 20 8 0 0 0 0 0 0 0 0 0 0 0 0 0 3 0 0 0 0 0 0 2 8 0 0 0
833 991 1155 1711 1613 1378 773 319 98 51 0 0 0 0 9 26 33 5 5 0 0 0 0 0 0 0 0 0 0 0 0 0 0 0 0 0 0 0 6 10 0 0 0
365 698 1330 1805 1718 1498 1149 488 115 46 6 0 0 0 0 11 60 13 6 0 0 0 0 0 0 0 0 0 0 0 0 0 0 0 0 0 0 0 0 3 0 0 1
640 749 1249 1781 1784 1633 1099 310 149 72 36 0 0 0 19 33 92 28 9 0 0 0 0 0 0 0 0 0 0 0 0 0 0 0 0 0 0 0 1 0 13 15 7
806 1026 1254 1507 1670 1571 1041 536 237 94 35 0 0 5 15 37 130 56 3 0 0 0 0 0 0 0 12 17 12 5 4 0 0 0 0 0 0 0 3 4 1 4 11
551 765 1039 1119 1088 1183 1160 721 560 180 78 41 0 0 22 5 2 0 31 0 0 0 0 0 0 0 0 3 8 28 36 1 0 0 0 0 0 0 0 4 4 1 2
224 259 662 870 849 764 670 614 568 383 242 145 58 9 2 0 0 27 34 31 3 0 0 0 0 0 0 0 0 1 0 0 0 0 0 0 0 0 0 1 2 3 5
85 143 219 413 477 337 700 486 454 332 201 112 53 27 0 0 0 0 0 0 47 0 0 0 0 0 0 0 0 0 0 0 0 0 0 0 0 0 0 0 2 0 4
97 107 112 122 140 197 571 477 350 225 126 57 29 3 2 0 0 0 0 0 0 0 0 0 0 16 0 0 0 0 0 0 0 0 0 0 0 5 13 64 47 24 0
70 126 126 147 166 244 445 389 311 248 174 113 92 47 29 6 0 0 0 0 0 0 0 0 0 0 0 0 0 0 1 4 5 8 6 11 52 51 90 148 142 127 59
48 86 191 174 176 250 364 414 290 305 223 195 150 101 44 8 0 0 0 0 0 0 0 0 0 0 1 3 3 7 15 19 18 11 15 19 81 92 87 221 292 242 298
5 66 123 197 221 217 343 347 307 355 246 179 117 87 39 7 0 1 1 0 0 0 1 1 3 3 5 12 19 17 13 2 3 1 0 0 20 80 66 54 80 321 201
0 26 136 99 141 243 289 369 315 280 371 248 132 161 117 67 41 32 26 16 11 5 32 5 5 5 11 7 1 0 0 0 0 0 0 0 0 0 26 24 79 105 87
0 0 0 7 13 86 229 299 321 331 336 342 323 143 265 91 52 51 29 42 20 26 14 2 2 1 0 0 0 0 0 0 0 0 0 0 0 0 0 0 4 6 42
0 0 5 0 2 3 87 283 288 494 396 262 204 237 202 80 119 77 17 32 56 4 0 0 0 0 0 0 0 0 0 0 0 0 0 0 0 0 0 0 5 0 3
0 0 0 0 0 0 123 319 207 280 297 252 151 92 56 28 0 1 0 0 0 0 0 0 0 0 0 0 0 0 0 0 0 0 0 0 0 0 0 0 2 1 0
0 0 0 0 0 74 173 219 124 140 184 106 29 0 0 0 0 0 0 0 0 0 0 0 0 0 0 0 0 0 0 0 0 0 0 0 0 0 0 0 0 0 0
0 0 0 18 59 99 140 168 125 105 92 6 0 0 0 0 0 0 0 0 0 0 0 0 0 0 0 0 0 0 0 0 0 0 0 0 0 0 0 0 0 0 0
0 0 0 0 15 51 89 96 83 14 0 0 0 0 0 0 0 0 0 0 0 0 0 0 0 0 0 0 0 0 0 0 0 0 0 0 0 0 0 0 0 0 0
0 0 0 0 0 0 0 0 0 0 0 0 0 0 0 0 0 0 0 0 0 0 0 0 0 0 0 0 0 0 0 0 0 0 0 0 0 0 0 0 0 0 0
0 0 0 0 0 0 0 0 0 0 0 0 0 0 0 0 0 0 0 0 0 0 0 0 0 0 0 0 0 0 0 0 0 0 0 0 0 0 0 0 0 0 0
0 0 0 0 0 0 0 0 0 0 0 0 0 0 0 0 0 0 0 0 0 0 0 0 0 0 0 0 0 0 0 0 0 0 0 0 0 0 0 0 0 0 0
0 0 0 0 0 0 0 0 0 0 0 0 0 0 0 0 0 0 0 0 0 0 0 0 0 0 0 0 0 0 0 0 0 0 0 0 0 0 0 0 0 0 0

GFSSE_con_mucape_030.txt.gz
CAPE
324 1221 1808 1105 933 594 302 63 2 0 0 0 0 0 6 5 29 9 0 3 4 7 10 39 1 108 93 21 18 26 9 1 0 0 0 0 0 0 0 0 0 0 8
587 1309 1699 1341 959 622 374 54 22 0 0 0 0 0 0 0 0 0 0 7 1 0 0 10 7 39 24 33 17 4 0 0 0 0 0 0 0 0 0 3 0 0 15
1113 1182 1318 1591 1390 704 408 79 46 2 0 0 0 0 2 10 2 11 7 0 3 0 0 0 0 2 8 13 2 0 0 0 0 0 0 0 0 0 0 0 0 0 0
1063 1131 1140 1634 1444 793 397 106 58 15 0 0 0 0 8 11 19 8 0 0 0 0 0 0 0 0 0 0 0 0 0 0 0 0 0 0 0 0 0 7 18 0 0
958 1088 1113 1659 1628 1348 656 135 61 25 0 0 0 0 9 27 27 4 0 0 0 0 0 0 0 0 0 0 0 0 0 0 0 0 0 0 0 0 2 32 26 7 0
786 1110 1251 1695 1715 1523 987 236 93 35 0 0 0 0 4 15 24 0 4 0 0 0 0 0 0 0 0 0 0 0 0 0 0 0 0 0 0 0 0 2 26 15 5
761 1012 1270 1851 1879 1564 1175 378 167 48 15 0 0 0 2 19 63 17 5 0 0 0 0 0 0 0 0 0 0 0 0 0 0 0 0 0 0 0 0 15 9 35 21
532 791 1177 1697 1753 1648 1114 548 288 127 41 0 0 6 33 47 90 45 0 0 0 0 0 0 0 0 1 18 42 17 31 10 0 0 0 0 0 0 0 12 15 8 8
793 1024 1239 1399 1411 1340 923 774 559 184 72 4 0 17 15 10 135 78 55 3 0 0 0 0 0 0 0 0 0 15 145 113 0 0 0 0 0 0 0 0 9 13 12
868 982 1180 1117 1096 942 786 646 547 310 176 113 28 26 25 0 0 47 116 78 1 3 0 0 0 0 0 0 0 29 37 9 0 0 0 0 0 0 0 0 0 8 8
590 626 874 924 842 768 791 462 468 309 165 105 46 6 0 0 0 0 0 1 38 26 5 0 0 0 35 33 26 21 0 0 0 0 0 0 0 19 17 19 85 17 5
263 275 438 615 652 576 682 459 339 212 69 25 10 1 0 0 0 0 0 2 18 90 37 1 6 74 37 0 0 0 0 0 0 0 1 5 25 63 90 182 138 150 97
109 189 220 218 270 273 379 521 340 214 90 34 29 2 3 3 0 0 0 0 0 0 0 0 0 0 0 0 0 0 0 5 11 13 15 19 42 70 97 291 298 126 107
44 178 204 195 185 197 412 425 351 219 131 115 68 54 32 33 1 0 0 0 0 0 0 0 0 0 1 4 4 4 3 7 9 1 0 0 10 7 12 15 33 135 175
0 95 238 231 228 249 354 491 417 269 226 184 151 136 92 42 4 0 3 6 20 10 23 31 6 7 6 7 4 6 2 0 0 0 0 0 0 0 0 0 2 8 26
0 0 188 268 257 289 401 442 391 323 344 228 163 88 99 78 62 38 29 29 4 20 37 10 25 20 7 0 0 0 0 0 0 0 0 0 0 0 0 0 0 0 0
0 0 98 225 264 310 372 413 387 295 287 253 200 116 288 218 79 44 11 3 1 30 22 16 1 0 0 0 0 0 0 0 0 0 0 0 0 0 0 0 0 0 0
0 4 78 174 156 287 339 431 416 431 324 240 252 165 123 154 43 79 30 5 2 2 0 0 0 0 0 0 0 0 0 0 0 0 0 0 0 0 0 0 0 0 0
0 0 6 24 27 63 200 331 360 233 410 244 164 234 133 24 9 1 0 0 0 0 0 0 0 0 0 0 0 0 0 0 0 0 0 0 0 0 0 0 0 0 0
0 0 0 0 1 14 116 296 352 289 298 448 209 92 76 0 0 0 0 0 0 0 0 0 0 0 0 0 0 0 0 0 0 0 0 0 0 0 0 0 0 0 0
0 0 0 0 0 14 131 296 385 126 51 31 26 1 0 0 0 0 0 0 0 0 0 0 0 0 0 0 0 0 0 0 0 0 0 0 0 0 0 0 0 0 0
0 0 0 0 0 35 170 319 342 166 46 37 9 0 0 0 0 0 0 0 0 0 0 0 0 0 0 0 0 0 0 0 0 0 0 0 0 0 0 0 0 0 0
0 0 9 12 59 86 123 177 207 193 96 0 0 0 0 0 0 0 0 0 0 0 0 0 0 0 0 0 0 0 0 0 0 0 0 0 0 0 0 0 0 0 0
0 0 0 5 19 37 53 66 48 9 0 0 0 0 0 0 0 0 0 0 0 0 0 0 0 0 0 0 0 0 0 0 0 0 0 0 0 0 0 0 0 0 0
0 0 0 0 0 0 0 0 0 0 0 0 0 0 0 0 0 0 0 0 0 0 0 0 0 0 0 0 0 0 0 0 0 0 0 0 0 0 0 0 0 0 0
0 0 0 0 0 0 0 0 0 0 0 0 0 0 0 0 0 0 0 0 0 0 0 0 0 0 0 0 0 0 0 0 0 0 0 0 0 0 0 0 0 0 0

GFSSE_con_mucape_033.txt.gz
CAPE
100 1124 1914 1150 769 485 256 59 3 0 0 0 0 1 4 39 19 9 0 0 1 0 12 18 0 142 146 71 36 13 0 0 0 0 0 0 0 0 1 0 0 0 6
175 1196 1815 1487 951 607 238 60 8 0 0 0 0 0 3 9 9 0 0 0 0 0 3 17 39 48 77 62 15 5 0 0 0 0 0 0 0 0 0 5 1 0 22
677 1213 1336 1649 1408 728 141 64 23 0 0 0 0 0 1 1 0 0 3 2 0 0 0 0 0 3 16 4 3 5 2 0 0 0 0 0 0 0 0 0 2 0 0
1105 1121 1123 1712 1469 779 190 84 44 0 0 0 0 3 11 11 16 0 0 0 0 0 0 0 0 0 0 0 0 0 0 1 0 0 0 0 0 0 0 2 20 25 9
1136 1068 1032 1730 1646 1004 415 132 63 16 0 0 0 2 16 12 21 3 0 0 0 0 0 0 0 0 0 0 0 0 0 2 6 0 0 0 0 0 0 14 50 32 21
1073 1085 1120 1775 1736 1459 992 205 89 32 0 0 0 0 12 26 43 4 0 0 0 0 0 0 0 0 0 0 0 0 0 0 0 0 0 0 0 0 0 7 10 25 23
998 1082 1155 1867 1828 1755 829 365 153 64 6 0 0 0 6 19 63 4 9 0 0 0 0 0 0 0 0 1 1 1 1 2 0 0 0 0 0 0 0 10 26 19 41
790 1049 1166 1665 1774 1669 1106 674 394 111 23 0 0 0 13 45 84 21 5 0 0 0 0 0 0 0 0 5 9 17 21 63 0 0 0 0 0 0 0 0 8 24 16
592 919 1194 1451 1524 1389 1227 913 696 311 134 4 0 30 27 25 147 70 19 1 0 0 0 0 0 0 0 0 0 15 94 116 24 0 0 0 0 0 1 0 4 11 15
657 938 1130 1386 1404 1265 864 763 652 512 286 72 53 79 19 0 15 97 145 78 1 0 0 0 0 0 0 0 0 54 55 37 0 0 0 0 0 33 92 62 68 31 18
788 966 1064 1185 1293 1150 770 587 543 386 195 120 26 6 0 0 0 0 1 7 38 13 19 17 1 5 58 48 25 59 10 0 0 0 0 0 10 55 201 232 183 110 90
785 902 968 1051 1034 971 783 603 439 279 107 50 10 0 0 0 0 0 0 0 18 31 103 19 46 174 70 0 0 0 0 0 3 2 4 10 30 62 164 229 176 133 97
423 551 739 855 854 806 687 637 433 294 146 41 9 0 0 0 0 0 0 0 0 0 0 0 0 0 0 0 0 0 0 0 0 4 2 0 0 0 1 1 0 12 34
71 218 382 538 628 674 561 554 436 344 206 78 35 5 2 0 1 0 0 0 0 0 0 0 1 4 2 2 0 0 1 1 0 0 0 0 0 0 0 0 0 0 0
0 36 192 346 339 398 403 420 442 374 232 162 97 86 46 22 3 0 0 0 0 1 3 33 30 12 13 9 4 1 0 0 0 0 0 0 0 0 0 0 0 0 0
0 0 0 237 302 286 311 443 524 452 319 248 198 145 91 69 70 74 27 28 18 2 12 17 6 7 3 0 0 0 0 0 0 0 0 0 0 0 0 0 0 0 0
0 0 0 103 296 336 341 416 587 557 387 355 260 335 86 150 138 23 105 3 1 3 2 6 5 0 0 0 0 0 0 0 0 0 0 0 0 0 0 0 0 0 0
0 0 0 23 300 371 396 455 554 476 408 351 228 93 209 131 13 9 6 6 0 1 0 0 0 0 0 0 0 0 0 0 0 0 0 0 0 0 0 0 0 0 0
0 0 0 30 266 380 445 512 563 604 456 302 216 159 92 95 38 8 2 0 0 0 0 0 0 0 0 0 0 0 0 0 0 0 0 0 0 0 0 0 0 0 0
0 0 1 93 209 296 401 461 571 381 478 309 219 159 77 80 1 0 0 0 0 0 0 0 0 0 0 0 0 0 0 0 0 0 0 0 0 0 0 0 0 0 0
0 0 0 20 149 227 303 431 533 338 329 379 140 127 6 1 0 0 0 0 0 0 0 0 0 0 0 0 0 0 0 0 0 0 0 0 0 0 0 0 0 0 0
0 0 0 0 0 29 162 311 409 249 183 111 3 10 6 0 0 0 0 0 0 0 0 0 0 0 0 0 0 0 0 0 0 0 0 0 0 0 0 0 0 0 0
0 0 0 0 0 0 84 208 322 323 178 163 18 27 0 0 0 0 0 0 0 0 0 0 0 0 0 0 0 0 0 0 0 0 0 0 0 0 0 0 0 0 0
0 0 0 0 0 0 94 185 322 389 178 185 87 0 0 0 0 0 0 0 0 0 0 0 0 0 0 0 0 0 0 0 0 0 0 0 0 0 0 0 0 0 0
0 0 1 2 50 117 198 250 288 291 223 77 0 0 0 0 0 0 0 0 0 0 0 0 0 0 0 0 0 0 0 0 0 0 0 0 0 0 0 0 0 0 0
0 0 34 82 127 143 116 85 58 8 0 0 0 0 0 0 0 0 0 0 0 0 0 0 0 0 0 0 0 0 0 0 0 0 0 0 0 0 0 0 0 0 0

GFSSE_con_mucape_036.txt.gz
CAPE
99 653 1983 1419 898 567 219 52 6 0 0 0 0 0 6 13 5 0 0 0 0 0 14 2 0 119 110 104 71 13 0 0 0 0 0 0 0 0 0 9 0 0 9
119 944 1976 1644 1210 567 202 74 9 0 0 0 0 5 11 57 9 2 0 0 0 0 7 28 63 54 113 61 35 11 0 0 0 0 0 0 0 0 0 0 7 0 5
240 1132 1433 1612 1183 600 250 84 18 0 0 0 0 0 6 8 1 0 0 3 2 0 0 8 3 15 27 13 7 2 0 0 0 0 0 0 0 0 3 1 0 0 0
781 1253 1133 1727 1468 663 211 91 35 0 0 0 0 0 7 6 2 0 0 0 0 0 0 0 0 0 0 0 0 0 0 0 0 0 0 0 0 0 0 4 12 30 28
1029 1163 1083 1802 1620 1115 305 132 66 19 0 0 0 7 10 10 14 0 0 0 0 0 0 0 0 0 0 0 0 0 0 0 2 0 0 0 0 0 0 0 18 72 28
1089 1137 1227 1833 1702 1398 724 237 116 50 10 0 0 2 16 31 28 9 0 0 0 0 0 0 0 0 0 0 0 0 0 0 0 0 0 0 0 0 0 0 4 6 19
1086 1100 1286 1922 1806 1379 742 383 180 102 34 0 0 0 10 22 73 12 7 0 0 0 0 0 0 0 0 0 4 6 5 9 0 0 0 0 0 0 0 0 7 19 20
1044 1071 1195 1746 1799 1727 1229 693 423 168 67 2 0 0 5 23 64 41 16 0 0 0 0 0 0 0 0 0 6 12 40 72 19 5 0 0 0 2 5 3 1 3 15
893 1075 1164 1535 1606 1604 1192 1011 768 328 145 30 0 0 41 48 79 49 26 1 0 0 0 1 0 0 1 0 0 9 55 55 8 0 0 0 0 27 142 131 83 36 14
713 997 1159 1379 1502 1395 925 937 797 594 396 96 58 95 33 0 72 106 69 46 0 0 0 2 0 0 0 0 0 66 58 22 0 0 0 0 2 122 259 324 346 307 237
667 890 1103 1299 1369 1317 982 800 682 551 322 112 41 40 11 0 0 0 0 17 41 14 17 24 11 14 74 28 4 0 0 0 0 0 0 0 17 174 298 327 334 303 331
649 872 989 1153 1433 1286 1003 751 561 406 194 80 4 0 0 0 0 0 0 0 1 21 23 17 12 12 0 0 0 0 0 0 1 2 0 0 0 6 19 18 12 14 30
502 757 856 1371 1437 1293 1034 769 588 402 225 78 12 0 0 0 0 0 0 0 0 0 0 0 0 0 2 0 0 0 1 0 0 0 0 0 0 0 0 0 0 0 0
147 514 823 987 1194 1073 974 791 659 474 305 126 30 1 0 0 0 0 0 0 0 0 0 2 1 5 10 6 2 2 0 0 0 0 0 0 0 0 0 0 0 0 0
0 16 213 598 864 825 935 799 642 505 383 217 84 26 14 4 5 0 0 0 0 3 2 6 8 3 5 2 1 0 0 0 0 0 0 0 0 0 0 0 0 0 0
0 0 0 154 521 662 703 699 536 486 439 299 175 107 127 88 15 18 16 9 45 7 5 5 4 2 0 0 0 0 0 0 0 0 0 0 0 0 0 0 0 0 0
0 0 0 3 177 431 483 495 481 589 495 474 338 209 117 31 73 27 4 26 1 0 2 3 0 0 0 0 0 0 0 0 0 0 0 0 0 0 0 0 0 0 0
0 0 0 0 56 267 338 349 451 721 648 525 416 236 103 47 60 53 7 8 3 0 0 0 0 0 0 0 0 0 0 0 0 0 0 0 0 0 0 0 0 0 0
0 0 0 0 0 144 340 372 467 680 730 570 345 142 117 73 41 8 0 0 0 0 0 0 0 0 0 0 0 0 0 0 0 0 0 0 0 0 0 0 0 0 0
0 0 0 0 1 109 332 401 491 692 569 492 289 234 209 99 47 28 0 0 0 0 0 0 0 0 0 0 0 0 0 0 0 0 0 0 0 0 0 0 0 0 0
0 0 0 0 6 187 366 423 534 714 489 357 320 335 158 80 0 0 0 0 0 0 0 0 0 0 0 0 0 0 0 0 0 0 0 0 0 0 0 0 0 0 0
0 0 0 0 24 142 328 415 537 600 578 359 342 192 6 13 8 0 0 0 0 0 0 0 0 0 0 0 0 0 0 0 0 0 0 0 0 0 0 0 0 0 0
0 0 0 0 0 81 222 353 495 564 414 222 171 190 9 5 0 0 0 0 0 0 0 0 0 0 0 0 0 0 0 0 0 0 0 0 0 0 0 0 0 0 0
0 0 0 0 0 0 90 256 425 529 261 70 79 216 29 3 0 0 0 0 0 0 0 0 0 0 0 0 0 0 0 0 0 0 0 0 0 0 0 0 0 0 0
0 0 0 0 0 0 1 158 288 388 310 69 107 138 31 0 0 0 0 0 0 0 0 0 0 0 0 0 0 0 0 0 0 0 0 0 0 0 0 0 0 0 0
0 0 0 0 0 0 0 95 148 255 264 202 167 91 0 0 0 0 0 0 0 0 0 0 0 0 0 0 0 0 0 0 0 0 0 0 0 0 0 0 0 0 0

GFSSE_con_mucape_039.txt.gz
CAPE
116 395 2004 1622 866 582 304 83 35 27 8 1 23 60 51 51 5 0 0 0 0 0 12 0 0 0 109 84 62 23 1 0 0 0 0 0 0 0 0 4 0 0 0
161 594 2143 1686 1155 573 217 86 29 16 0 0 10 22 39 63 24 4 0 0 0 0 17 55 87 106 86 88 25 21 4 0 0 0 0 0 0 0 0 0 0 0 0
323 978 1345 1724 1377 695 253 108 27 0 0 0 0 3 6 24 4 0 0 3 3 0 1 5 12 40 21 19 19 16 0 0 0 0 0 0 0 0 0 0 0 0 0
773 1258 1098 1694 1389 654 271 103 31 1 0 0 0 0 0 0 0 0 0 0 0 0 0 0 0 3 4 6 1 0 0 0 0 0 0 0 0 0 0 0 0 7 11
1164 1322 1189 1613 1438 891 412 148 61 13 0 0 0 2 8 2 0 0 0 0 0 0 0 0 0 0 0 0 0 0 0 0 0 0 0 0 0 0 0 0 0 12 110
1281 1367 1571 1747 1649 1082 747 244 102 46 6 0 0 7 21 18 18 4 0 0 0 0 0 0 0 0 0 0 0 0 0 0 0 0 0 0 0 0 0 0 0 0 0
993 1315 1444 1999 1817 1233 619 392 170 113 46 0 0 0 15 20 37 11 7 0 0 0 0 0 0 0 0 0 9 12 12 12 5 1 0 0 0 1 14 3 0 10 17
1104 1267 1414 1750 1773 1474 976 694 438 175 88 8 0 0 4 23 69 28 22 1 0 0 0 0 1 4 3 0 2 4 17 30 0 0 0 0 0 9 82 56 67 1 1
1178 1272 1399 1444 1481 1501 1233 956 770 404 189 71 0 0 3 53 55 149 43 4 0 0 0 1 1 0 0 0 0 0 34 7 0 0 0 0 0 21 141 189 250 246 175
1177 1276 1353 1603 1431 1414 1140 951 834 634 365 137 42 58 21 0 64 145 52 28 1 0 0 4 3 0 0 1 9 18 15 0 0 0 0 0 0 118 252 254 266 321 365
799 1209 1301 1521 1626 1537 1194 955 769 555 362 112 48 54 17 0 0 2 0 4 24 0 10 26 18 33 54 3 0 0 0 0 0 0 0 0 2 19 73 57 20 34 63
866 969 1216 1300 1392 1473 1176 1084 911 615 478 140 24 51 19 0 0 0 0 0 0 0 0 0 0 0 0 0 0 0 0 0 0 0 0 0 0 0 0 0 0 0 0
611 897 1116 1118 1675 1440 1179 1000 806 618 359 145 47 0 0 0 0 0 0 0 0 0 0 0 0 0 0 0 0 0 0 0 0 0 0 0 0 0 0 0 0 0 0
300 718 996 1086 1470 1711 1696 1053 795 569 349 148 68 8 0 0 0 0 0 0 0 0 0 0 0 1 1 2 2 1 0 0 0 0 0 0 0 0 0 0 0 0 0
34 69 703 1063 954 1537 1573 1336 844 695 412 236 81 32 7 1 1 0 0 0 0 4 1 3 2 1 1 0 0 0 0 0 0 0 0 0 0 0 0 0 0 0 0
0 0 0 629 1043 982 1439 1198 840 754 542 350 138 84 111 53 16 3 0 4 6 10 3 0 1 0 0 0 0 0 0 0 0 0 0 0 0 0 0 0 0 0 0
0 0 0 3 688 942 993 970 842 687 477 434 248 152 113 59 4 5 8 7 5 0 0 0 0 0 0 0 0 0 0 0 0 0 0 0 0 0 0 0 0 0 0
0 0 0 0 268 646 845 804 625 543 502 497 357 264 180 67 19 24 5 1 1 0 0 0 0 0 0 0 0 0 0 0 0 0 0 0 0 0 0 0 0 0 0
0 0 0 0 106 294 526 550 481 536 666 625 472 380 267 49 60 18 7 2 0 0 0 0 0 0 0 0 0 0 0 0 0 0 0 0 0 0 0 0 0 0 0
0 0 0 0 33 127 200 466 396 487 783 720 618 497 166 168 74 47 7 2 0 0 0 0 0 0 0 0 0 0 0 0 0 0 0 0 0 0 0 0 0 0 0
0 0 0 0 9 55 188 417 417 469 622 730 517 325 297 272 63 4 0 0 0 0 0 0 0 0 0 0 0 0 0 0 0 0 0 0 0 0 0 0 0 0 0
0 0 0 0 12 44 152 361 444 471 458 457 331 339 279 152 4 6 0 0 0 0 0 0 0 0 0 0 0 0 0 0 0 0 0 0 0 0 0 0 0 0 0
0 0 0 0 5 53 169 346 458 499 359 321 274 295 273 20 1 2 0 0 0 0 0 0 0 0 0 0 0 0 0 0 0 0 0 0 0 0 0 0 0 0 0
0 0 0 0 0 44 200 379 492 584 333 259 266 331 94 17 1 2 0 0 0 0 0 0 0 0 0 0 0 0 0 0 0 0 0 0 0 0 0 0 0 0 0
0 0 0 0 0 13 152 307 449 545 342 226 206 216 47 9 1 0 0 0 0 0 0 0 0 0 0 0 0 0 0 0 0 0 0 0 0 0 0 0 0 0 0
0 0 0 0 0 0 29 202 352 459 448 202 126 181 14 42 3 0 0 0 0 0 0 0 0 0 0 0 0 0 0 0 0 0 0 0 0 0 0 0 0 0 0

GFSSE_con_mucape_042.txt.gz
CAPE
251 1009 1950 1855 1067 780 336 103 7 23 51 89 47 35 32 9 0 0 0 0 0 0 9 0 0 0 91 85 50 25 1 0 0 0 0 0 0 0 0 0 0 0 0
511 940 2192 1789 1188 627 333 118 69 50 3 10 23 47 60 39 2 5 0 0 0 0 30 40 91 107 68 67 27 26 10 0 0 0 0 0 0 0 0 2 0 0 0
673 904 1387 1526 1316 830 292 88 58 17 0 0 15 8 63 38 3 0 0 1 0 0 4 0 18 17 24 28 28 26 9 0 0 0 0 0 0 0 0 1 0 0 0
752 1170 1080 1646 1389 665 328 93 32 1 0 0 0 5 1 0 0 0 0 0 0 0 0 0 4 4 4 4 3 2 0 0 0 0 0 0 0 0 0 0 4 3 14
954 1089 1209 1578 1282 807 321 99 38 1 0 0 0 0 0 0 0 0 0 0 0 0 0 0 1 2 4 0 0 0 0 0 0 0 0 0 0 0 0 0 2 6 71
969 971 1459 1610 1434 1057 696 150 72 25 0 0 0 4 0 0 0 0 0 0 0 0 0 0 0 0 0 0 0 0 0 0 0 14 12 4 0 0 1 0 0 0 1
1056 895 1346 1767 1552 1192 589 308 124 78 19 0 0 2 7 11 7 9 1 0 0 0 0 0 0 0 0 0 13 15 26 9 10 21 13 9 7 0 14 21 8 0 11
1191 1016 1126 1560 1600 1350 949 582 298 147 71 4 0 0 3 9 54 11 12 1 0 0 0 0 0 0 0 0 0 0 2 0 2 7 5 7 0 0 63 91 102 135 82
1234 1124 1037 1203 1298 1183 1131 964 738 334 175 42 0 6 14 22 25 38 31 4 0 0 0 0 2 0 0 0 0 0 0 0 2 15 1 9 0 38 177 238 247 318 342
1284 1106 1056 1106 1071 1118 1052 968 866 672 427 174 43 61 24 1 112 192 69 30 0 0 0 5 4 0 1 1 0 0 0 0 25 13 14 6 6 58 137 130 86 88 144
1233 1152 1034 1275 1133 1125 1139 971 773 574 322 108 33 51 18 4 62 57 8 16 24 0 0 8 8 16 4 0 0 0 0 19 16 17 17 0 0 0 0 0 0 0 4
1153 1351 1221 1310 1361 1193 1098 1264 992 686 420 168 6 18 16 0 0 0 0 0 0 0 0 0 0 0 0 15 23 0 2 0 0 0 0 0 0 0 0 0 0 0 0
986 1271 1341 1391 1530 1494 1383 1272 1206 960 578 366 60 13 4 0 0 0 0 0 0 0 5 0 6 10 1 0 0 0 0 0 0 0 0 0 0 0 0 0 0 0 0
691 1055 1307 1412 1519 1655 1369 1374 1242 1065 718 525 186 15 11 7 3 0 1 0 0 0 8 16 0 0 2 0 0 0 0 0 0 0 0 0 0 0 0 0 0 0 0
408 714 1119 1439 1499 1421 1417 1871 1283 1146 833 651 295 72 61 65 53 12 0 4 7 4 1 0 0 1 1 0 0 0 0 0 0 0 0 0 0 0 0 0 0 0 0
173 187 453 1240 1485 1485 1367 1284 1425 1206 909 827 394 138 106 85 36 8 0 2 7 3 2 2 0 0 0 0 0 0 0 0 0 0 0 0 0 0 0 0 0 0 0
0 0 0 152 1002 1435 1463 1298 1583 1159 994 949 536 265 86 101 36 2 4 8 1 1 0 0 0 0 0 0 0 0 0 0 0 0 0 0 0 0 0 0 0 0 0
0 0 0 0 12 881 1344 1635 1487 1254 1127 1104 663 337 219 78 59 7 15 1 1 0 0 0 0 0 0 0 0 0 0 0 0 0 0 0 0 0 0 0 0 0 0
0 0 0 0 0 248 1026 1351 1404 1238 1192 1186 816 398 199 155 61 23 19 3 3 0 0 0 0 0 0 0 0 0 0 0 0 0 0 0 0 0 0 0 0 0 0
0 0 0 0 4 275 730 1187 1333 1237 1285 918 421 332 265 212 85 95 33 0 0 0 0 0 0 0 0 0 0 0 0 0 0 0 0 0 0 0 0 0 0 0 0
0 0 0 0 83 418 668 935 1181 596 560 709 711 542 435 353 142 116 41 2 0 0 0 0 0 0 0 0 0 0 0 0 0 0 0 0 0 0 0 0 0 0 0
0 0 0 2 262 525 566 416 388 378 544 745 647 458 483 241 220 163 0 1 0 0 0 0 0 0 0 0 0 0 0 0 0 0 0 0 0 0 0 0 0 0 0
0 0 0 9 345 451 297 233 54 378 606 588 542 305 345 204 200 34 0 0 0 0 0 0 0 0 0 0 0 0 0 0 0 0 0 0 0 0 0 0 0 0 0
0 0 0 6 183 218 14 18 106 374 698 591 450 244 244 194 50 7 0 0 0 0 0 0 0 0 0 0 0 0 0 0 0 0 0 0 0 0 0 0 0 0 0
0 0 0 0 4 0 0 33 229 513 714 701 394 226 243 245 64 19 0 0 0 0 0 0 0 0 0 0 0 0 0 0 0 0 0 0 0 0 0 0 0 0 0
0 0 0 0 0 0 0 123 357 535 684 731 377 275 249 261 74 4 0 0 0 0 0 0 0 0 0 0 0 0 0 0 0 0 0 0 0 0 0 0 0 0 0

GFSSE_con_mucape_045.txt.gz
CAPE
408 1099 2127 1674 1223 855 432 246 177 176 81 27 4 12 1 0 0 0 0 0 0 3 0 1 0 0 76 63 34 28 0 0 0 0 0 0 0 0 0 0 0 0 0
713 958 2235 2018 1507 660 342 132 50 54 42 68 31 34 25 3 0 0 0 0 0 0 31 44 84 0 68 68 36 37 4 0 0 0 0 0 0 0 0 6 0 0 0
947 985 1312 1678 1425 904 364 216 111 5 0 1 6 26 69 23 0 0 0 0 0 0 0 12 36 97 73 42 22 25 6 0 0 0 0 0 0 0 0 0 0 0 0
708 1014 1085 1460 1294 763 316 208 74 1 0 2 6 33 28 0 0 0 0 0 0 0 0 2 8 14 11 7 2 0 0 0 0 0 1 0 0 0 0 0 0 3 18
783 1000 1162 1523 1261 755 293 95 37 1 0 0 1 0 0 0 0 0 0 0 0 0 0 0 2 1 4 1 0 0 0 0 0 0 0 0 0 0 0 0 0 5 5
776 1070 1245 1478 1311 925 476 96 31 0 0 0 0 2 0 0 0 0 0 0 0 0 0 0 0 0 0 0 0 0 0 0 0 18 8 7 4 0 2 1 0 0 0
783 1449 1245 1607 1355 1034 492 158 75 8 0 0 1 11 8 9 0 1 0 0 0 0 0 0 0 0 0 0 0 6 8 0 0 14 13 15 15 0 14 62 24 61 32
800 1071 1233 1414 1371 1169 804 451 221 84 8 0 0 0 17 16 21 1 0 0 0 0 0 0 0 0 0 0 0 0 0 0 0 10 12 16 0 0 71 75 129 246 287
853 832 1170 1214 1077 1122 1046 818 637 271 121 37 16 12 21 20 28 57 15 0 0 0 0 0 0 0 0 0 0 0 0 0 0 16 13 28 21 70 124 120 102 80 144
994 798 995 1134 1077 898 885 901 820 639 394 116 58 111 10 26 106 194 82 29 0 0 0 2 0 0 0 0 0 0 0 0 2 11 19 2 0 0 14 2 0 6 19
1006 873 877 1008 1147 953 960 841 762 603 397 156 38 62 7 20 100 36 14 64 17 0 0 5 0 0 0 0 0 0 0 8 14 14 8 0 0 0 0 0 0 0 0
1097 1022 907 1070 1110 1128 1155 1040 811 606 321 89 0 12 11 2 27 49 1 3 5 4 0 0 0 0 0 20 6 0 2 0 0 0 0 0 0 0 0 0 0 1 2
1006 1232 1096 1204 1143 996 1049 1357 1066 927 574 366 17 0 0 0 0 0 0 0 0 0 5 0 3 0 0 0 0 0 0 0 0 0 0 0 0 0 0 0 0 0 0
707 1045 1226 1211 1329 1255 1421 998 1136 1204 734 879 193 0 5 0 0 0 1 9 7 7 26 23 1 0 0 0 0 0 0 0 0 0 0 0 0 0 0 0 0 0 0
362 715 1058 1196 1357 1540 1443 1306 1118 1229 889 641 427 17 11 21 28 22 6 3 13 9 1 0 0 0 0 0 0 0 0 0 0 0 0 0 0 0 0 0 0 0 0
253 398 703 1106 1280 1468 1606 1991 1319 1089 1138 738 588 149 81 107 120 60 57 6 0 1 2 0 0 0 0 0 0 0 0 0 0 0 0 0 0 0 0 0 0 0 0
1 177 212 628 1018 1311 1446 1686 1844 1233 995 923 911 253 184 192 151 70 0 0 0 0 0 0 0 0 0 0 0 0 0 0 0 0 0 0 0 0 0 0 0 0 0
0 0 0 0 393 994 1249 1585 1568 1426 1138 1211 984 500 295 223 163 2 0 0 0 0 0 0 0 0 0 0 0 0 0 0 0 0 0 0 0 0 0 0 0 0 0
0 0 0 0 0 122 909 1288 1504 1451 1111 1133 1057 673 419 265 50 15 10 6 0 0 0 0 0 0 0 0 0 0 0 0 0 0 0 0 0 0 0 0 0 0 0
0 0 0 0 0 0 336 1181 1397 1392 1233 1272 1032 985 615 104 58 36 33 24 0 0 0 0 0 0 0 0 0 0 0 0 0 0 0 0 0 0 0 0 0 0 0
0 0 0 0 0 13 402 986 1308 1480 1176 1123 993 861 341 156 130 120 105 44 31 0 0 0 0 0 0 0 0 0 0 0 0 0 0 0 0 0 0 0 0 0 0
0 0 0 0 0 116 557 952 1141 1178 1019 1121 810 511 390 315 280 236 166 28 7 0 0 0 0 0 0 0 0 0 0 0 0 0 0 0 0 0 0 0 0 0 0
0 0 0 0 10 245 541 892 927 819 818 787 675 483 521 399 302 196 190 36 15 0 0 0 0 0 0 0 0 0 0 0 0 0 0 0 0 0 0 0 0 0 0
0 0 0 0 27 339 699 661 435 385 367 144 344 564 553 331 197 164 129 8 0 0 0 0 0 0 0 0 0 0 0 0 0 0 0 0 0 0 0 0 0 0 0
0 0 0 0 17 376 466 494 170 48 1 133 364 452 446 274 226 217 35 5 10 0 0 0 0 0 0 0 0 0 0 0 0 0 0 0 0 0 0 0 0 0 0
0 0 13 0 47 275 372 5 0 18 0 69 364 438 389 261 164 132 36 1 0 0 0 0 0 0 0 0 0 0 0 0 0 0 0 0 0 0 0 0 0 0 0

GFSSE_con_mucape_048.txt.gz
CAPE
840 1461 1986 1533 1068 884 600 588 428 222 113 115 51 10 4 2 0 0 0 0 0 2 19 19 0 0 74 76 20 30 10 0 0 0 0 0 0 0 0 0 0 1 0
863 1337 1990 1928 1403 647 432 377 346 434 206 84 59 13 7 2 0 0 0 0 0 18 27 51 5 0 66 62 40 24 6 0 0 0 0 0 0 0 0 0 0 0 0
943 1327 1579 1828 1311 951 350 236 189 69 42 79 69 71 28 1 0 0 0 0 0 0 9 45 55 82 57 43 35 20 0 0 0 0 0 0 0 0 0 0 0 0 0
930 1022 1187 1560 1270 805 416 297 94 4 1 9 9 61 31 0 0 0 0 0 0 0 0 18 6 13 10 5 3 0 0 0 0 0 0 0 0 0 0 0 0 0 4
954 924 1027 1387 1224 764 410 209 41 0 0 3 4 31 0 0 0 0 0 0 0 0 0 0 2 1 2 2 0 0 0 0 0 0 0 0 0 0 0 0 0 0 0
865 976 1134 1328 1176 858 491 80 15 0 0 0 0 0 0 0 0 0 0 0 0 0 0 0 0 0 0 0 0 0 0 0 3 3 10 3 0 0 0 8 4 0 0
1087 1051 1009 1451 1236 766 270 97 39 0 0 0 2 0 1 1 0 0 0 0 0 0 0 0 0 0 0 0 0 0 0 0 0 0 5 7 3 5 37 48 44 127 140
1338 1154 898 1119 1055 864 528 277 153 54 10 16 30 11 19 25 26 10 0 0 0 0 0 0 0 0 0 0 0 0 0 0 0 9 12 11 39 51 122 78 126 96 132
1244 1169 832 870 851 794 694 592 477 220 79 68 89 85 91 42 72 55 6 0 0 0 0 0 0 0 0 0 0 0 0 0 0 12 7 8 21 12 25 18 3 28 62
697 1008 921 878 754 656 633 660 634 472 245 123 92 119 14 7 55 193 83 29 0 0 0 0 0 0 0 0 0 0 0 0 5 8 7 5 2 0 0 0 0 0 1
747 804 930 1040 775 606 601 587 645 521 258 83 44 31 0 0 71 59 19 37 45 9 3 9 4 4 11 4 4 0 0 5 5 3 0 0 0 0 0 0 0 5 19
864 676 822 1043 880 770 774 599 529 411 184 31 0 0 0 1 86 24 10 35 49 26 13 6 0 0 0 3 4 0 0 0 0 0 0 0 0 0 0 0 2 0 0
887 802 671 900 1015 844 1041 858 631 478 240 48 1 0 0 0 3 24 0 0 0 0 0 1 1 0 0 0 0 0 0 0 0 0 0 0 0 0 0 4 0 0 0
867 987 819 933 974 1087 1192 1048 922 755 632 271 57 0 0 0 0 0 0 0 0 0 4 2 0 1 0 0 0 0 0 0 0 0 0 0 0 0 2 0 0 0 0
574 909 1055 990 1098 1008 1070 1214 1035 929 772 688 261 9 0 0 0 0 0 0 1 2 1 2 0 0 0 0 0 0 0 0 0 0 0 0 0 0 0 0 0 0 0
87 744 1049 1026 1140 1217 1286 1171 1027 1041 860 898 410 210 0 0 0 5 2 5 2 0 0 0 0 0 0 0 0 0 0 0 0 0 0 0 0 0 0 0 0 0 0
43 128 648 989 1007 1366 1320 1327 1214 1231 744 732 548 500 0 40 78 54 49 31 1 0 0 0 0 0 0 0 0 0 0 0 0 0 0 0 0 0 0 0 0 0 0
0 0 98 661 993 1192 1414 1421 1241 1170 949 764 632 679 142 264 175 66 57 0 0 0 0 0 0 0 0 0 0 0 0 0 0 0 0 0 0 0 0 0 0 0 0
0 0 0 36 524 906 1260 1398 1238 1173 1231 841 707 887 362 303 207 68 0 0 0 0 0 0 0 0 0 0 0 0 0 0 0 0 0 0 0 0 0 0 0 0 0
0 0 0 0 0 103 918 1420 1399 1174 1179 931 907 750 505 375 328 129 0 0 0 0 0 0 0 0 0 0 0 0 0 0 0 0 0 0 0 0 0 0 0 0 0
0 0 0 0 0 0 6 920 1402 1233 1283 1220 1011 814 671 468 399 126 51 0 19 0 0 0 0 0 0 0 0 0 0 0 0 0 0 0 0 0 0 0 0 0 0
0 0 0 0 0 0 0 150 1049 1145 1177 1245 1143 967 808 730 377 224 139 91 106 1 0 0 0 0 0 0 0 0 0 0 0 0 0 0 0 0 0 0 0 0 0
0 0 0 0 0 0 0 328 799 1092 985 1207 1191 1028 831 724 455 319 242 204 152 1 0 0 0 0 0 0 0 0 0 0 0 0 0 0 0 0 0 0 0 0 0
0 0 0 0 0 0 19 435 753 958 924 1094 1025 1018 713 611 476 388 252 248 229 57 0 0 0 0 0 0 0 0 0 0 0 0 0 0 0 0 0 0 0 0 0
0 0 0 0 0 0 50 460 707 864 882 905 786 836 681 611 390 439 242 222 128 29 28 0 0 0 0 0 0 0 0 0 0 0 0 0 0 0 0 0 0 0 0
0 0 0 0 0 3 213 631 740 839 771 771 700 573 536 401 358 364 238 184 114 43 1 0 0 0 0 0 0 0 0 0 0 0 0 0 0 0 0 0 0 0 0

GFSSE_con_mucape_051.txt.gz
CAPE
943 1451 2002 1621 1329 1181 1094 822 576 630 262 191 25 3 1 0 0 0 0 1 2 14 12 2 0 37 62 35 23 8 5 0 0 0 0 0 0 0 0 0 0 0 0
1036 1337 1828 1718 1535 1213 904 678 831 678 527 119 33 6 8 1 0 0 0 2 16 17 26 16 0 4 71 55 44 0 0 0 0 0 0 0 0 0 0 0 0 0 0
1123 1328 1526 1674 1322 1078 818 567 538 366 311 253 137 30 12 0 1 0 0 0 8 15 32 12 18 69 76 59 43 4 0 0 0 0 0 0 0 0 0 0 0 0 0
1163 1312 1251 1387 1196 841 491 395 220 169 180 169 196 61 15 0 0 0 0 0 2 9 32 23 10 18 16 15 3 0 0 0 0 0 0 0 0 0 0 0 0 0 7
1068 1237 1066 1304 1165 817 479 288 100 65 73 45 118 31 0 0 0 0 0 0 0 0 6 2 0 4 3 0 0 0 0 0 0 4 0 0 0 0 4 0 0 0 0
952 1044 1192 1309 1208 980 651 134 40 4 16 2 40 0 0 0 0 0 0 0 0 0 0 0 0 0 0 0 0 0 0 0 6 2 2 13 0 12 9 17 4 1 0
950 834 981 1292 1156 776 368 114 38 0 0 0 0 0 0 0 1 0 0 0 0 0 0 0 0 0 0 0 0 0 0 0 0 3 10 5 15 29 40 23 94 97 133
1050 854 908 1000 915 707 411 301 173 36 13 2 14 5 5 3 2 0 0 0 0 0 0 0 0 0 0 0 0 0 0 0 1 8 14 15 55 63 65 51 22 30 64
1053 977 867 715 585 549 434 359 212 121 96 111 103 122 130 137 62 14 0 0 0 0 0 0 0 0 0 0 0 0 0 0 3 9 7 2 40 25 8 0 1 3 1
1164 1065 796 589 487 416 331 430 301 147 160 216 185 129 18 1 106 91 45 0 0 0 0 0 0 0 0 0 0 0 0 0 3 7 2 7 14 7 0 0 0 27 47
1189 888 636 610 552 475 380 381 423 306 145 97 45 11 0 0 85 35 0 15 29 9 6 7 7 5 13 0 0 0 0 0 0 1 0 0 0 0 0 0 12 5 6
1061 899 832 618 503 537 495 431 347 208 45 14 18 7 0 0 79 29 0 15 76 50 46 31 7 0 0 0 0 0 0 0 0 0 0 0 0 0 0 9 1 0 0
747 1010 947 843 738 551 611 419 402 279 84 0 0 6 0 30 106 17 1 3 0 0 0 9 0 0 0 0 0 0 0 0 0 0 0 0 0 0 18 4 0 0 0
795 692 1123 1044 904 819 766 616 408 332 210 44 0 0 5 6 121 69 0 0 0 0 0 0 0 0 0 0 0 0 0 0 0 0 0 0 0 0 5 0 0 0 0
793 824 619 1124 984 974 953 881 687 754 388 254 70 0 0 3 68 0 0 0 0 0 0 0 0 0 0 0 0 0 0 0 0 0 0 0 0 0 0 0 0 0 0
561 908 845 807 1090 1080 1058 995 858 753 628 419 319 87 1 0 0 0 0 0 0 0 0 1 0 0 0 0 0 0 0 0 0 0 0 0 0 0 0 0 0 0 0
70 687 1007 893 938 1114 1154 1100 975 954 737 550 400 271 199 0 0 0 0 0 0 0 0 0 0 0 0 0 0 0 0 0 0 0 0 0 0 0 0 0 0 0 0
0 0 969 1104 1042 1153 1205 1264 1043 1070 995 733 454 333 268 19 52 54 63 4 7 0 0 0 0 0 0 0 0 0 0 0 0 0 0 0 0 0 0 0 0 0 0
0 0 195 1045 1073 1215 1357 1434 1292 1298 1136 833 628 421 462 109 134 175 142 84 34 0 0 0 0 0 0 0 0 0 0 0 0 0 0 0 0 0 0 0 0 0 0
0 0 0 117 988 1168 1434 1495 1413 1104 1252 974 754 456 410 268 275 270 213 92 0 0 0 0 0 0 0 0 0 0 0 0 0 0 0 0 0 0 0 0 0 0 0
0 0 0 0 346 990 1272 1509 1580 1151 957 1321 902 574 552 391 351 344 198 103 40 9 2 0 0 0 0 0 0 0 0 0 0 0 0 0 0 0 0 0 0 0 0
0 0 0 0 0 736 1085 1350 1364 1440 979 1233 1010 730 732 571 424 393 286 184 152 60 63 0 0 0 0 0 0 0 0 0 0 0 0 0 0 0 0 0 0 0 0
0 0 0 0 0 0 38 1027 1220 1270 1105 1102 1026 793 769 683 628 473 369 222 202 139 126 40 0 0 0 0 0 0 0 0 0 0 0 0 0 0 0 0 0 0 0
0 0 0 0 0 0 2 38 923 1135 1164 1040 1092 900 890 822 780 531 443 268 250 236 206 131 23 0 0 0 0 0 0 0 0 0 0 0 0 0 0 0 0 0 0
0 0 0 0 0 0 0 4 183 747 954 932 1073 977 940 840 802 640 494 274 339 291 174 126 66 37 0 0 0 0 0 0 0 0 0 0 0 0 0 0 0 0 0
0 0 0 0 0 0 0 13 52 515 843 820 905 750 788 577 394 447 362 273 297 213 130 109 79 2 0 0 0 0 0 0 0 0 0 0 0 0 0 0 0 0 0

GFSSE_con_mucape_054.txt.gz
CAPE
780 1278 2092 1765 1470 1439 1263 1152 1107 1008 727 410 128 29 0 0 0 0 0 0 9 3 0 0 68 73 40 20 12 0 0 0 0 0 0 0 0 0 0 0 0 0 0
969 1271 1902 1898 1793 1530 1334 1022 1007 833 442 194 63 8 2 0 0 0 2 22 17 3 7 3 8 75 57 41 3 0 0 0 0 0 0 0 0 0 0 0 0 0 0
1095 1233 1358 1771 1730 1643 1274 758 858 563 338 213 45 10 8 4 0 0 0 7 7 9 8 3 6 78 84 58 7 0 0 0 0 0 0 0 0 0 0 0 0 0 0
1037 1169 1128 1487 1460 1236 888 621 566 543 449 300 155 41 5 5 0 0 0 4 12 19 18 16 42 84 64 21 2 0 0 0 0 0 0 0 0 0 0 0 0 0 3
1110 1147 1041 1328 1328 999 840 653 558 488 425 476 219 16 0 1 0 0 0 0 11 42 33 13 12 17 4 0 0 0 0 0 1 0 0 0 0 1 5 1 0 0 0
1096 1027 1124 1294 1216 1038 828 515 331 273 151 145 181 5 0 0 0 0 0 0 3 6 4 0 0 0 0 0 0 0 0 0 0 0 1 0 0 14 6 2 3 36 37
1112 907 1025 1341 1152 766 497 245 154 138 84 181 59 2 0 0 0 0 0 0 0 1 2 0 1 0 0 0 0 0 0 0 0 1 8 6 12 64 53 103 65 59 107
989 893 945 1109 1065 853 482 208 177 182 73 66 17 0 0 2 1 0 0 0 0 0 0 0 0 0 0 0 0 0 0 0 0 12 16 26 59 48 44 21 37 47 41
830 734 820 763 644 554 400 340 197 163 92 91 122 103 86 77 9 0 0 0 0 1 0 0 0 0 0 0 0 0 0 0 0 7 2 20 61 32 3 1 3 6 85
861 768 700 575 429 307 233 328 200 162 190 151 239 210 133 87 88 28 0 0 0 0 0 0 0 0 0 0 0 0 0 0 0 0 1 4 20 1 0 0 32 30 28
1090 1001 861 687 367 263 212 193 224 203 210 212 124 53 29 52 70 41 0 0 11 0 2 1 0 4 1 0 0 0 0 0 0 0 0 0 0 0 0 15 10 5 10
1178 1071 883 595 362 293 280 256 149 75 58 45 30 19 3 0 92 46 0 0 66 63 65 33 28 23 0 0 0 0 0 0 0 0 0 0 0 0 21 4 0 2 2
1202 1102 769 572 369 336 338 313 228 100 25 0 8 7 0 1 130 79 4 0 4 5 0 33 3 0 0 0 0 0 0 0 0 0 0 0 0 1 11 4 0 0 0
1213 1048 820 708 579 410 393 333 291 195 60 0 0 0 0 15 135 171 23 5 0 0 0 0 0 0 0 0 0 0 0 0 0 0 0 0 0 15 4 2 0 0 0
849 1024 952 871 822 783 655 373 323 273 199 65 0 0 0 18 64 131 66 4 0 0 0 0 0 0 0 0 0 0 0 0 0 0 0 0 0 0 0 0 0 0 0
704 809 1012 1011 950 947 819 739 495 417 308 210 27 0 0 4 41 152 64 0 0 0 0 0 0 0 0 0 0 0 0 0 0 0 0 0 0 0 0 0 0 0 0
173 748 922 1075 1125 1087 986 935 775 665 524 401 296 30 0 0 93 178 13 0 0 0 0 0 0 0 0 0 0 0 0 0 0 0 0 0 0 0 0 0 0 0 0
0 8 671 868 1065 1174 1137 1046 949 837 700 560 414 382 132 54 16 12 0 7 3 3 0 0 0 0 0 0 0 0 0 0 0 0 0 0 0 0 0 0 0 0 0
0 0 0 646 880 1045 1119 1133 998 969 893 734 663 606 316 243 121 9 11 34 22 12 11 0 0 0 0 0 0 0 0 0 0 0 0 0 0 0 0 0 0 0 0
0 0 0 206 763 929 1046 1115 1124 1041 1045 971 822 784 427 306 212 50 66 72 69 41 38 0 0 0 0 0 0 0 0 0 0 0 0 0 0 0 0 0 0 0 0
0 0 0 0 378 860 925 894 1041 1047 1167 1167 993 843 706 416 272 89 122 153 157 99 9 4 2 0 0 0 0 0 0 0 0 0 0 0 0 0 0 0 0 0 0
0 0 0 0 0 460 909 968 958 1040 1296 1252 1084 898 798 550 405 244 192 266 286 118 54 27 22 8 2 0 0 0 0 0 0 0 0 0 0 0 0 0 0 0 0
0 0 0 0 0 0 734 1028 1017 928 841 1031 995 825 843 664 525 386 307 359 380 172 109 97 68 39 45 8 0 0 0 0 0 0 0 0 0 0 0 0 0 0 0
0 0 0 0 0 0 234 1073 975 701 779 721 779 955 894 710 620 498 407 395 357 213 126 166 156 101 96 24 0 0 0 0 0 0 0 0 0 0 0 0 0 0 0
0 0 0 0 0 0 0 239 849 757 601 777 869 871 918 782 652 547 456 490 411 314 194 207 241 147 88 62 14 0 0 0 0 0 0 0 0 0 0 0 0 0 0
0 0 0 0 0 0 0 0 217 617 581 658 731 659 758 693 629 411 398 404 403 337 242 219 316 134 87 70 2 5 2 0 0 0 0 0 0 0 0 0 0 0 0

GFSSE_con_mucape_057.txt.gz
CAPE
369 1137 2176 2031 1631 1453 1370 1390 1531 1322 822 432 183 64 7 0 0 0 0 0 0 0 2 70 49 18 19 14 0 0 0 0 0 0 0 0 0 0 1 0 0 0 0
611 1214 2091 2030 1804 1699 1674 1657 1512 1370 895 374 162 41 1 0 0 0 2 5 3 1 9 20 83 73 60 41 0 0 0 0 0 0 0 0 0 0 0 0 0 0 0
853 1239 1584 1999 1947 1835 1573 1202 1271 900 584 284 104 44 5 0 0 0 9 11 0 2 27 4 78 96 89 63 13 0 0 0 0 0 0 0 0 0 0 0 0 0 0
948 1170 1273 1862 1955 1479 946 757 677 584 325 179 82 12 4 4 0 0 4 6 4 11 10 13 52 117 73 31 4 0 0 0 0 0 0 0 0 1 0 0 0 0 0
943 1006 1173 1698 1606 1343 961 800 579 522 460 302 144 28 11 5 1 0 1 6 32 43 70 59 77 49 24 7 0 0 0 1 0 0 0 0 0 4 6 0 0 0 0
962 985 1190 1451 1454 1245 1101 991 743 695 686 510 175 44 7 2 0 0 0 9 14 41 25 5 3 5 1 0 0 0 0 0 0 0 0 0 0 12 5 9 102 115 68
949 951 1026 1394 1228 951 747 658 683 391 421 489 142 47 1 0 0 0 0 1 9 8 4 0 0 0 0 0 0 0 0 0 0 0 1 0 32 86 91 66 65 65 73
846 907 910 1086 1105 986 553 555 583 400 285 394 136 54 0 0 0 0 0 0 1 5 1 0 0 0 0 0 0 0 0 0 0 1 2 11 46 37 18 38 11 16 92
864 813 867 870 783 750 602 393 387 398 370 394 236 100 95 63 0 0 0 0 1 3 2 0 0 0 0 0 0 0 0 0 0 0 2 11 91 16 4 0 23 72 34
811 730 810 774 675 429 253 308 259 262 232 268 220 158 138 79 58 0 0 6 3 1 0 0 0 0 0 0 0 0 0 0 0 0 0 2 10 6 0 9 23 17 8
778 686 718 645 521 277 184 182 213 221 180 220 207 116 76 42 56 0 0 0 8 0 0 0 0 0 0 0 0 0 0 0 0 0 0 0 0 0 9 12 1 7 5
815 721 680 651 521 213 154 155 103 106 139 123 119 103 88 69 65 45 0 5 53 58 73 27 28 27 0 0 0 0 0 0 0 0 0 0 0 9 18 2 1 1 1
1013 923 796 701 548 315 163 143 88 77 89 98 81 86 42 71 113 118 9 0 18 33 24 81 24 0 0 0 0 0 0 0 0 0 0 0 0 29 6 0 0 0 0
1089 1137 864 771 633 341 190 161 101 53 47 55 58 61 51 11 58 167 56 5 3 0 0 0 0 0 0 0 0 0 0 0 0 0 0 0 0 9 2 0 0 0 0
1134 1226 1149 905 667 459 234 189 150 92 33 17 24 27 29 12 32 191 132 32 3 0 0 0 0 0 0 0 0 0 0 0 0 0 0 0 0 0 0 0 0 0 0
1138 1271 1192 1011 765 612 504 462 286 151 88 35 11 5 15 15 23 143 189 71 25 0 0 0 0 0 0 0 0 0 0 0 0 0 0 0 0 0 0 0 0 0 0
718 1054 1188 1071 868 787 712 712 630 328 178 225 155 92 0 9 16 61 159 115 12 0 0 0 0 0 0 0 0 0 0 0 0 0 0 0 0 0 0 0 0 0 0
305 300 648 946 962 948 847 808 746 572 445 404 381 239 55 0 3 14 124 154 1 3 5 6 0 0 0 0 0 0 0 0 0 0 0 0 0 0 0 0 0 0 0
0 6 0 747 1012 1011 967 923 793 708 707 654 535 388 298 94 6 18 116 141 0 14 12 10 4 0 0 0 0 0 0 0 0 0 0 0 0 0 0 0 0 0 0
0 0 4 65 797 998 980 973 935 909 874 808 693 511 452 432 164 122 42 11 10 30 14 16 9 0 0 0 0 0 0 0 0 0 0 0 0 0 0 0 0 0 0
0 0 0 0 192 749 919 897 917 855 963 938 833 729 636 633 378 267 167 41 41 78 56 37 23 0 0 0 0 0 0 0 0 0 0 0 0 0 0 0 0 0 0
0 0 0 0 18 297 725 918 813 785 791 971 914 969 811 793 526 337 257 115 96 125 137 126 43 6 4 0 0 0 0 0 0 0 0 0 0 0 0 0 0 0 0
0 0 0 0 0 38 520 726 833 817 699 728 787 899 1029 953 695 482 303 236 147 200 235 230 89 56 28 20 12 0 0 0 0 0 0 0 0 0 0 0 0 0 0
0 0 0 0 0 0 170 565 672 674 406 509 538 875 947 940 786 607 406 334 213 238 279 265 129 93 90 71 26 13 4 2 0 0 0 0 0 0 0 0 0 0 0
0 0 0 0 0 0 0 257 661 621 489 371 548 654 797 883 836 677 456 447 288 316 297 329 140 89 155 181 109 97 23 6 4 14 3 0 0 0 0 0 0 0 0
0 0 0 0 0 0 0 13 449 469 526 518 524 537 668 684 728 714 518 388 276 285 247 313 102 136 215 185 186 122 46 6 2 0 0 0 0 0 0 0 0 0 0

GFSSE_con_mucape_060.txt.gz
CAPE
133 926 2311 2073 1663 1616 1717 1609 1721 1238 856 583 303 133 58 13 0 0 0 2 5 25 62 68 47 50 38 2 0 0 0 0 0 0 0 0 0 1 1 0 0 0 0
259 1360 2234 2225 1998 1860 1933 1971 1564 1452 1028 501 312 82 28 1 1 4 2 25 23 0 11 91 76 72 42 9 0 0 0 0 0 0 0 0 0 0 0 0 0 0 0
639 1431 1839 2140 2088 2075 2075 1851 1682 1378 856 469 164 50 23 1 1 7 17 9 0 0 19 45 90 87 71 35 0 0 0 0 0 0 0 0 0 0 0 0 0 1 0
896 1339 1505 2090 2150 2058 1821 1549 1504 1006 617 350 124 44 6 2 0 2 3 0 2 8 13 14 100 79 66 27 0 0 0 0 0 0 0 0 0 0 0 0 0 0 0
1043 1143 1410 2009 2094 1839 1640 1304 1158 856 439 258 102 41 46 5 0 1 3 3 27 16 21 13 110 86 22 4 0 0 0 0 0 0 0 0 0 6 5 0 0 0 0
1037 1087 1522 1897 1826 1486 1220 1024 783 671 515 392 151 37 21 7 0 0 2 12 59 119 92 54 16 13 6 0 0 0 0 0 0 0 0 0 4 22 59 85 85 101 87
899 1103 1363 1710 1624 1433 1284 1136 1138 920 793 575 152 76 39 2 0 0 1 21 8 35 13 2 0 1 0 0 0 0 0 0 0 0 0 29 42 68 78 93 68 114 134
947 1042 1067 1238 1279 1221 1179 1114 1032 703 735 541 180 102 23 1 0 0 0 14 17 17 7 2 0 0 0 0 0 0 0 0 0 0 0 9 39 42 33 14 27 78 35
1197 928 958 850 834 894 464 806 642 559 487 717 381 176 90 32 0 0 0 0 15 18 8 0 0 0 0 0 0 0 0 0 0 0 0 13 72 26 1 85 55 35 8
1017 796 806 724 684 580 399 478 517 436 383 472 296 166 115 34 16 0 0 2 3 3 0 0 0 0 1 0 0 0 0 0 0 0 0 0 20 1 18 31 20 10 5
974 762 690 668 593 467 319 202 277 279 237 236 151 89 71 23 4 0 0 16 64 19 0 0 0 6 5 0 0 0 0 0 0 0 0 1 6 8 24 5 12 9 1
1079 908 733 611 553 383 193 156 136 135 87 114 109 87 85 65 60 0 0 12 90 76 51 5 27 52 0 0 0 0 0 0 0 0 0 0 0 37 4 3 3 1 0
1020 1133 1020 517 479 368 167 137 86 95 65 107 125 114 90 84 90 86 0 5 16 28 37 69 45 0 0 0 0 0 0 0 0 0 0 0 1 22 5 0 0 0 0
1326 1062 1040 610 611 499 312 136 79 56 93 82 112 121 115 124 129 132 91 0 4 18 6 39 0 0 0 0 0 0 0 0 0 0 0 0 5 9 1 0 0 0 0
1571 1384 1239 774 663 565 437 233 77 49 71 92 83 85 99 61 47 67 131 56 0 7 2 2 0 0 0 0 0 0 0 0 0 0 0 0 3 0 0 0 0 0 0
992 1271 1381 1015 789 681 567 393 159 110 64 38 47 54 55 62 35 37 135 111 24 0 0 0 0 0 0 0 0 0 0 0 0 0 0 0 0 0 0 0 0 0 0
669 920 955 1091 964 830 685 504 344 313 262 102 6 2 20 25 24 10 87 129 61 14 0 0 0 0 0 0 0 0 0 0 0 0 0 0 0 0 0 0 0 0 0
375 506 920 1124 1131 998 871 685 541 512 404 343 150 106 101 34 0 0 68 121 90 47 0 0 0 0 0 0 0 0 0 0 0 0 0 0 0 0 0 0 0 0 0
0 0 179 800 960 1026 963 871 709 564 560 516 358 278 269 158 5 0 14 45 105 41 1 2 4 6 0 0 0 0 0 0 0 0 0 0 0 0 0 0 0 0 0
0 0 0 62 761 809 885 881 771 695 686 652 522 502 478 386 170 9 4 34 126 104 3 10 10 6 0 0 0 0 0 0 0 0 0 0 0 0 0 0 0 0 0
0 0 0 0 233 774 775 835 806 694 751 712 716 660 628 579 378 228 64 62 101 91 2 15 19 7 0 0 0 0 0 0 0 0 0 0 0 0 0 0 0 0 0
0 0 0 0 0 373 664 661 614 578 835 806 737 782 829 713 535 381 286 169 108 41 17 53 42 20 0 0 0 0 0 0 0 0 0 0 0 0 0 0 0 0 0
0 0 0 0 0 0 439 552 641 722 652 990 999 745 922 801 753 572 470 310 168 96 58 76 87 80 65 30 25 16 0 0 0 0 0 0 0 0 0 0 0 0 0
0 0 0 0 0 0 21 410 425 458 512 482 682 704 710 831 852 767 642 478 235 198 142 127 146 129 142 57 47 60 33 6 8 1 0 0 0 0 0 0 0 0 0
0 0 0 0 0 0 0 99 384 400 461 550 491 672 644 615 813 798 692 580 338 257 200 179 183 113 131 130 40 61 74 67 49 25 7 0 0 0 0 0 0 0 0
0 0 0 0 0 0 0 0 167 257 391 437 470 536 547 554 612 717 628 517 438 295 291 238 186 125 191 152 37 33 88 96 37 31 9 4 0 0 0 0 0 0 0

GFSSE_con_mucape_063.txt.gz
CAPE
228 766 2390 2257 1742 1826 1979 1895 1798 1459 1119 587 396 267 135 51 23 17 24 50 70 80 63 68 52 51 5 0 0 0 0 0 0 0 0 0 0 1 2 0 0 0 0
350 1372 2445 2280 2100 2211 2247 2121 1845 1593 1214 597 285 181 84 52 1 0 0 0 0 11 77 89 65 53 21 1 0 0 0 0 0 0 0 0 0 0 0 0 0 0 0
558 1329 1703 2270 2266 2341 2103 1815 1700 1525 1090 488 222 61 69 50 53 47 33 5 1 1 0 75 66 62 43 5 0 0 0 0 0 0 0 0 0 0 0 0 0 0 0
1084 1393 1552 2167 2273 2345 2184 1883 1715 1404 975 505 186 58 47 16 22 49 3 0 0 13 16 83 73 73 34 0 0 0 0 0 0 0 0 0 1 0 0 0 0 0 0
1373 1390 1634 2152 2315 2274 2088 1879 1725 1255 810 425 166 90 8 1 0 0 0 0 13 37 56 60 135 56 6 0 0 0 0 0 0 0 0 0 14 8 4 14 6 0 0
1351 1349 1783 2152 2263 2074 1781 1724 1442 1043 751 350 170 95 28 2 0 3 1 62 159 143 168 143 104 7 0 0 0 0 0 0 0 0 0 0 23 50 94 103 104 97 129
1156 1296 1549 2009 1949 1630 1440 1197 1018 943 895 495 130 74 24 3 2 5 1 57 112 103 70 40 2 1 0 0 0 0 0 0 0 0 7 33 46 44 67 48 103 92 49
939 1425 1403 1536 1536 1465 1336 1120 993 1029 1027 585 205 90 32 3 0 0 9 9 19 40 41 26 6 4 0 0 0 0 0 0 0 0 0 32 77 23 1 28 77 16 10
1026 1264 1270 1146 1001 1022 948 875 993 991 1084 714 435 253 115 26 0 0 2 41 28 7 13 11 2 0 0 0 0 0 0 0 0 0 2 21 84 0 62 68 43 11 9
750 1067 1044 912 761 665 497 551 452 397 410 630 378 186 78 7 10 0 0 35 51 24 1 0 0 0 3 0 0 0 0 0 0 0 2 1 11 2 30 20 6 7 7
1164 870 884 824 717 581 339 441 358 277 233 287 187 80 24 2 0 0 0 5 42 26 0 0 0 22 3 0 0 0 0 0 0 0 0 12 0 38 8 12 7 8 1
1318 1186 671 648 625 449 297 318 310 257 216 194 171 120 89 43 1 0 0 27 118 63 40 11 53 0 0 0 0 0 0 0 0 0 0 0 23 29 9 5 4 0 0
1226 1348 861 748 473 390 291 193 159 204 174 191 144 115 107 91 92 22 4 37 82 34 61 108 95 0 0 0 0 0 0 0 0 0 0 0 46 19 0 0 0 0 0
1441 1292 1437 1049 482 367 256 158 115 118 105 117 146 95 106 106 134 122 36 25 55 68 82 111 7 0 0 0 0 0 0 0 0 0 0 0 24 11 0 0 0 0 0
1288 1198 1223 936 524 457 441 304 157 76 85 79 107 100 90 95 115 139 115 38 29 40 20 38 0 0 0 0 0 0 0 0 0 0 0 0 9 0 0 0 0 0 0
967 1304 1309 1278 1115 601 566 450 292 135 58 71 70 82 85 64 66 88 112 90 19 3 0 0 0 0 0 0 0 0 0 0 0 0 0 1 0 0 0 0 0 0 0
769 830 868 1149 1277 828 622 495 449 336 141 126 72 47 43 59 58 27 56 77 71 0 0 0 0 0 0 0 0 0 0 0 0 0 0 0 0 0 0 0 0 0 0
299 603 801 683 977 1232 743 626 487 426 291 221 219 131 42 22 35 31 30 66 90 37 1 0 0 0 0 0 0 0 0 0 0 0 0 0 0 0 0 0 0 0 0
0 0 312 734 766 838 903 799 694 555 457 359 359 310 196 108 109 33 18 46 78 69 31 0 0 0 0 0 0 0 0 0 0 0 0 0 0 0 0 0 0 0 0
0 0 0 247 771 731 797 776 804 727 622 595 538 487 403 218 240 160 50 7 42 107 73 0 0 0 0 0 0 0 0 0 0 0 0 0 0 0 0 0 0 0 0
0 0 0 0 99 810 535 728 852 453 592 670 626 562 517 428 358 274 166 3 0 26 104 28 0 0 9 0 0 0 0 0 0 0 0 0 0 0 0 0 0 0 0
0 0 0 0 0 328 583 440 535 564 445 650 502 535 638 603 527 462 361 175 29 19 89 84 0 16 0 0 0 0 0 0 0 0 0 0 0 0 0 0 0 0 0
0 0 0 0 0 0 471 588 385 485 415 422 604 831 881 675 686 638 532 364 206 77 75 86 18 20 35 17 16 8 1 0 0 0 0 0 0 0 0 0 0 0 0
0 0 0 0 0 0 14 431 401 345 384 407 437 484 863 817 704 780 697 532 309 161 154 115 59 42 58 64 45 44 20 10 9 0 0 0 0 7 0 0 0 0 0
0 0 0 0 0 0 0 7 365 349 427 536 454 380 614 956 708 742 789 715 502 407 190 187 134 63 93 107 102 93 69 37 22 14 7 9 4 2 0 0 0 0 0
0 0 0 0 0 0 0 0 115 321 409 231 384 392 390 529 493 607 700 730 598 447 420 339 228 135 135 128 134 74 147 78 55 36 24 19 22 9 3 0 0 0 0

GFSSE_con_mucape_066.txt.gz
CAPE
616 1617 2630 2313 1891 2040 1979 1985 2004 1700 1092 947 888 801 662 488 382 308 248 217 101 84 54 39 26 7 0 0 0 0 0 0 0 0 0 0 0 1 0 0 0 0 3
682 1556 2506 2473 2277 2355 2286 2120 2004 1682 1342 814 463 305 131 51 6 1 1 6 40 63 73 47 37 4 0 0 0 0 0 0 0 0 0 0 0 0 0 0 0 0 0
670 1564 1752 2373 2337 2479 2374 2211 1975 1652 1012 666 388 198 175 112 5 15 3 1 0 2 80 69 51 24 4 0 0 0 0 0 0 0 0 0 0 0 0 0 0 0 0
1180 1396 1466 2272 2465 2369 2140 2026 1893 1494 904 585 246 95 63 37 66 61 4 0 0 0 9 96 60 42 0 0 0 0 0 0 0 0 2 0 0 0 0 0 0 0 0
1185 1442 1650 2358 2560 2440 2197 2019 1774 1563 999 554 230 76 8 3 15 2 0 0 3 80 58 138 111 9 0 0 0 0 0 0 0 0 8 17 12 2 13 8 0 0 0
1286 1526 1751 2300 2493 2395 2214 1938 1794 1435 955 454 142 62 5 3 2 0 0 79 160 117 61 144 39 3 0 0 0 0 0 0 0 9 27 10 70 106 98 151 112 119 185
1193 1391 1649 2340 2398 2294 2045 1899 1286 1024 868 425 143 69 3 1 0 0 0 103 111 174 156 85 23 0 0 0 0 0 0 0 5 28 46 88 48 36 28 102 50 30 8
1272 1228 1479 1859 1902 1787 1661 1420 1007 798 761 492 162 81 38 0 0 0 4 104 117 106 76 40 12 0 0 0 0 0 0 0 5 12 29 44 45 1 33 61 11 8 6
1256 1158 1114 1410 1082 927 931 854 745 688 1022 606 401 210 59 26 1 0 9 12 39 73 50 21 19 0 0 0 0 0 0 0 17 16 25 42 27 61 119 52 18 9 3
1120 1166 1120 1062 912 759 471 548 632 663 850 510 340 197 54 0 0 0 41 100 44 37 12 0 0 0 0 0 0 0 0 0 17 19 26 39 4 52 37 12 2 5 6
1188 1021 1011 918 795 488 434 474 323 251 350 351 185 61 4 0 0 0 0 24 104 44 0 0 2 20 0 0 0 0 0 7 6 7 14 18 7 26 11 4 2 3 1
1155 1073 951 861 644 477 313 332 436 244 218 156 224 98 72 0 0 0 0 24 82 98 67 12 89 0 0 0 0 0 4 1 1 0 2 0 39 11 1 2 0 0 0
1012 788 912 808 813 570 360 212 220 207 151 139 151 136 76 4 0 0 0 9 18 0 1 30 70 0 1 0 0 0 0 0 0 0 0 0 36 6 0 0 0 0 0
809 807 1319 757 652 611 439 243 119 108 119 116 128 103 90 43 65 23 0 0 6 0 3 32 44 15 4 0 0 0 0 0 0 0 0 0 40 1 0 0 0 0 0
775 721 1255 722 618 730 597 370 142 98 86 63 86 92 73 62 76 133 90 7 0 0 12 44 37 2 4 0 0 0 0 0 0 0 0 0 31 0 0 0 0 0 0
755 805 686 692 812 613 771 556 274 164 92 45 60 77 56 56 80 172 191 133 20 2 10 39 29 0 0 0 0 0 0 0 0 0 0 4 4 0 0 0 0 0 0
1139 1023 900 679 946 763 832 767 517 286 198 116 79 62 65 98 144 150 173 189 159 9 8 21 28 0 0 0 0 0 0 0 0 0 0 0 0 0 0 0 0 0 0
160 521 1060 930 746 714 929 930 769 564 328 191 130 97 67 76 115 132 121 126 161 125 21 2 1 0 0 0 0 0 0 0 0 0 0 0 0 0 0 0 0 0 0
124 110 113 499 1029 959 790 1161 827 769 632 459 278 184 200 155 98 103 83 93 131 146 81 12 0 0 0 0 0 0 0 0 0 0 0 0 0 0 0 0 0 0 0
47 110 51 0 268 873 842 1216 1261 886 638 729 647 429 325 317 224 110 83 62 74 165 106 65 0 0 0 0 0 0 0 0 0 0 0 0 0 0 0 0 0 0 0
0 0 0 0 0 211 990 1043 1233 1082 932 965 627 795 569 398 250 235 167 134 42 112 174 110 15 0 0 0 0 0 0 0 0 0 0 0 0 0 0 0 0 0 0
0 0 0 0 0 0 196 728 793 708 674 589 548 743 724 601 378 318 271 266 126 66 152 147 43 16 0 0 0 0 0 0 0 0 0 0 0 0 0 0 0 0 0
0 0 0 0 0 0 0 80 409 495 813 663 577 603 514 569 670 428 452 435 286 143 110 121 29 63 6 4 8 0 0 0 0 0 0 0 0 0 0 0 0 0 0
0 0 0 0 0 0 0 0 106 225 387 483 698 772 879 559 555 606 467 497 451 331 227 90 49 71 35 16 12 21 10 9 14 0 0 0 0 0 0 0 0 0 0
0 0 0 0 0 0 0 0 4 112 128 389 628 736 777 638 366 961 571 449 547 526 435 187 65 66 89 49 42 49 34 25 29 36 6 0 0 0 5 5 0 0 0
0 0 0 0 0 0 0 0 0 0 73 334 563 694 850 732 287 383 489 629 492 523 493 363 280 145 162 120 66 54 84 83 37 105 42 16 11 0 7 15 0 0 0

GFSSE_con_mucape_072.txt.gz
CAPE
1345 1946 2550 2666 2477 2461 2454 2301 2180 1951 1786 1337 1058 895 773 611 422 270 164 187 97 68 8 9 7 1 0 0 1 0 0 0 0 0 0 1 0 0 0 0 16 3 51
1510 1831 2492 2607 2551 2491 2319 2302 2096 1935 1563 1271 932 716 587 431 321 240 193 170 57 41 45 12 4 0 0 0 0 0 0 0 0 0 0 0 0 0 0 0 0 0 0
1415 1784 2143 2497 2438 2389 2243 2233 1990 1842 1676 1457 746 333 182 58 1 0 0 7 42 55 35 26 2 0 0 0 0 0 0 0 0 0 0 0 0 0 0 0 0 1 0
1456 1351 1689 2423 2457 2391 2205 2047 1824 1654 1356 1039 540 403 198 49 77 44 5 0 0 44 62 41 0 0 0 0 0 0 0 0 0 4 3 0 0 0 0 0 0 0 0
1264 955 1712 2360 2451 2408 2248 2031 1839 1654 1194 823 546 188 80 196 38 0 0 0 2 64 88 49 0 0 0 0 0 0 0 0 4 9 29 27 27 97 46 146 177 200 176
1078 1386 1867 2316 2463 2292 2104 2015 1823 1510 933 566 162 26 20 11 0 0 0 33 79 275 149 16 2 0 0 0 0 0 0 0 8 38 23 35 21 148 209 89 21 61 73
1337 1417 1809 2393 2432 2345 2237 1880 1643 1408 1002 672 201 4 2 4 0 0 25 96 217 243 113 5 1 0 1 0 0 0 0 1 17 32 13 1 1 97 62 6 4 5 7
1608 1334 1572 2119 2167 2143 2027 1735 1450 884 703 476 20 4 3 1 1 3 57 272 221 180 36 3 5 0 1 0 0 0 0 0 11 21 14 10 89 66 24 9 5 3 5
1491 1199 1336 1569 1737 1658 1560 1433 965 744 572 355 185 85 1 1 0 5 148 287 146 124 84 11 0 0 0 0 0 0 0 0 5 16 7 27 193 81 16 9 3 3 9
1369 1233 986 996 1185 1134 847 746 443 495 328 269 168 68 0 0 0 0 14 179 188 133 100 18 0 0 0 0 0 0 0 0 0 0 3 15 101 26 6 2 1 2 3
1217 1113 939 722 727 724 411 318 273 223 157 127 48 2 0 0 0 0 0 53 141 103 37 0 0 1 0 0 0 0 0 0 2 6 1 155 2 13 3 1 0 1 1
997 904 806 770 494 430 375 167 182 212 150 130 99 19 0 0 0 0 0 3 106 88 42 35 46 52 0 0 0 0 0 0 1 0 0 123 4 8 4 0 0 0 0
900 1105 888 910 474 446 281 204 130 159 219 174 129 55 22 0 0 0 0 0 0 4 0 22 65 3 0 0 0 0 0 1 0 0 0 79 8 5 0 0 0 0 0
656 1065 921 675 423 227 125 204 140 183 148 112 170 87 40 0 0 0 0 0 0 0 1 0 27 0 0 0 0 0 0 0 0 0 0 9 6 4 0 0 0 0 0
681 694 754 709 539 245 172 95 79 112 103 68 64 87 49 20 0 0 0 0 0 0 0 0 0 0 0 0 0 0 0 0 0 0 0 0 0 0 0 0 0 0 0
828 693 626 578 720 600 258 209 118 64 50 43 38 49 51 26 4 5 0 0 0 0 0 0 0 0 0 0 0 0 0 0 0 0 0 0 0 0 0 0 0 0 0
687 857 689 659 643 526 594 486 403 168 70 57 11 25 20 9 0 7 13 6 0 0 0 0 0 0 0 0 0 0 0 0 0 0 0 0 0 0 0 0 0 0 0
612 634 758 759 600 550 515 726 548 470 278 114 74 0 7 0 0 0 8 56 67 43 0 0 0 0 0 0 0 0 0 0 0 0 0 0 0 0 0 0 0 0 0
178 572 724 930 833 643 628 614 847 669 574 335 173 132 73 13 5 6 44 59 107 115 61 4 0 0 0 0 0 0 0 0 0 0 0 0 0 0 0 0 0 0 0
0 0 229 669 952 859 782 618 817 975 878 625 419 277 201 123 73 39 83 100 69 84 119 63 0 0 0 0 0 0 0 0 0 0 0 0 0 0 0 0 0 0 0
0 0 0 0 19 643 971 899 684 675 909 948 804 606 413 279 204 146 119 110 94 71 108 97 58 17 0 0 0 0 0 0 0 0 0 0 0 0 0 0 0 0 0
0 0 0 0 0 0 18 923 914 601 538 588 880 925 809 552 325 244 236 195 160 123 108 150 119 81 55 8 0 0 0 0 0 0 3 0 0 0 0 0 0 0 0
0 0 0 0 0 0 0 12 753 480 287 297 320 464 692 811 838 543 318 279 265 218 180 155 198 143 75 64 6 1 0 0 0 0 17 22 8 0 0 0 0 0 0
0 0 0 0 0 0 0 0 62 528 397 585 596 477 388 374 401 512 790 595 374 371 342 250 244 228 132 88 85 42 22 3 2 0 0 4 29 14 8 19 4 0 0
0 0 0 0 0 0 0 0 0 0 0 349 520 562 544 482 434 438 436 471 664 477 459 465 395 336 256 188 152 167 61 37 48 44 24 17 9 30 21 13 31 33 6
0 0 0 0 0 0 0 0 0 0 0 0 11 53 28 135 546 714 703 513 358 887 915 622 693 606 327 388 308 215 173 131 94 97 97 70 68 62 83 74 42 39 63

GFSSE_con_mucape_075.txt.gz
CAPE
1364 2092 2630 2635 2625 2630 2475 2379 2104 1887 1620 1366 1101 848 732 510 232 233 226 88 118 25 12 7 2 0 0 0 0 0 0 0 0 0 0 0 0 1 3 0 0 18 54
1603 2018 2460 2555 2581 2537 2406 2317 2070 1786 1667 1486 1016 808 641 489 361 256 239 60 46 43 8 5 1 0 0 0 0 0 0 0 0 0 0 0 0 0 0 0 0 0 0
1702 1980 2163 2451 2441 2412 2353 2193 2013 1754 1645 1504 917 604 346 148 12 0 32 129 64 27 9 2 0 0 0 0 0 0 0 0 0 0 0 0 0 0 0 0 0 1 2
1681 1829 1982 2326 2420 2398 2272 2099 2001 1853 1646 1320 1003 353 192 65 70 30 3 0 64 75 33 0 0 0 0 0 0 0 0 2 1 0 0 0 0 0 0 11 16 47 1
1395 1690 1975 2284 2397 2340 2086 1929 1829 1688 1510 1324 1065 603 383 252 13 0 0 0 28 126 57 4 0 0 0 0 0 0 0 5 23 12 14 27 31 99 164 160 123 201 229
1228 1563 2066 2273 2405 2173 1961 1875 1823 1285 1344 844 509 149 56 10 0 0 0 0 245 226 74 7 3 0 0 0 0 0 1 14 6 6 13 37 50 136 45 7 8 66 158
1245 1564 1932 2275 2336 2164 2043 1885 1521 1471 1097 541 78 5 6 2 0 0 0 253 357 199 20 9 5 0 0 0 0 0 0 14 13 4 0 11 23 19 6 6 5 6 7
1298 1489 1792 2034 2033 2081 2022 1633 1476 1166 604 306 29 1 3 1 0 16 17 203 440 86 0 11 4 0 0 0 0 0 0 3 6 3 2 11 125 12 6 8 1 5 3
1268 1444 1688 1724 1773 1788 1530 1388 1138 769 520 203 104 29 0 6 0 65 154 353 247 102 95 2 0 0 0 0 0 0 0 0 0 1 8 13 145 11 2 6 5 6 8
1401 1265 1426 1470 1439 1298 1003 767 569 496 258 176 64 8 0 0 0 57 157 220 266 218 97 66 0 0 0 0 0 0 0 0 0 0 3 50 54 7 4 1 3 3 2
1060 921 1019 1152 1141 931 693 377 231 165 92 71 22 0 0 0 0 0 22 118 157 174 102 33 20 40 40 0 0 0 0 0 0 0 5 169 25 6 3 0 1 1 0
1171 927 843 734 825 588 451 256 114 97 67 42 21 4 0 0 0 0 0 68 147 102 84 71 83 81 7 0 0 0 0 0 0 0 14 127 1 4 2 0 0 0 0
1044 899 640 606 728 410 263 241 109 86 88 84 65 42 19 0 0 0 0 6 11 2 2 43 74 18 0 0 0 0 0 0 0 0 23 105 0 1 1 0 0 0 0
1081 939 801 635 468 435 431 285 119 101 123 111 95 89 21 20 0 0 0 2 3 0 3 0 16 0 0 0 0 0 0 0 0 0 15 45 31 3 0 0 0 0 0
1142 1156 938 872 646 598 445 234 89 93 116 147 147 127 29 27 0 0 0 0 4 0 0 0 0 0 0 0 0 0 0 0 0 0 0 2 27 0 0 0 0 0 0
624 1068 924 749 565 275 271 142 83 167 155 117 125 126 68 32 11 7 0 0 0 5 5 0 0 0 0 0 0 0 0 0 0 0 0 0 0 0 0 0 0 0 0
784 646 731 816 650 498 279 223 92 36 50 39 26 61 74 44 20 11 0 0 0 2 1 0 0 0 0 0 0 0 0 0 0 0 0 0 0 0 0 0 0 0 0
798 785 780 667 661 642 558 496 314 243 80 50 16 0 0 18 12 0 0 0 0 1 2 0 0 0 0 0 0 0 0 0 0 0 0 0 0 0 0 0 0 0 0
565 636 831 713 609 511 617 614 579 494 399 304 138 69 30 8 0 0 0 0 23 42 55 12 0 0 1 4 0 0 0 0 0 0 0 0 0 0 0 0 0 0 0
54 585 729 775 867 733 543 521 731 696 610 545 360 298 151 89 50 21 8 10 38 73 99 89 44 4 12 15 16 0 0 0 0 0 0 0 0 0 0 0 0 0 0
0 0 223 194 946 917 751 567 460 765 674 639 428 424 305 246 219 146 94 51 59 68 93 108 87 71 48 32 0 5 0 0 0 0 0 0 0 0 0 0 0 0 0
0 0 0 0 11 845 835 805 708 525 708 843 807 692 519 367 272 263 220 157 103 74 80 97 118 115 112 103 47 13 0 0 0 0 0 0 0 0 0 0 3 9 2
0 0 0 0 0 0 39 766 877 809 665 475 531 599 860 695 540 263 208 220 230 200 159 156 150 142 142 117 53 30 16 2 4 9 2 0 1 0 6 18 12 21 31
0 0 0 0 0 0 0 0 570 603 568 462 241 195 190 283 502 624 541 363 207 275 261 244 202 194 161 135 90 53 32 29 47 15 28 26 40 30 15 23 26 21 27
0 0 0 0 0 0 0 0 0 0 323 271 276 327 441 394 290 259 237 260 304 454 362 319 335 360 192 188 154 161 145 85 62 59 49 43 48 58 50 45 53 35 32
0 0 0 0 0 0 0 0 0 0 0 0 0 119 612 513 401 347 369 361 374 294 389 534 500 423 435 422 375 373 322 160 116 78 51 54 80 67 29 77 42 68 47

GFSSE_con_mucape_078.txt.gz
CAPE
908 1945 2656 2770 2559 2512 2178 1997 2085 1875 1707 1086 836 684 375 292 346 251 64 6 13 15 9 4 3 3 1 0 0 0 0 0 0 0 0 8 7 19 18 14 10 14 23
1452 2033 2523 2726 2699 2589 2435 2151 1908 1772 1554 1500 1001 766 592 401 340 229 83 33 31 8 4 2 0 0 0 0 0 0 0 0 0 0 0 0 0 0 0 0 0 0 0
1739 1944 2188 2558 2527 2510 2254 2208 2010 1863 1683 1496 1000 832 535 329 253 305 173 64 32 8 4 1 0 0 0 0 0 0 0 0 0 0 0 0 0 1 0 0 0 1 2
1679 1860 1967 2415 2503 2437 2343 2121 1967 1855 1776 1531 1021 439 184 52 33 7 22 137 46 22 1 0 0 0 0 0 0 2 0 0 0 0 0 0 0 5 13 41 82 20 5
1640 1729 1911 2312 2425 2286 2144 2074 1962 1928 1748 1536 1121 835 475 209 2 0 0 37 166 43 1 0 0 0 0 0 0 3 7 16 15 0 6 1 47 146 169 151 192 154 158
1574 1642 2025 2268 2376 2214 2108 2095 2003 1766 1553 1202 1086 802 203 2 0 0 0 197 305 71 4 0 0 0 0 0 0 0 7 10 0 8 32 79 30 105 11 5 7 112 163
1472 1683 1970 2246 2245 2143 2021 1914 1675 1410 1094 754 323 154 15 2 0 0 3 124 262 111 22 0 0 0 0 0 0 0 0 3 0 1 19 14 0 6 4 5 7 7 22
1368 1691 1882 2027 2023 1993 1966 1722 1455 1013 545 139 1 0 3 1 1 0 109 193 276 40 16 0 0 0 0 0 0 0 0 0 0 0 0 0 56 6 6 3 4 4 5
1362 1599 1779 1783 1751 1711 1650 1418 1353 768 387 115 21 8 14 4 57 0 110 488 326 123 134 76 28 0 0 0 0 0 0 0 0 0 0 0 94 5 3 2 3 4 4
1345 1483 1522 1533 1567 1433 1121 917 766 397 184 94 71 7 0 0 91 92 179 391 253 184 122 105 64 31 0 0 0 0 0 0 0 0 0 24 28 5 3 1 2 2 1
1303 1277 1322 1377 1349 1102 871 543 327 164 51 44 15 0 0 0 0 70 98 171 235 216 112 59 58 73 47 2 0 0 0 0 0 0 18 185 25 2 2 0 1 0 0
1119 1128 1191 1128 1076 922 673 280 160 68 33 23 9 2 0 0 0 3 71 96 173 167 126 86 66 70 4 0 0 0 0 0 0 0 44 180 25 1 1 0 0 0 0
752 876 987 984 970 650 471 222 106 73 48 39 29 20 0 0 0 0 3 39 64 38 16 27 57 2 0 0 0 0 0 0 0 0 49 168 28 1 0 0 0 0 0
864 837 709 632 834 549 402 247 120 78 70 59 54 45 40 0 0 0 0 16 34 16 11 14 19 4 0 0 0 0 0 0 0 0 25 96 89 0 0 0 0 0 1
1133 965 772 533 732 552 325 294 179 117 84 84 70 58 67 7 0 0 0 3 6 7 8 14 11 5 0 0 0 0 0 0 0 0 10 36 75 52 0 0 0 0 1
1181 1019 851 795 595 593 412 464 240 106 89 96 85 89 88 21 25 0 0 0 2 6 6 6 1 0 0 0 0 0 0 0 0 0 0 0 37 58 0 0 0 1 1
924 1176 1089 945 915 761 597 572 297 120 84 109 102 131 122 51 32 0 0 0 0 0 0 0 2 1 7 5 3 0 0 0 0 0 0 0 0 0 0 0 0 0 0
787 736 1141 945 720 569 493 428 218 165 105 184 130 170 157 66 41 15 2 0 0 0 0 0 0 0 0 2 5 6 0 0 0 0 0 0 0 0 0 0 0 0 0
741 720 722 836 761 626 443 327 393 295 168 140 62 53 75 61 30 0 0 0 0 0 5 17 16 0 0 0 0 0 0 0 0 0 0 0 0 0 0 0 0 0 0
503 580 756 777 659 715 669 556 534 502 384 233 217 291 75 6 0 0 0 0 0 0 7 14 29 27 0 0 0 0 0 0 0 0 0 0 0 0 0 0 0 0 0
0 353 585 807 745 686 534 444 650 675 632 458 281 254 262 263 110 36 24 0 0 0 0 24 53 83 61 40 22 13 0 0 0 0 0 0 0 0 0 1 4 4 0
0 0 293 591 718 751 771 599 514 464 694 696 521 426 356 338 302 214 199 159 107 58 35 52 89 104 123 115 90 63 19 0 0 23 6 2 1 0 2 7 4 12 4
0 0 0 5 0 340 844 828 686 591 470 595 696 672 628 480 388 277 236 244 197 165 173 184 166 142 134 145 153 95 24 0 3 15 28 24 27 29 25 22 21 16 34
0 0 0 0 0 0 0 73 718 778 754 668 525 492 556 551 607 607 524 276 212 219 185 217 224 227 224 162 143 93 81 58 37 9 37 58 45 42 40 43 48 14 11
0 0 0 0 0 0 0 0 0 460 638 613 326 334 251 177 111 141 269 327 306 261 257 208 189 297 237 201 190 112 129 90 71 159 92 63 76 73 51 30 58 67 35
0 0 0 0 0 0 0 0 0 0 0 62 61 47 6 246 379 361 253 195 201 197 210 355 250 183 268 274 322 304 200 154 97 138 100 93 142 133 157 90 64 82 82

GFSSE_con_mucape_081.txt.gz
CAPE
826 1922 2512 2486 2348 1943 1833 1604 1729 1657 1255 778 562 466 490 350 195 15 4 5 13 12 7 6 3 1 0 0 0 0 0 1 2 1 6 15 16 35 40 27 10 0 0
1139 1977 2571 2669 2563 2243 2203 2202 1991 1809 1605 1341 810 494 368 353 228 27 5 7 5 4 2 0 0 0 0 0 0 0 0 0 0 0 0 0 0 0 0 0 0 0 0
1597 1932 2280 2550 2511 2492 2344 2089 1896 1748 1608 1456 894 723 560 458 420 95 67 6 2 3 1 0 0 0 0 0 0 0 0 0 0 0 0 0 0 0 0 0 0 1 1
1601 1893 2135 2443 2514 2454 2307 2114 1895 1555 1413 1433 950 606 314 172 232 304 197 20 0 0 0 0 0 0 0 0 0 0 0 0 0 0 0 0 0 11 57 69 67 7 1
1574 1759 2007 2340 2470 2335 2168 2131 2009 1875 1713 1440 1059 583 209 192 1 0 184 203 23 0 0 0 0 0 0 0 0 0 5 5 0 0 8 50 57 100 108 226 186 214 265
1575 1669 2057 2269 2373 2249 2147 2065 1955 1868 1398 1231 1106 912 315 1 0 0 8 454 121 24 0 0 0 0 0 0 0 41 50 0 0 0 8 28 3 21 3 4 20 117 266
1466 1632 1818 2257 2280 2240 2158 2061 1930 1796 1439 1249 862 333 24 0 0 0 51 307 104 0 0 0 0 0 0 0 0 0 6 0 0 16 0 0 0 2 8 7 4 2 9
1356 1678 1857 2033 1962 2091 2118 1999 1800 1194 609 204 86 51 0 0 0 0 29 330 93 53 0 0 0 0 0 0 0 0 7 0 0 0 0 0 40 5 2 3 4 4 3
1367 1629 1784 1804 1766 1726 1711 1508 1229 658 333 170 55 14 38 47 47 55 106 319 156 134 81 59 0 0 0 0 0 0 0 0 0 0 0 0 28 3 2 3 4 4 4
1400 1504 1562 1601 1525 1454 1242 1049 799 365 133 94 71 24 2 0 66 84 168 441 277 183 187 132 48 1 0 0 0 0 0 0 0 0 0 1 17 1 2 1 2 1 1
1410 1403 1474 1405 1372 1231 984 715 331 100 49 41 18 0 0 3 2 22 100 195 198 197 133 66 69 51 0 0 0 0 0 0 0 0 0 141 7 2 1 0 0 0 0
1141 1366 1444 1251 1202 1083 823 496 142 45 22 13 5 0 0 3 5 40 88 140 203 150 107 77 51 48 0 0 0 0 0 0 0 0 27 186 41 1 0 0 0 0 0
1055 1449 1514 1168 1102 950 755 359 128 41 30 23 20 4 0 1 7 36 63 79 77 65 45 46 41 18 0 0 0 0 0 0 0 0 35 201 61 22 0 0 0 0 0
863 940 1095 1090 999 916 679 270 113 62 51 40 37 35 10 0 6 5 13 34 48 47 23 19 19 17 0 0 0 0 0 0 0 0 19 101 176 30 0 0 0 0 0
850 815 1014 1017 923 897 546 261 139 88 78 64 47 46 50 46 0 4 0 6 17 29 9 4 7 8 1 0 0 0 0 0 0 0 3 60 95 124 8 0 0 0 1
886 776 813 857 858 899 513 311 219 143 100 77 54 49 55 59 5 0 0 0 2 2 0 0 0 0 0 0 0 2 0 0 0 0 0 17 42 143 39 0 0 0 0
1111 1016 927 695 560 834 587 390 362 252 146 78 61 57 70 82 15 0 0 0 0 0 0 0 0 0 0 0 0 0 0 0 0 0 0 0 14 40 76 0 0 1 2
1331 1258 1097 918 766 612 710 507 517 437 210 96 109 80 90 108 39 30 10 0 0 0 0 0 0 0 0 0 0 0 0 0 0 0 0 0 0 0 0 49 18 0 2
1063 1077 1238 1168 1062 918 872 705 634 619 326 114 133 151 124 138 106 55 36 0 0 0 0 0 0 0 0 0 0 0 0 0 0 0 0 0 0 0 0 0 0 3 1
736 841 799 1115 1156 905 684 645 656 500 287 230 132 198 138 109 127 74 58 0 0 0 0 0 0 0 0 13 0 0 0 0 0 0 0 0 0 0 0 0 0 0 0
480 629 743 849 794 877 809 655 523 474 460 337 297 225 172 271 150 93 64 0 0 0 0 0 0 0 5 34 33 23 12 0 10 47 26 12 20 16 1 0 0 0 2
75 235 556 707 803 750 707 697 652 580 574 609 441 369 279 255 264 252 211 97 66 52 20 24 4 0 0 41 60 130 27 1 0 22 22 21 28 28 24 21 23 28 19
0 0 77 512 747 790 695 637 586 501 514 639 688 655 487 297 273 232 196 214 192 162 153 147 115 96 62 88 127 96 92 8 1 0 5 12 24 32 24 14 17 26 26
0 0 0 22 214 383 233 657 805 695 630 575 477 589 681 614 572 494 418 365 318 254 217 232 164 125 164 162 212 169 132 85 57 23 6 5 7 10 16 17 10 16 41
0 0 0 0 0 0 0 0 119 601 705 778 715 625 527 460 414 399 462 501 397 312 257 216 155 223 77 118 142 98 89 71 73 64 50 38 31 28 13 50 43 39 58
0 0 0 0 0 0 0 0 0 0 38 160 292 453 344 217 227 223 180 215 227 235 169 182 177 253 215 227 95 102 85 49 46 52 49 34 10 7 1 3 31 39 54

GFSSE_con_mucape_084.txt.gz
CAPE
545 1624 2325 2406 1802 1924 1753 1627 1603 1376 1176 870 702 543 331 147 14 2 5 6 7 8 5 5 4 1 0 0 0 1 2 4 8 4 3 17 44 47 32 4 0 0 0
972 1816 2423 2485 2132 2145 2064 2005 1814 1627 1372 1062 606 494 367 149 1 3 4 4 4 3 2 1 0 0 1 0 0 0 0 0 0 0 0 0 0 1 0 0 0 0 2
1451 1868 2080 2451 2208 2279 2258 2043 1905 1743 1586 1299 656 519 436 289 50 62 2 1 2 1 0 0 0 0 2 1 0 0 0 0 0 0 0 0 0 0 1 0 0 0 1
1618 1879 2049 2393 2305 2451 2295 1992 1874 1650 1409 1318 883 691 546 558 158 168 2 0 1 0 0 0 0 1 0 0 0 0 0 0 0 0 0 0 4 99 92 84 56 38 1
1615 1862 2009 2379 2520 2457 2224 1975 1886 1753 1595 1392 1052 604 236 205 262 373 61 0 0 0 0 0 0 2 1 0 0 0 0 0 0 41 48 58 69 104 241 256 216 300 48
1572 1859 2094 2325 2457 2335 2227 2101 1931 1702 1293 949 815 565 342 44 3 144 363 249 12 0 0 0 0 0 0 0 59 93 39 29 0 20 16 7 0 4 3 4 3 202 206
1390 1684 1909 2291 2341 2278 2201 2104 1975 1753 1425 1018 697 532 91 0 0 42 383 197 0 0 0 0 0 0 0 0 8 68 7 0 19 0 0 0 0 3 7 4 2 4 8
1359 1597 1835 1993 2074 2121 2078 1984 1847 1649 1308 1211 500 111 30 0 0 0 229 135 38 0 0 0 0 0 0 0 0 27 0 0 0 0 0 0 50 4 5 3 4 5 2
1330 1469 1684 1720 1773 1864 1843 1748 1424 824 525 388 169 106 46 38 38 1 194 288 87 62 47 0 0 0 0 0 0 0 0 0 0 0 0 0 65 3 3 3 2 2 3
1281 1375 1490 1562 1641 1587 1398 1075 655 388 229 153 64 25 16 45 56 153 144 408 289 232 141 68 22 0 0 0 0 0 0 0 0 0 0 0 0 1 2 1 0 0 0
1329 1290 1619 1458 1416 1271 1028 684 242 80 52 33 15 0 0 5 35 65 108 238 189 220 142 77 57 37 0 0 0 0 0 0 0 0 0 68 29 0 0 0 0 0 0
1720 1601 1484 1351 1238 1091 820 577 154 79 29 9 0 0 0 12 4 14 34 162 171 136 97 69 44 38 0 0 0 0 0 0 0 0 0 130 50 28 0 0 0 0 0
1285 1529 1643 1332 1158 992 757 513 123 81 44 17 11 0 0 8 22 51 92 106 102 67 56 53 45 18 0 0 0 0 0 0 0 0 0 116 105 62 0 0 0 0 0
1253 1346 1524 1663 1153 970 757 422 281 115 47 32 27 19 0 4 12 46 48 55 60 53 38 28 16 14 0 0 0 0 0 0 0 0 0 44 201 73 28 0 0 0 0
1267 818 1229 1658 1099 993 857 479 180 99 77 50 39 42 34 10 3 13 32 33 34 37 23 5 1 2 0 0 0 0 0 0 0 0 0 7 77 186 63 1 0 0 0
924 955 1134 1329 1074 978 867 608 251 169 114 84 71 49 42 34 32 0 0 0 0 5 9 0 0 0 0 0 0 0 0 0 0 0 0 0 33 129 144 40 1 0 0
882 837 870 954 1059 941 842 631 329 268 196 144 93 62 57 47 41 0 0 0 0 0 0 0 0 0 0 0 0 0 0 0 0 0 0 0 0 39 145 82 15 1 0
881 867 883 1002 1044 907 925 679 419 363 314 257 146 69 63 62 54 41 2 0 0 0 0 0 0 0 0 0 0 0 0 0 0 0 0 0 0 0 16 170 175 13 0
904 974 947 883 774 706 803 865 599 464 480 402 255 124 107 79 75 90 41 25 0 0 0 0 0 0 0 0 0 0 0 0 0 0 1 0 0 0 0 2 16 43 65
922 1097 1161 1069 1070 964 819 733 764 659 645 604 401 167 154 156 112 131 114 59 31 0 0 0 0 0 0 0 0 9 27 16 12 16 33 32 20 10 2 0 0 0 0
648 766 1014 1283 1310 1218 1118 940 908 861 783 729 625 262 139 205 182 173 156 121 62 31 0 0 0 0 0 0 0 14 20 23 27 21 19 11 8 6 7 11 3 0 4
541 644 843 935 954 1036 1001 949 758 592 716 578 365 319 297 229 164 204 181 164 123 59 45 48 32 14 21 32 21 30 5 1 0 0 0 0 0 2 6 0 0 0 2
0 165 432 695 825 907 901 758 789 725 638 561 524 574 479 283 182 187 153 170 185 157 165 151 140 109 80 70 64 52 43 10 9 9 9 2 0 0 0 0 4 2 8
0 0 0 68 568 782 874 771 667 622 578 612 571 575 646 699 518 435 411 428 388 302 237 211 174 144 123 140 21 80 47 48 61 38 11 4 9 11 37 24 17 17 19
0 0 0 2 110 339 534 628 550 588 704 756 624 508 434 432 475 532 517 428 306 241 233 195 206 194 136 92 76 83 21 34 67 37 14 12 7 28 17 16 3 10 5
0 0 0 0 0 0 0 0 0 0 0 69 302 409 511 542 487 321 315 287 295 295 278 292 246 150 111 96 31 81 102 39 28 18 21 9 11 21 20 3 2 0 0

GFSSE_con_mucape_087.txt.gz
CAPE
826 1623 2234 2186 1963 2017 1856 1666 1682 1523 1315 906 328 289 119 33 8 4 2 0 0 0 7 8 5 3 2 2 3 4 6 5 3 0 0 37 44 19 1 0 0 0 0
1100 1693 2140 2195 2221 2157 2076 1879 1684 1502 1353 1050 386 360 116 31 4 8 8 4 4 3 1 1 1 3 0 0 0 0 0 0 0 0 0 0 1 0 0 0 0 1 0
1407 1727 1965 2149 2200 2193 2147 1971 1734 1524 1360 1170 769 373 212 87 42 5 6 7 2 1 0 0 5 3 2 1 0 0 0 0 0 0 0 0 0 1 2 1 0 0 0
1515 1787 1907 2110 2219 2285 2191 1999 1845 1739 1489 1252 1032 641 439 189 134 3 2 4 0 0 0 2 2 0 0 0 0 0 0 0 0 0 3 44 103 118 165 227 175 11 2
1755 1832 1983 2113 2217 2375 2108 2025 1971 1718 1621 1429 1173 978 661 347 347 27 3 1 0 0 0 2 6 6 3 2 1 0 0 0 14 20 83 67 74 116 112 58 268 113 109
1793 1866 2133 2221 2471 2255 2003 1819 1962 1758 1384 996 977 709 311 216 441 260 0 0 0 0 0 3 4 0 0 63 76 42 65 28 21 11 7 5 5 6 7 0 17 245 261
1602 1900 2158 2421 2388 2340 2131 2069 1976 1817 1427 848 572 473 154 38 107 511 157 58 0 0 0 0 1 0 0 35 81 54 15 0 22 3 0 1 5 4 4 1 0 0 0
1526 1890 1948 2141 2153 2198 2182 2038 1941 1682 1363 1140 947 290 43 0 12 341 170 98 19 0 0 0 0 0 0 0 51 0 0 0 0 0 0 2 19 2 3 2 2 3 2
1594 1735 1870 1807 1811 1866 1813 1799 1636 1361 1062 643 401 150 25 5 0 98 472 213 68 65 9 0 0 0 0 0 30 0 0 0 0 0 0 1 42 2 2 1 1 2 4
1660 1629 1713 1838 1761 1661 1599 1202 765 577 439 309 213 50 20 19 36 96 234 266 284 197 123 86 0 0 0 0 0 0 0 0 0 28 1 3 4 1 0 0 0 0 0
1377 1522 1547 1651 1644 1536 1399 890 309 146 73 37 11 0 1 39 41 65 96 230 235 234 130 79 36 8 0 0 0 0 0 0 0 16 5 35 5 0 0 0 0 0 0
1108 1485 1481 1372 1518 1379 1113 635 261 101 50 13 15 11 2 24 18 46 55 159 159 145 114 75 51 11 0 0 0 0 0 0 0 0 18 43 26 8 0 0 0 0 0
1360 1144 1451 1471 1418 1248 1017 514 249 146 50 25 9 1 1 6 27 42 82 161 152 54 59 46 35 16 0 0 0 0 0 0 0 0 1 30 115 51 0 0 0 0 0
997 1155 1260 1396 1204 1200 846 461 278 135 69 27 14 0 0 7 21 53 92 111 117 81 54 40 26 16 2 0 0 0 0 0 0 0 0 4 144 95 32 0 0 0 0
1090 1260 1052 1404 1175 1081 738 476 278 231 86 34 29 23 7 1 7 22 41 45 55 45 33 24 12 6 2 0 0 0 0 0 0 0 0 0 13 150 75 17 0 0 0
836 1437 1273 1507 1167 1001 813 540 400 250 84 57 45 38 25 18 8 0 13 18 15 16 17 6 0 0 0 0 0 0 0 0 0 0 0 0 0 66 141 72 23 0 0
599 758 772 778 1330 1026 895 783 491 241 161 113 70 65 40 31 19 22 0 0 0 0 0 0 0 0 0 0 0 0 0 0 0 0 0 0 0 0 61 137 81 24 3
588 610 772 740 1159 1090 917 829 686 337 302 232 187 123 70 45 35 27 13 0 0 0 0 0 0 0 0 0 0 0 0 0 0 0 0 0 0 0 0 98 222 57 26
625 614 610 754 765 994 971 856 770 443 371 338 315 250 117 77 62 52 55 7 0 0 0 0 0 0 0 0 0 0 0 0 0 0 0 0 10 5 0 0 4 77 120
463 546 671 812 795 766 774 874 930 724 551 485 457 397 245 127 105 76 70 75 31 11 0 0 0 0 0 0 0 0 0 0 20 38 52 35 19 2 0 0 0 0 1
468 622 633 687 732 622 652 731 794 889 799 620 581 588 473 204 149 154 121 108 92 55 33 6 0 0 0 0 0 0 0 0 18 22 19 2 0 0 0 0 0 0 0
187 428 522 735 910 866 876 817 844 865 820 861 784 734 681 480 171 145 178 146 121 102 62 45 26 31 13 37 17 18 0 0 0 0 0 0 0 0 0 0 0 0 0
0 85 524 680 815 882 996 1087 999 917 745 624 780 700 483 281 178 138 145 122 136 125 126 130 122 108 89 74 53 45 18 7 9 6 0 2 7 9 8 7 20 20 11
0 0 6 292 741 838 829 838 854 833 790 801 669 561 560 541 588 538 384 180 171 202 258 187 160 107 101 83 65 5 5 27 114 16 7 19 12 10 2 10 6 3 5
0 0 0 31 113 635 786 941 910 833 774 675 586 577 539 452 425 528 498 455 363 300 252 194 151 117 90 115 130 50 62 9 56 14 14 8 10 5 11 6 0 0 5
0 0 0 0 3 109 517 718 750 750 626 526 546 597 607 532 453 412 368 373 362 329 288 249 181 147 184 131 77 27 4 7 15 19 17 11 16 8 9 4 1 2 1

GFSSE_con_mucape_090.txt.gz
CAPE
1444 1398 2242 2313 1881 1915 1833 1614 1756 1536 1263 643 390 148 69 31 9 14 22 82 129 138 69 12 8 8 4 3 5 4 5 6 0 0 8 54 3 1 0 0 15 0 3
1493 1369 2205 2293 2244 2110 2064 1916 1705 1471 1104 899 334 138 82 18 18 8 2 0 0 1 3 8 2 0 0 0 0 0 0 0 0 0 0 0 1 0 0 0 1 0 0
1474 1353 1431 2224 2230 2237 2068 1891 1744 1575 1227 1076 488 190 155 24 10 7 4 1 2 1 4 10 7 3 1 0 0 0 0 0 0 0 2 42 23 82 95 2 1 0 0
1444 1582 1097 2110 2194 2159 2093 1940 1804 1645 1435 1212 987 420 259 42 4 7 2 0 0 1 6 6 3 2 1 1 0 0 0 0 0 8 99 60 60 153 151 247 64 37 60
1562 1601 1464 2064 2229 2174 2021 1996 1881 1690 1525 1411 1273 1011 684 190 42 33 1 0 0 4 6 9 8 5 1 1 1 0 2 12 43 62 38 30 25 5 15 220 187 216 235
1536 1737 1720 1952 2344 2259 2019 2009 1765 1814 1366 1027 1082 820 795 597 174 78 0 0 0 12 7 7 4 15 78 59 45 72 56 33 16 42 25 13 3 3 1 0 4 10 193
1386 1731 1917 2044 2438 2278 2124 1999 2008 1795 1269 786 526 404 308 415 529 127 0 0 0 0 3 2 1 2 77 82 88 88 36 0 19 9 12 6 5 3 2 0 0 0 0
1300 1767 1943 2130 2205 2204 2124 2093 2000 1743 1421 1043 944 252 72 115 513 169 32 0 0 0 1 1 0 0 61 77 42 13 0 0 1 2 3 1 3 2 0 0 0 0 1
1588 1774 1902 1866 1787 1831 1926 1914 1810 1711 1347 1000 632 365 62 18 199 471 184 89 7 0 0 0 0 0 16 76 0 0 0 0 1 3 2 6 2 2 0 0 0 1 0
1435 1509 1603 1733 1785 1616 1522 1482 1320 1069 738 675 412 82 0 7 35 277 253 245 212 82 35 0 1 9 0 0 0 0 0 0 2 5 8 2 2 0 0 0 0 0 1
1460 1361 1316 1675 1578 1449 1220 1114 625 347 238 152 45 0 0 0 0 40 304 139 282 216 99 39 24 20 0 0 0 0 0 9 13 21 27 14 7 0 0 0 0 0 0
1318 1435 1467 1653 1591 1418 1048 1043 704 344 205 122 46 15 0 0 6 0 126 128 205 181 170 110 41 1 0 0 2 0 11 9 7 18 48 30 26 5 0 0 0 0 0
1332 1115 1544 1442 1479 1330 1139 924 658 403 224 70 3 0 0 11 8 7 90 319 166 75 126 76 52 41 6 0 0 0 0 1 1 9 13 12 114 39 0 0 0 0 0
1091 1247 1116 1297 1547 1310 1138 969 659 448 234 87 29 0 0 8 24 6 43 120 139 113 124 125 90 61 25 0 0 0 0 0 0 0 7 0 50 132 49 0 0 0 0
1095 1206 1168 1139 1517 1401 1164 928 734 482 257 148 66 12 0 1 26 51 82 86 115 111 89 73 44 34 34 16 0 0 0 0 0 0 0 0 0 63 114 41 0 0 0
1141 1409 1222 1228 1340 1392 1246 1051 793 521 339 213 138 69 22 1 2 23 50 58 57 45 40 34 11 0 0 0 0 0 0 0 0 0 0 0 0 0 98 92 56 7 0
1257 1248 1001 1250 1325 1362 1237 1104 957 755 434 290 221 149 68 39 23 17 0 6 15 4 0 10 1 0 0 0 0 0 0 0 0 0 0 0 0 0 1 134 126 58 16
1255 1255 1275 1173 1409 1278 1269 1214 1103 957 581 437 316 267 145 74 62 38 24 0 0 0 0 0 0 0 0 0 0 0 0 0 0 0 0 0 0 0 0 50 177 173 49
1061 1095 1212 1285 1201 1291 1527 1336 1125 1018 834 681 570 451 293 158 99 84 59 23 0 0 0 3 0 0 0 0 0 0 0 0 0 0 0 5 0 0 0 0 2 66 137
1080 1158 1172 1173 1398 1214 1363 1110 1131 1105 947 866 807 665 537 341 195 141 124 103 48 21 23 0 0 0 0 0 0 0 0 0 7 30 42 27 11 0 0 0 0 0 0
1030 1182 1179 1100 996 1055 796 832 896 1022 958 822 756 732 693 628 428 335 247 167 120 73 51 22 0 0 0 0 0 0 0 9 14 47 44 36 0 0 0 0 0 0 0
767 1079 1148 1030 958 937 989 729 653 776 699 1140 961 621 672 617 564 417 338 293 184 85 66 41 29 21 13 8 0 9 43 103 67 28 3 0 0 0 0 1 1 2 1
149 327 588 707 646 841 685 430 406 373 356 403 647 722 700 625 629 477 282 265 214 148 107 85 76 59 57 70 81 54 26 8 1 1 0 2 0 1 10 6 4 2 2
25 7 2 382 571 536 684 525 556 672 688 590 838 890 868 567 485 390 381 323 205 138 110 181 105 79 68 63 52 89 82 42 13 26 11 2 0 5 8 11 6 1 0
28 0 0 0 170 428 641 668 929 893 1072 983 528 552 600 612 604 529 527 512 433 330 264 222 182 129 90 79 158 51 108 9 14 19 21 22 3 0 0 1 8 6 0
4 0 1 0 0 97 336 411 653 853 813 607 539 535 725 678 607 528 396 390 445 430 354 264 221 148 147 141 97 150 119 47 14 0 8 14 22 6 1 0 0 0 0

GFSSE_con_mucape_093.txt.gz
CAPE
1437 1314 2297 2084 1923 1971 1920 1669 1670 1419 889 409 167 62 28 37 94 199 317 372 474 308 110 37 9 8 10 9 7 14 5 1 0 0 0 0 0 0 0 3 15 1 13
1280 1061 2143 2127 2119 2131 2047 1949 1711 1448 1130 630 136 51 18 17 32 24 37 31 15 6 8 5 1 0 0 1 0 0 0 0 0 0 0 0 57 78 0 0 0 0 0
1156 959 1659 2101 2152 2203 2097 1822 1586 1332 1132 782 252 55 26 24 23 11 3 1 3 9 8 4 1 0 0 0 0 0 0 0 0 10 31 60 59 395 101 3 53 20 10
1059 983 1300 2141 2173 2103 1890 1730 1603 1383 1147 946 605 348 22 20 17 2 2 2 6 9 8 5 6 8 5 0 0 0 0 5 6 54 17 28 8 106 173 150 173 243 178
1172 896 1351 2005 2214 2092 1956 1864 1566 1504 1346 1205 954 803 320 50 29 0 0 2 8 10 11 10 6 5 4 2 4 73 82 101 83 13 3 5 4 4 41 42 52 225 230
1397 846 1321 1887 2187 2133 2032 1994 1689 1552 1216 1027 1067 994 666 186 62 0 0 6 20 27 15 10 76 86 65 59 92 80 69 79 96 6 6 0 0 2 1 2 0 2 67
1589 1554 1260 2009 2237 2186 2090 2008 1679 1638 1438 1032 781 587 653 321 93 0 0 2 14 15 9 7 59 90 77 80 90 61 0 8 5 2 0 0 1 0 0 1 1 2 3
1651 1833 1334 1790 2039 2089 2099 1957 1809 1785 1369 1093 809 309 286 599 148 0 0 0 2 8 8 5 3 74 59 47 40 9 0 0 0 1 0 0 5 0 0 0 0 0 0
1579 1657 1449 1558 1536 1744 1726 1855 1821 1494 1128 986 695 392 242 421 438 60 96 14 0 1 0 0 0 13 34 0 0 0 0 0 0 1 5 0 2 1 0 0 0 0 0
1454 1785 1312 1421 1438 1487 1352 1492 1356 1119 752 673 487 111 0 0 362 405 182 158 63 25 17 6 0 0 14 11 0 0 0 0 2 5 2 0 1 0 0 0 0 0 0
1355 1608 1234 1277 1435 1480 1164 1122 978 605 330 155 34 0 0 0 56 188 116 141 169 79 26 0 3 0 0 0 0 0 0 3 3 6 27 26 8 0 0 0 0 0 0
1257 1202 1518 1691 1459 1261 1112 884 883 564 299 170 61 1 0 0 0 312 163 95 184 146 98 32 12 0 0 0 0 0 4 0 0 2 20 42 11 0 0 0 0 0 0
1289 1435 1322 1444 1527 1228 1149 930 736 442 312 172 21 0 0 0 0 109 318 165 135 69 94 58 19 14 0 0 0 0 0 0 0 0 1 22 54 19 0 0 0 0 0
1313 1482 1548 1554 1448 1345 1167 916 780 500 247 91 3 0 0 0 0 0 81 298 218 112 119 116 82 48 25 0 0 0 0 0 0 0 0 0 7 80 39 0 0 0 0
1406 1362 1512 1379 1600 1214 876 886 648 527 288 168 29 0 0 1 10 2 29 89 107 109 130 103 47 44 37 19 0 0 0 0 0 0 0 0 0 4 86 40 0 0 0
1315 1204 1328 1308 1305 1373 1198 837 672 449 385 348 120 30 0 0 5 35 66 70 72 69 52 48 26 3 2 0 0 0 0 0 0 0 0 0 0 0 27 103 75 5 0
1324 1268 1184 1260 1350 1257 1239 946 718 690 394 506 243 140 58 19 9 22 22 41 31 22 1 13 8 0 0 0 0 0 0 0 0 0 0 0 0 0 0 101 121 114 25
1264 1248 1204 1250 1322 1322 1131 1248 998 709 734 860 422 330 257 137 75 72 64 9 0 5 9 9 0 0 0 0 0 0 0 0 0 0 0 0 0 0 0 31 146 180 144
1157 1235 1435 1336 1306 1311 1201 1242 1277 938 1174 629 514 479 428 225 150 129 102 55 1 0 13 26 3 0 0 0 0 0 0 6 0 1 0 6 25 0 4 3 11 97 153
1113 1107 1246 1698 1530 1479 1511 1332 1172 1155 1018 798 636 570 588 368 281 204 167 140 67 44 27 34 35 29 0 0 0 0 0 37 60 63 39 28 29 19 0 21 16 0 2
1029 1128 1256 1421 1551 1429 1459 1409 1027 845 930 1001 1117 959 879 614 505 376 336 294 247 138 96 87 65 48 58 18 20 26 32 54 53 82 103 80 60 0 0 0 0 13 17
1101 1206 1218 1091 1162 1557 1525 1291 1191 1200 1318 1249 1093 890 931 917 865 642 610 558 455 424 281 231 140 91 55 68 52 139 73 203 88 35 93 16 0 0 0 0 9 12 16
1013 1110 1166 914 941 1156 1216 1031 795 705 661 894 1111 1069 713 517 783 822 752 738 705 554 396 369 242 123 128 117 48 86 42 48 43 6 1 0 0 0 0 4 10 9 12
331 658 972 989 764 920 1021 844 718 696 704 659 869 993 934 635 388 325 336 433 511 514 458 410 341 252 192 183 90 119 84 100 84 22 7 0 0 0 0 2 2 6 7
151 165 99 264 763 846 916 840 670 685 1013 607 615 482 629 846 497 271 202 199 213 430 374 289 345 319 209 198 239 192 39 41 61 9 16 24 0 0 0 0 0 0 0
97 50 47 9 88 486 741 652 534 505 503 654 480 459 763 823 831 587 561 313 284 388 418 377 269 286 243 227 260 269 150 39 27 6 1 1 27 10 6 0 0 0 0

GFSSE_con_mucape_096.txt.gz
CAPE
1404 1725 2394 2438 2391 2256 2007 1655 1501 694 135 142 48 31 110 311 467 548 556 413 590 400 25 10 10 9 4 9 11 5 32 10 0 2 44 95 46 1 0 4 0 0 22
1372 1597 2200 2332 2263 2111 2017 1812 1442 1118 718 419 22 18 33 73 108 145 170 111 39 9 6 3 3 2 1 0 0 0 0 0 2 17 95 48 203 22 4 0 123 1 3
1252 1491 1814 2109 2094 2122 2011 1608 1366 1126 789 540 200 23 23 21 15 17 16 18 9 6 3 3 0 0 0 0 0 0 22 28 37 72 16 0 105 242 177 169 259 124 5
1227 1156 1437 2144 2261 2243 1927 1551 1436 1186 886 730 346 185 18 9 6 7 9 12 12 10 10 11 8 1 3 4 19 72 95 105 52 51 1 0 2 238 172 198 218 177 23
1005 991 1412 2028 2232 1981 1707 1596 1465 1321 1115 957 534 355 224 7 2 5 12 11 8 12 9 8 12 7 4 72 124 109 100 103 73 0 0 0 0 11 30 15 47 115 193
836 1323 1553 1937 1894 1776 1715 1681 1660 1550 1369 1204 786 630 427 9 0 6 10 19 24 19 20 72 86 60 75 95 84 76 11 71 3 0 0 0 0 0 4 7 8 8 9
941 1168 1586 2093 2030 1904 1716 1629 1523 1651 1523 1280 1028 774 262 24 0 2 5 85 37 22 27 104 77 85 92 89 57 0 7 8 0 0 0 0 0 0 0 0 0 6 9
1202 1063 1349 1805 1826 1872 1824 1530 1483 1555 1499 1240 959 711 578 51 0 0 1 28 19 10 6 52 66 61 59 44 0 0 0 0 0 0 0 0 0 0 0 0 0 0 0
1312 1070 1271 1478 1512 1716 1611 1546 1532 1372 1057 849 681 760 775 244 131 0 0 65 5 2 1 18 74 41 0 0 0 0 0 0 0 0 0 0 1 0 0 0 0 0 0
1462 1175 1236 1265 1297 1304 1148 1368 1081 714 611 583 296 63 202 156 140 193 15 45 93 71 63 52 17 54 16 0 0 0 0 0 0 0 0 0 0 0 0 0 0 0 0
1375 1106 1340 1177 1218 1240 1003 917 720 374 220 57 0 0 0 212 73 26 8 28 59 67 60 34 4 0 0 0 0 0 0 0 0 0 0 24 0 0 0 0 0 0 0
1742 1290 1263 991 1171 1284 884 574 539 187 27 6 0 0 0 3 279 119 44 59 97 70 49 39 20 1 0 0 0 0 0 0 0 0 0 25 8 0 0 0 0 0 0
1507 1270 1340 1298 1264 1070 838 563 587 214 140 93 19 0 0 0 67 436 55 76 63 60 57 26 3 0 0 0 0 0 0 0 0 0 0 47 0 0 0 0 0 0 0
1312 1331 1416 1528 1186 1047 800 714 539 267 269 98 0 0 0 0 0 237 71 88 75 70 100 57 50 38 16 0 0 0 0 0 0 0 0 0 46 42 1 0 0 0 0
1366 1279 1416 1532 1271 1193 901 797 529 364 177 58 0 0 0 0 0 0 142 103 82 84 92 66 79 46 32 16 0 0 0 0 0 0 0 0 0 21 53 19 0 0 0
1427 1212 1388 1500 1376 1070 928 760 472 384 243 161 43 0 0 0 0 0 19 127 85 107 104 87 41 22 17 2 0 0 0 0 0 0 0 0 0 0 27 60 75 2 0
1358 1377 1313 1302 1270 1182 849 819 616 363 261 302 150 31 0 0 2 22 42 51 46 56 37 25 13 0 0 0 0 0 0 0 0 0 0 0 0 0 0 43 107 147 25
1271 1262 1269 1369 1315 1263 1194 878 832 434 388 338 227 145 43 19 16 17 24 26 25 19 1 0 0 0 0 0 0 0 0 0 0 0 0 0 0 0 0 15 206 210 158
1339 1283 1225 1141 1322 1280 1186 950 792 980 469 416 660 266 219 135 78 52 55 8 0 4 1 0 0 0 0 0 0 0 0 0 0 0 0 0 0 0 0 0 1 81 126
1328 1325 1277 1184 1308 1325 1143 1031 901 843 1140 599 516 377 343 227 153 118 93 48 12 0 0 0 0 0 0 0 0 0 0 0 0 0 0 0 0 0 0 0 0 0 12
1201 1307 1454 1315 1275 1291 1310 997 912 673 745 738 550 426 355 355 268 187 154 154 116 45 11 2 7 0 0 0 0 0 0 7 4 12 0 25 23 3 0 0 0 0 1
1159 1144 1297 1473 1430 1280 1104 1146 989 751 604 720 634 728 681 642 518 404 286 292 266 232 149 113 97 61 28 23 0 0 15 53 86 89 29 34 4 10 0 2 4 7 7
1031 1203 1374 1334 1240 1344 1172 1069 941 752 614 565 540 592 596 631 637 595 542 445 396 363 324 234 184 137 80 37 33 25 43 37 14 29 48 31 4 0 4 13 2 5 6
1135 1195 1223 1120 1191 1320 1157 979 671 595 445 423 481 492 340 374 351 369 444 447 385 360 402 277 229 180 159 139 125 151 125 99 103 46 17 3 0 0 0 6 0 1 0
815 1111 1082 947 970 1210 1066 769 627 409 246 185 280 377 554 446 368 290 278 265 269 243 272 346 274 221 164 165 157 167 169 151 101 99 105 39 0 0 0 0 0 1 0
93 448 656 863 753 763 483 174 154 101 73 196 208 245 339 443 456 344 269 212 194 206 173 174 165 224 198 203 227 202 212 176 71 97 38 16 30 26 1 1 5 0 0

GFSSE_con_mucape_099.txt.gz
CAPE
1267 1959 2475 2558 2412 1962 1794 1426 300 91 175 46 92 533 681 742 770 688 586 503 571 207 10 9 4 7 15 15 31 0 0 24 94 129 139 172 69 2 0 0 0 9 235
1385 1783 2409 2343 2285 2042 1803 1281 598 532 474 235 25 206 370 454 458 427 290 50 9 5 5 3 3 3 0 0 0 9 9 22 126 119 115 66 159 215 195 86 107 3 154
1437 1653 1798 2144 2054 1975 1588 1284 994 754 429 344 186 17 83 111 84 87 27 7 5 4 2 2 0 0 0 0 35 94 107 143 60 0 0 51 69 350 314 216 203 3 4
1475 1431 1508 1937 1998 1766 1489 1264 1051 868 568 360 306 79 10 7 12 21 14 12 10 8 5 3 3 1 7 62 142 150 105 15 0 0 0 0 15 125 242 306 223 235 165
1307 1331 1506 1916 2017 1797 1484 1244 1131 1007 645 496 329 126 9 7 12 14 11 11 12 13 12 8 10 40 150 192 179 85 39 1 0 0 0 0 0 9 68 28 9 123 132
1204 1327 1744 2016 2007 1568 1385 1483 1365 1243 865 651 523 150 7 4 9 11 14 31 60 74 29 16 59 101 123 124 63 7 57 0 0 0 0 0 0 0 2 7 10 5 6
1097 1222 1567 1951 1701 1551 1677 1455 1433 1341 1124 797 729 19 0 3 8 17 21 59 71 370 120 106 102 133 103 74 0 2 0 0 0 0 0 0 0 0 0 1 4 8 8
1001 1150 1392 1479 1517 1543 1529 1434 1344 1316 1171 983 918 136 0 0 8 22 26 88 74 72 67 58 80 92 73 23 0 0 0 0 0 0 0 0 0 0 0 0 0 1 2
1054 1228 1381 1218 1292 1402 1275 1310 1407 1439 1151 1052 907 471 96 11 27 13 91 109 6 8 69 84 47 29 11 0 0 0 0 0 0 0 0 0 0 0 0 0 0 0 1
1116 1326 1273 1191 1289 1138 978 1058 966 775 574 608 493 190 21 13 3 69 60 95 79 38 50 100 63 22 0 0 0 0 0 0 0 0 0 0 0 0 0 0 0 0 0
1130 1153 1166 1133 1134 981 945 674 353 157 60 12 36 162 32 9 0 0 0 31 85 83 62 28 35 32 6 0 0 0 0 0 0 0 0 6 0 0 0 0 0 0 0
1173 1136 1138 1138 1008 905 826 368 205 32 0 0 0 76 127 22 0 0 0 9 60 59 64 52 20 9 0 0 0 0 0 0 0 0 0 9 0 0 0 0 0 0 0
1262 1236 1127 1198 1120 849 483 322 129 9 0 0 0 0 24 165 21 31 0 20 14 16 17 16 4 0 0 0 0 0 0 0 0 0 0 3 0 0 0 0 0 0 0
1276 1304 1116 1215 1302 889 404 397 204 99 59 59 0 0 0 45 196 44 30 22 32 30 32 14 28 14 0 0 0 0 0 0 0 0 0 0 51 34 0 0 0 0 0
1365 1324 1299 1355 1364 1062 601 588 328 237 216 135 3 0 0 20 222 157 56 36 34 42 62 53 70 62 38 2 0 0 0 0 0 0 0 0 14 96 60 2 0 0 0
1393 1510 1636 1362 1249 1000 791 568 372 341 299 127 10 0 0 0 37 214 76 64 61 72 71 65 68 27 11 3 0 0 0 0 0 0 0 0 0 9 71 80 60 1 0
1271 1330 1469 1475 1368 1148 935 677 474 386 177 210 142 0 0 0 0 0 135 116 87 98 88 78 26 0 0 0 0 0 0 0 0 0 0 0 0 0 1 35 116 164 30
1162 1292 1416 1300 1389 1259 1038 672 532 516 232 262 200 123 0 0 0 11 33 93 47 47 48 13 0 0 0 0 0 0 0 0 0 0 0 0 0 0 0 14 225 192 169
1183 1253 1376 1396 1328 1414 1193 754 642 550 389 315 260 180 87 4 0 2 23 36 29 17 9 0 0 0 0 0 0 0 0 0 0 0 0 0 0 0 0 0 1 82 119
1337 1208 1321 1242 1295 1367 1346 924 823 674 506 403 292 273 252 188 109 57 46 38 2 0 0 0 0 0 0 0 0 0 0 0 0 0 0 0 0 0 1 0 0 9 15
1397 1300 1312 1295 1210 1299 1335 1169 920 800 705 827 490 418 344 306 226 147 111 87 57 11 0 1 0 8 0 0 0 0 0 0 0 0 0 0 0 4 2 8 5 1 0
1612 1451 1247 1204 1190 1392 1230 1239 1130 994 907 755 682 594 543 429 325 272 177 143 138 155 155 48 23 30 21 8 0 0 7 28 32 33 40 9 26 8 13 30 6 9 3
1282 1355 1434 1290 1260 1239 1321 1049 975 784 689 718 725 666 518 342 346 277 227 218 280 250 255 238 152 155 147 71 42 11 20 18 30 79 100 69 34 19 21 7 6 5 5
1287 1228 1326 1421 1340 1322 1165 1183 982 833 619 598 742 440 299 254 266 249 337 329 303 307 294 251 245 232 226 139 58 55 68 88 80 86 59 76 37 24 0 0 4 5 2
1145 1229 1371 1435 1415 1462 1297 1069 872 549 446 379 286 221 226 186 165 181 162 187 221 199 190 205 227 222 186 152 93 45 68 80 169 131 115 21 5 18 3 1 1 1 4
1133 1230 1312 1250 1336 1402 1134 845 643 411 195 187 156 126 109 187 209 217 212 177 129 107 81 132 146 151 171 152 199 134 88 156 205 166 127 73 78 17 5 3 2 0 0

GFSSE_con_mucape_102.txt.gz
CAPE
1287 1502 2301 2219 2115 1663 940 295 144 290 333 693 904 1054 1013 1066 851 701 572 458 436 67 8 12 21 163 32 56 71 156 39 194 30 6 66 207 93 2 3 32 136 113 288
1462 1727 2199 2211 2065 1693 1170 249 188 466 452 617 803 991 958 858 684 335 168 31 7 5 5 9 12 15 2 26 39 101 58 66 94 96 90 49 242 213 31 21 200 128 313
1638 1821 1819 2107 1929 1618 1127 738 641 431 382 565 539 709 738 561 244 75 8 4 5 4 2 0 0 0 26 160 169 57 65 0 0 0 0 3 131 321 109 44 157 61 230
1572 1675 1698 1883 1862 1492 1215 820 642 534 384 368 282 313 259 158 39 7 7 5 3 1 2 0 0 59 184 235 262 0 0 0 0 0 0 0 3 257 241 245 201 199 231
1300 1299 1494 1900 1641 1461 1199 1041 810 537 484 277 263 238 286 82 11 9 9 10 10 8 5 6 133 223 247 261 144 0 0 0 0 0 0 0 15 45 40 6 30 129 146
1251 1198 1483 1663 1590 1346 1234 1176 898 747 336 15 22 113 164 16 11 11 10 14 92 98 86 99 201 200 133 128 149 0 0 0 0 0 0 0 0 4 8 8 12 7 12
1186 1203 1372 1719 1434 1485 1445 1327 1005 759 570 23 4 6 12 10 11 7 6 54 133 300 140 160 160 158 65 77 1 0 0 0 0 0 0 0 0 1 1 3 6 8 7
1183 1223 1313 1486 1283 1476 1439 1435 1197 952 962 479 29 6 11 14 12 12 83 333 309 154 147 155 146 93 13 4 20 0 0 0 0 0 0 0 0 0 0 1 2 3 5
1095 1068 1202 1003 1113 1125 1166 1170 1105 979 961 618 114 24 35 62 67 22 88 194 183 112 101 122 71 34 0 0 0 6 0 0 0 0 0 0 0 0 0 0 0 1 3
1032 1157 1078 885 847 863 982 1055 1007 878 670 615 112 5 0 7 43 119 85 115 160 231 148 71 28 0 0 0 0 0 0 0 0 0 0 0 0 0 0 0 0 0 2
1110 1132 1022 917 850 777 804 880 751 400 452 280 26 0 0 0 1 6 6 58 103 119 131 76 42 19 0 0 0 0 0 0 0 0 0 0 0 0 0 0 0 0 0
1139 1112 1031 951 841 808 694 467 139 62 96 243 108 3 0 0 0 0 0 18 91 69 56 38 28 9 0 0 0 0 0 0 0 0 0 0 0 0 0 0 0 0 0
1183 1131 1046 883 834 783 470 268 21 0 0 36 125 38 0 0 0 0 0 0 0 2 14 21 2 0 0 0 0 0 0 0 0 0 0 0 0 0 0 0 0 0 0
1225 1190 1090 939 875 674 283 183 35 0 0 0 11 142 85 2 21 0 0 0 0 0 0 0 0 0 0 0 0 0 0 0 0 0 0 0 52 0 0 0 0 0 0
1211 1136 1148 1068 913 571 312 285 148 47 57 8 0 0 126 119 78 12 11 0 0 0 4 0 0 0 0 0 0 0 0 0 0 0 0 0 2 125 18 0 0 0 0
1233 1126 1164 1171 1042 709 434 319 244 159 170 130 0 0 0 69 214 129 79 26 17 12 16 18 30 34 27 0 0 0 0 0 0 0 0 0 0 38 182 92 24 1 0
1252 1190 1206 1224 1157 869 619 466 323 300 347 291 56 0 0 0 85 215 104 56 54 64 64 48 44 21 7 0 0 0 0 0 0 0 0 0 0 0 22 65 137 143 48
1208 1156 1242 1237 1265 1057 683 516 349 460 408 406 219 88 0 0 90 171 177 119 115 122 116 88 64 13 0 0 0 0 0 0 0 0 0 0 0 0 0 15 238 217 168
1235 1203 1276 1306 1327 1157 873 606 440 516 437 306 304 237 105 0 3 15 13 82 192 138 127 62 36 8 0 0 0 0 0 0 0 0 0 0 0 0 0 0 0 68 170
1088 1217 1333 1468 1450 1309 1063 783 546 653 470 388 337 324 195 28 0 16 48 80 78 70 51 24 5 0 0 0 0 0 0 0 0 0 0 0 0 0 2 1 0 0 18
1119 1206 1256 1345 1223 1332 1101 774 766 724 571 484 401 356 312 251 167 65 23 34 24 11 4 7 5 10 3 0 0 0 0 0 0 0 0 0 19 9 60 6 18 26 6
1278 1180 1166 1246 1229 1299 1348 1049 853 781 663 588 550 456 438 371 381 210 157 71 49 36 19 21 15 16 28 29 14 0 1 0 0 6 15 40 19 34 26 18 32 38 12
1237 1394 1333 1175 1259 1328 1303 1146 977 994 837 799 705 668 693 558 474 376 348 199 119 117 105 87 88 73 91 75 70 51 24 16 24 56 68 68 57 65 67 35 24 25 3
1260 1383 1330 1268 1231 1295 1324 1312 1028 1057 976 848 811 757 695 600 574 367 303 226 208 223 202 133 126 155 113 111 108 91 69 69 53 29 40 55 53 68 53 21 20 17 15
1347 1391 1458 1318 1256 1225 1256 1253 1023 1098 844 749 774 708 566 447 474 286 234 220 269 233 159 159 122 106 107 127 82 54 50 62 75 47 0 51 63 67 16 14 10 8 12
1136 1331 1329 1338 1357 1309 1296 1044 1015 866 651 675 585 594 644 494 233 195 139 104 84 61 49 52 68 84 95 64 80 61 47 54 23 61 71 65 69 53 32 12 3 6 0

GFSSE_con_mucape_108.txt.gz
CAPE
603 1191 1752 1826 1021 695 626 504 584 1088 957 1474 1441 1129 1041 1169 811 566 775 318 395 201 164 88 76 103 50 11 13 35 185 195 242 59 144 139 307 217 336 304 257 52 164
786 1340 1838 1717 1289 973 456 397 959 1553 1367 1605 1632 1057 1103 955 692 350 60 30 44 82 24 146 207 316 98 14 142 236 200 177 185 187 180 0 1 78 252 219 333 92 138
1200 1377 1356 1625 1045 885 356 397 1013 1196 1635 1722 1706 1411 893 780 498 167 9 9 11 70 35 88 239 200 133 10 72 107 80 64 2 7 24 32 96 420 260 193 363 157 107
1268 1288 1273 1478 1056 734 314 349 997 1066 1301 1401 1405 1354 1056 580 132 8 8 9 18 133 209 261 285 116 141 87 3 5 0 0 0 1 1 0 36 66 159 87 57 18 14
1250 1208 1261 1348 1128 807 541 499 864 1029 1119 1089 1116 1055 822 194 21 5 6 12 87 298 508 294 175 88 13 1 0 0 0 0 0 0 0 0 0 4 6 0 0 0 6
1196 1191 1378 1335 1166 890 709 686 701 893 897 931 1065 790 507 20 6 5 8 37 191 510 446 112 110 123 0 0 0 0 0 0 0 0 0 0 0 4 5 5 5 5 5
1157 1275 1153 1387 1241 973 882 683 685 793 659 936 825 512 103 10 8 10 9 110 361 609 281 82 114 95 28 0 0 0 0 0 0 0 0 0 0 2 3 4 4 5 6
1026 1020 1013 999 982 886 671 568 499 525 585 676 569 107 20 10 9 8 18 246 541 357 195 70 75 63 21 0 0 0 0 0 0 0 0 0 3 1 3 3 4 4 5
996 820 737 657 707 642 648 446 279 260 279 223 190 92 17 15 46 42 207 424 538 475 401 183 51 41 31 3 0 0 0 0 0 0 0 0 6 1 1 2 3 5 5
788 700 615 575 731 436 358 382 156 60 64 75 29 12 5 8 99 416 244 382 534 489 385 270 84 34 37 16 0 0 0 0 0 0 0 0 1 1 0 1 2 2 3
631 576 577 590 689 446 347 386 168 24 13 11 8 0 0 6 38 45 57 96 235 319 167 69 22 16 9 0 0 0 0 0 0 0 0 0 0 0 0 0 1 1 2
639 637 601 544 573 499 425 418 118 1 0 0 0 0 0 0 0 0 0 76 179 125 93 46 0 0 0 0 0 0 0 0 0 0 0 0 0 0 0 0 0 0 0
698 695 613 506 490 502 351 281 203 12 0 0 0 0 0 0 0 0 0 0 0 0 0 0 0 0 0 0 0 0 0 0 0 0 0 0 0 0 0 0 0 0 0
669 774 642 514 480 459 332 387 553 96 0 0 0 0 0 0 0 0 0 0 0 0 0 0 0 0 0 0 0 0 0 0 0 0 0 0 0 0 0 0 0 0 0
570 686 770 563 502 473 318 273 299 231 119 0 0 0 0 0 0 0 0 0 0 0 0 0 0 0 0 0 0 0 0 0 0 0 0 0 1 69 4 0 0 0 0
544 790 892 650 542 527 376 248 146 167 142 93 0 0 0 0 0 0 0 0 0 0 0 0 0 0 0 0 0 0 0 0 0 0 0 0 0 37 203 81 25 11 1
234 850 959 761 643 589 423 256 56 55 180 159 88 16 0 0 0 0 0 0 0 0 0 2 5 20 32 25 0 0 0 0 0 0 0 0 0 0 14 220 167 130 91
700 1033 1031 879 837 621 401 235 64 0 0 35 86 72 48 36 45 12 7 32 16 13 10 17 31 30 30 7 7 0 0 0 0 0 0 0 0 0 0 14 101 197 171
901 1098 1035 858 817 730 509 235 89 12 19 47 8 18 72 90 100 128 106 74 69 54 52 55 60 55 54 22 4 0 0 0 0 0 0 0 0 0 0 0 9 9 54
1056 1101 1077 890 881 767 443 277 281 168 61 107 17 0 4 21 33 137 162 146 97 94 101 101 108 95 55 8 0 0 0 0 0 0 0 0 0 0 0 4 10 25 32
702 938 1120 917 846 785 500 396 361 290 176 207 161 148 122 63 10 5 20 122 136 108 112 164 127 86 12 0 0 0 5 8 17 14 13 2 0 0 13 31 25 35 31
379 434 442 634 811 851 724 562 397 348 304 414 436 325 300 286 159 104 84 40 40 54 107 142 77 31 5 0 3 0 2 27 41 23 20 27 28 29 46 65 59 65 54
458 496 468 229 547 595 480 442 363 317 382 582 546 331 214 257 376 251 268 198 165 146 99 59 16 11 17 39 33 34 45 58 71 45 37 60 64 56 66 69 73 83 89
500 440 335 171 185 420 471 447 163 234 409 499 391 246 158 178 447 430 323 266 188 184 114 56 67 54 45 48 49 54 58 52 59 34 12 12 6 24 39 27 41 68 67
386 440 381 324 269 128 370 183 49 153 437 395 444 404 343 318 407 448 409 395 294 203 184 146 144 139 105 53 9 13 14 27 51 56 37 7 10 0 4 17 43 50 53
155 181 114 294 181 463 384 364 185 204 258 188 253 409 573 611 581 424 280 274 119 170 258 275 164 183 122 80 40 33 25 30 15 24 14 4 83 3 2 20 17 26 62

GFSSE_con_mucape_111.txt.gz
CAPE
847 1168 1750 1844 1039 722 843 752 1216 1730 1974 1831 1654 1096 1074 1148 811 997 720 414 483 838 192 110 17 143 17 76 224 233 226 7 1 0 133 366 530 393 311 197 273 33 22
851 1255 1787 1639 1286 1297 1246 1285 1204 1434 1784 1672 1571 1342 1057 1048 842 719 542 196 378 38 156 115 79 83 97 301 283 281 230 176 61 0 0 0 258 487 199 174 392 26 15
1077 1314 1373 1532 1444 1290 1210 1524 1426 1380 1776 1660 1593 1303 1062 956 465 174 493 513 304 341 311 345 175 15 106 158 122 140 143 92 7 0 31 169 197 370 199 213 191 20 10
1218 1379 1207 1329 1328 1147 1202 1420 1770 1838 1921 1706 1532 1315 1499 805 202 179 238 436 426 582 406 330 210 138 5 22 60 41 4 0 0 0 0 0 2 14 17 11 12 6 5
1321 1347 1107 1119 1186 987 1265 1645 1669 1874 1920 1489 1233 1156 1222 690 64 11 205 458 418 730 619 284 139 86 2 1 2 1 0 0 0 0 0 0 3 11 8 3 3 4 6
1258 1326 1179 1136 1091 934 1229 1607 1615 1617 1422 1267 1053 947 755 382 14 13 218 286 640 604 418 326 46 1 0 0 0 0 0 0 0 0 0 1 3 7 5 5 7 7 6
1137 1308 1046 1211 1095 978 1142 1521 1510 1457 1309 1097 1062 717 296 119 16 13 127 446 677 397 254 184 57 0 0 0 0 0 0 0 0 0 0 1 3 7 6 5 6 6 6
1215 1195 1022 899 903 936 1000 1303 1256 1279 1240 1101 850 502 137 55 26 13 233 635 651 210 237 247 55 0 0 0 0 0 0 0 0 0 0 1 7 3 4 6 5 5 5
1195 1112 979 666 563 575 616 816 961 990 966 833 640 335 108 35 41 36 432 700 606 290 236 274 127 24 0 0 0 0 0 0 0 0 0 1 7 3 4 3 3 3 4
1095 1017 795 565 359 342 287 304 378 443 411 323 116 13 6 7 10 184 238 423 517 404 160 158 142 67 0 0 0 0 0 0 0 0 0 2 4 2 2 3 2 2 3
916 779 714 535 423 265 63 38 35 52 12 5 2 1 9 12 22 6 53 151 266 331 139 93 25 20 11 0 0 0 0 0 0 0 0 2 1 1 0 1 1 1 1
772 688 703 541 320 275 116 42 14 7 5 8 5 7 24 76 60 9 12 55 148 125 58 24 0 0 0 0 0 0 0 0 0 0 0 1 0 0 0 0 0 0 0
673 693 606 448 268 254 183 130 28 10 4 2 1 4 13 12 18 21 95 99 70 1 19 1 0 0 0 0 0 0 0 0 0 0 0 0 0 0 0 0 0 0 0
632 732 650 559 283 301 380 90 14 7 1 2 2 2 5 0 10 12 12 9 2 0 0 0 0 0 0 0 0 0 0 0 0 0 0 0 0 0 0 0 0 0 0
745 767 741 705 511 255 204 172 46 5 3 3 3 3 3 0 3 2 1 0 0 0 0 0 0 0 0 0 0 0 0 0 0 0 0 0 0 2 0 0 0 0 0
620 999 820 711 659 319 156 371 14 1 2 2 4 2 0 0 0 0 0 0 0 0 0 0 0 0 0 0 0 0 0 0 0 0 0 0 0 5 120 48 23 1 0
716 1139 1001 860 605 406 313 277 247 156 0 0 0 0 0 0 0 0 0 0 0 0 0 0 0 0 0 0 0 0 0 0 0 0 0 0 0 0 2 181 155 119 79
756 1083 961 885 596 415 135 138 95 68 49 9 0 0 0 0 0 0 0 0 0 0 1 2 2 16 26 10 5 0 0 0 0 0 0 0 0 0 0 0 43 116 106
701 1115 1002 898 649 378 187 142 92 19 11 26 37 1 0 0 1 0 0 7 2 4 12 17 20 41 54 47 10 0 0 0 0 0 0 0 0 0 0 0 0 0 24
599 1141 1151 1000 682 427 234 194 100 22 0 6 31 37 34 50 49 60 35 39 52 52 51 60 73 87 79 43 6 3 0 0 0 0 0 0 0 0 0 0 0 7 19
981 1221 1086 979 825 424 334 287 129 62 4 0 0 0 17 39 68 85 116 112 104 101 112 109 118 109 79 20 0 0 2 2 2 4 32 36 18 11 19 37 35 20 20
580 1171 1056 891 747 537 380 340 259 199 28 37 78 16 0 0 5 20 24 54 126 124 98 91 156 127 40 5 6 6 12 0 2 15 32 43 41 35 25 53 48 55 35
274 586 1024 914 800 526 461 383 261 250 213 82 113 96 96 80 99 69 49 45 56 61 56 56 179 87 25 22 24 43 11 0 3 17 33 36 52 46 42 30 41 55 64
85 275 458 585 482 505 885 362 332 337 285 229 255 328 370 238 123 129 118 115 84 94 95 109 76 29 55 18 10 33 33 40 25 46 5 3 13 20 8 20 7 6 32
258 271 160 100 73 39 250 350 288 247 234 317 307 306 254 128 80 118 147 160 236 180 79 58 95 69 57 74 85 54 25 17 8 40 27 2 9 1 1 13 3 4 3
220 354 252 109 109 166 96 157 191 108 71 316 276 246 136 105 96 173 203 247 208 161 66 54 128 128 88 91 79 97 60 36 13 16 3 6 0 2 3 5 20 20 6

GFSSE_con_mucape_114.txt.gz
CAPE
828 1313 1740 1604 1510 1264 1163 1721 2308 2083 2100 2077 1658 1118 1060 834 664 564 723 705 985 787 33 313 24 10 137 297 102 3 3 28 33 153 412 460 475 308 236 378 171 8 9
883 1354 1822 1807 1423 1601 1577 1779 2209 2229 1996 1990 1823 1089 991 975 933 651 883 761 570 276 78 16 35 211 344 400 166 75 5 0 0 26 139 228 269 386 171 32 74 6 4
933 1353 1579 1523 864 1528 1614 1667 2017 2012 1941 1931 1901 1650 1006 869 753 695 839 575 734 767 282 155 168 357 262 203 235 214 203 146 0 5 255 181 117 218 11 2 9 6 6
1027 1302 1273 1470 1468 1616 1653 1540 1850 1999 1904 1851 1864 1703 1265 1042 809 754 716 397 822 668 716 218 85 159 120 118 54 16 1 0 0 1 8 10 10 9 11 6 3 6 8
1130 1192 1224 1548 1566 1586 1752 1589 1662 2072 1947 1849 1566 1260 1239 1009 730 556 709 575 1027 867 692 436 7 7 9 9 9 1 0 0 0 0 0 2 1 8 6 4 5 8 8
1170 1199 1282 1450 1504 1600 1821 1750 1852 2091 1981 1516 1266 1163 998 762 583 653 690 900 752 554 489 115 6 2 0 1 0 0 0 0 0 0 0 0 2 7 7 7 7 9 9
1205 1308 1176 1437 1436 1747 1984 1890 1991 1942 1596 1285 1162 1153 827 564 509 597 710 778 645 592 238 6 0 0 0 0 0 0 0 0 0 0 0 0 4 6 7 7 8 9 9
1198 1225 1078 1027 1140 1621 1927 1801 1691 1554 1461 1362 1168 906 574 393 398 388 798 651 503 434 174 5 0 0 0 0 0 0 0 0 0 0 0 0 13 8 7 6 6 5 6
1207 1250 1084 852 646 1104 1498 1443 1407 1344 1132 1023 791 472 235 125 166 277 776 554 463 505 304 136 0 0 0 0 0 0 0 0 0 0 0 1 11 5 5 3 2 2 4
1263 1142 952 474 150 1103 1358 1027 984 900 787 690 327 74 8 6 22 391 398 366 358 354 299 193 32 0 0 0 0 0 0 0 0 0 0 1 5 5 5 4 2 3 1
1098 1152 1003 366 44 66 1089 771 712 670 385 77 19 1 5 3 50 193 121 187 165 189 242 233 83 0 0 0 0 0 0 0 0 0 0 7 2 2 3 3 2 2 2
827 1066 815 211 44 11 273 508 647 379 267 52 15 10 0 0 17 132 78 81 147 75 75 57 11 0 0 0 0 0 0 0 0 0 0 5 1 1 0 1 1 1 1
454 1121 719 230 168 21 16 575 621 262 148 50 23 1 2 5 21 128 119 80 80 0 1 0 0 0 0 0 0 0 0 0 0 0 0 0 0 0 0 0 0 0 0
314 742 694 319 152 14 10 11 86 251 112 19 8 6 15 23 18 27 70 95 22 35 1 0 0 0 0 0 0 0 0 0 0 0 0 0 1 0 0 0 0 0 0
123 492 588 388 111 40 4 1 4 7 9 3 3 14 19 21 22 84 97 144 58 29 3 0 0 0 0 0 0 0 0 0 0 0 2 0 0 1 0 0 0 0 0
164 406 697 539 77 225 115 3 0 1 2 4 4 18 35 17 9 8 10 35 11 0 0 0 0 0 0 0 0 0 0 0 0 0 0 0 0 3 53 6 2 1 0
214 572 775 626 200 270 246 167 6 0 0 4 3 9 22 17 8 1 0 0 0 0 0 0 0 0 1 11 11 0 0 0 0 0 0 0 0 0 8 185 121 116 58
69 534 1040 743 452 233 257 235 65 0 0 0 4 5 5 1 0 0 0 0 0 0 0 0 0 8 72 66 51 24 10 0 0 0 0 0 0 0 1 19 113 162 169
12 222 810 780 647 449 427 449 220 159 6 0 0 0 0 0 0 0 0 0 0 4 21 40 62 90 108 82 25 12 0 0 0 0 0 0 0 0 22 4 0 16 85
7 160 935 755 685 719 709 633 437 435 361 197 10 0 0 0 0 0 0 10 37 65 70 63 80 82 102 59 4 0 5 0 0 0 0 0 0 0 16 21 43 15 3
196 478 695 886 785 632 368 302 296 229 237 248 347 301 173 113 111 93 106 112 139 159 143 127 166 157 111 36 41 27 10 0 3 0 6 0 8 29 57 75 104 53 38
299 399 838 839 580 605 632 476 367 291 230 190 242 251 216 209 243 254 263 234 206 214 237 175 128 103 217 79 44 31 60 37 0 0 2 15 11 13 27 21 26 33 38
157 322 555 640 628 612 656 534 389 380 244 218 254 141 81 97 118 173 176 205 223 206 193 227 265 331 275 27 0 95 97 94 74 5 2 17 22 32 36 22 23 27 25
182 247 365 614 768 655 1012 544 445 364 334 213 357 315 113 30 46 81 53 58 132 177 166 151 173 215 42 11 9 39 142 158 91 40 0 1 6 7 28 28 19 7 12
164 47 308 468 618 746 711 350 323 582 693 610 510 342 220 119 124 105 90 103 62 102 42 41 48 59 10 91 178 108 69 81 45 44 10 2 7 2 1 0 0 2 1
43 39 82 208 381 349 401 311 315 390 297 305 356 355 292 289 246 111 117 102 86 72 126 22 76 39 57 110 145 147 101 53 43 63 17 1 6 8 3 0 1 0 18

GFSSE_con_mucape_117.txt.gz
CAPE
974 1455 2019 2055 1718 1804 2424 2482 2222 2252 2193 1947 1364 958 697 684 753 590 596 539 322 789 259 10 6 99 10 11 136 140 169 246 353 320 446 402 440 242 36 77 9 0 7
1133 1220 1787 1967 1905 1985 2515 2401 2204 1952 2150 1944 1442 889 859 777 788 627 720 532 528 538 215 42 329 380 282 8 6 2 0 4 196 387 166 110 185 49 1 0 17 8 11
1228 1076 1252 1799 1890 1881 2312 2365 2323 2201 2160 1988 1600 1472 1025 822 630 882 923 874 830 360 165 421 390 358 336 285 231 231 102 0 11 203 216 16 13 16 3 5 15 11 14
1208 1162 995 1583 1831 1924 2041 2445 2292 2185 2135 1989 1725 1409 1374 1147 1068 806 1203 1291 1064 774 570 406 391 398 291 124 10 0 0 0 0 13 11 0 0 7 7 10 14 12 15
1263 1332 1202 1476 1583 1880 1894 2240 2299 2123 2046 1975 1707 1414 1290 1262 994 1004 870 823 681 677 423 192 213 203 141 9 5 0 0 0 0 0 0 0 0 7 11 9 8 11 16
1281 1194 1258 1449 1361 1741 1691 1945 2258 2085 1904 1749 1450 1245 1033 1092 1070 871 960 816 631 733 344 9 8 8 5 2 0 0 0 0 0 0 0 0 1 6 7 6 8 7 9
1248 1205 1232 1562 1572 1809 1786 1674 2016 2019 1783 1600 1372 1193 1144 1060 1018 1038 982 781 695 543 173 4 1 0 0 0 0 0 0 0 0 0 0 1 4 6 9 8 10 9 12
1184 1408 1284 1202 1335 1645 1786 1604 2014 1817 1587 1365 1182 1074 1029 800 921 1065 873 791 617 261 1 0 0 0 0 0 0 0 0 0 0 0 0 2 13 8 7 5 7 6 10
1293 1223 1253 1095 934 1493 1581 1673 1768 1620 1334 956 948 835 560 542 643 919 721 666 669 319 53 0 0 0 0 0 0 0 0 0 0 0 0 1 14 7 5 5 5 4 5
1336 1046 1186 963 640 810 1472 1268 1239 1128 826 640 512 172 39 87 281 633 309 453 469 305 118 1 0 0 0 0 0 0 0 0 0 0 0 3 9 7 5 4 3 3 3
1150 973 1010 740 263 435 1121 1132 895 787 496 220 132 99 8 7 41 186 22 174 295 299 202 80 20 0 0 0 0 0 0 0 0 0 0 8 3 3 2 1 2 1 0
1166 878 857 556 78 292 916 1055 931 760 425 201 142 23 1 1 91 264 42 67 180 202 202 123 28 0 0 0 0 0 0 0 0 0 0 5 1 1 1 1 1 1 0
623 850 684 535 31 185 733 1017 814 687 258 279 125 5 0 1 123 204 77 10 9 7 39 22 0 0 2 0 0 0 0 0 0 0 0 3 1 1 0 0 0 0 0
104 371 248 254 22 42 484 749 597 543 314 166 433 0 0 7 210 129 91 24 3 0 0 0 0 0 0 0 0 0 0 0 0 1 0 0 1 0 0 0 0 0 0
171 71 213 37 72 11 260 568 568 211 80 140 119 0 6 18 47 72 70 91 34 36 0 0 0 0 0 0 0 0 0 0 0 0 1 0 0 0 0 0 0 0 0
57 257 20 183 317 25 14 358 572 243 107 32 13 11 15 18 30 83 77 180 99 53 2 0 0 0 0 0 0 0 0 0 0 0 2 0 0 16 19 2 1 0 0
2 406 187 251 121 38 7 9 26 146 60 8 9 19 12 19 67 149 136 121 72 26 0 0 0 0 0 0 0 0 0 0 0 0 0 0 0 0 31 132 137 92 33
50 183 272 193 177 69 13 20 17 18 17 8 5 22 32 19 55 59 74 44 12 0 0 0 0 0 18 55 64 34 11 5 0 0 0 0 0 0 0 70 156 201 191
4 42 256 300 189 334 302 113 16 3 10 5 4 13 15 12 12 18 8 3 0 0 0 0 0 8 98 86 59 37 10 0 0 0 0 0 0 0 24 18 22 59 101
59 29 54 341 334 465 426 207 100 3 1 7 7 3 6 3 0 1 0 0 0 1 35 59 66 102 133 133 35 1 1 0 0 0 0 0 0 0 4 76 18 16 9
83 59 110 443 395 490 307 289 290 135 10 0 0 0 0 0 0 0 0 0 18 66 72 69 112 142 172 124 79 50 20 12 0 0 0 0 11 26 29 76 106 81 46
48 31 28 423 511 410 261 315 405 692 512 291 69 0 0 0 0 0 36 74 108 144 108 201 273 317 349 314 100 188 131 76 0 0 0 0 0 13 30 48 41 45 67
0 80 43 130 424 379 340 480 458 452 551 506 456 447 257 178 185 167 190 152 249 256 334 418 357 427 383 398 63 182 91 163 143 6 0 0 0 1 3 22 18 21 27
0 0 167 131 275 429 487 325 334 319 339 334 330 246 206 210 346 344 355 330 368 376 410 376 420 624 531 301 61 80 180 166 129 70 3 0 0 3 3 10 14 17 10
31 38 114 141 209 386 331 389 512 401 316 247 423 272 207 170 166 210 155 131 171 330 450 415 222 259 221 130 286 328 105 100 118 76 61 6 0 0 0 14 7 5 8
111 99 65 93 83 358 306 272 359 574 572 334 409 328 205 154 126 100 129 154 201 253 176 53 56 84 132 213 335 265 211 163 83 31 14 21 17 1 0 0 0 0 0

GFSSE_con_mucape_120.txt.gz
CAPE
1397 1655 2375 2332 2499 2682 2554 2596 2484 2186 1760 1815 996 997 849 668 783 450 389 267 298 566 32 6 9 21 219 259 389 311 377 423 336 279 364 332 86 8 1 4 16 2 14
1540 1673 2179 2234 2445 2617 2538 2472 2399 2148 1890 1773 1620 907 695 853 822 647 595 424 490 169 34 353 161 21 104 46 47 100 219 236 234 208 26 2 8 4 5 13 25 11 17
1379 1459 1798 2064 2213 2503 2430 2354 2213 2214 1911 1763 1546 1230 947 879 802 894 688 894 809 138 424 368 213 56 84 110 190 225 118 164 230 289 0 0 0 10 10 13 32 18 16
1348 1228 1305 1930 2082 2494 2431 2367 2256 2294 1943 1713 1489 1624 1430 1122 1014 794 1072 841 762 573 421 445 508 371 236 122 0 0 0 9 18 97 0 0 0 11 15 17 21 16 18
1272 1080 1072 1816 1972 2348 2400 2368 2289 2235 1912 1695 1495 1404 1496 1257 1135 1160 975 1023 1004 601 548 480 512 231 17 1 0 0 0 6 7 0 0 0 0 11 11 11 14 12 17
1278 1108 1278 1662 1913 2049 2229 2177 2228 2117 1983 1781 1496 1333 1282 1292 1005 1268 950 884 594 481 356 190 141 57 6 0 0 0 0 0 0 0 0 0 0 8 8 7 11 13 15
1315 1120 1131 1531 1833 1837 1952 2070 2168 2051 1939 1688 1598 1447 1026 1249 1123 1050 698 756 502 288 52 16 8 3 0 0 0 0 0 0 0 0 0 0 2 8 9 7 11 11 13
1327 1302 1132 1193 1237 1616 1864 2023 2074 1932 1761 1584 1471 1248 820 936 1173 928 696 707 475 63 3 0 0 0 0 0 0 0 0 0 0 0 0 0 13 8 6 5 5 8 6
1374 1289 1152 996 993 1305 1455 1664 1785 1701 1523 1338 1128 819 610 617 983 911 704 479 290 43 2 0 0 0 0 0 0 0 0 0 0 0 0 0 15 5 5 4 4 5 4
1455 1328 1132 951 842 843 1186 1273 1613 1354 1129 962 641 295 330 469 486 548 404 293 205 0 0 0 0 0 0 0 0 0 0 0 0 0 0 2 9 6 5 4 3 3 3
1299 1326 1097 948 804 691 879 1255 1327 1096 749 423 224 99 85 160 143 81 130 139 126 12 6 0 0 0 0 0 0 0 0 0 0 0 0 10 10 6 4 3 2 2 2
981 1160 1047 912 662 519 810 1078 924 727 393 201 117 61 32 11 25 15 55 61 137 62 41 18 0 0 0 0 0 0 0 0 0 0 0 4 3 2 2 1 1 0 1
667 1098 976 865 502 347 603 907 652 457 188 126 69 53 11 0 40 19 16 17 11 49 24 2 0 0 0 0 0 0 0 0 0 0 0 0 1 1 0 1 0 0 0
168 96 837 558 529 351 828 719 470 277 152 109 83 95 0 5 43 15 6 4 0 0 0 0 0 0 0 0 0 0 0 0 0 0 0 0 0 0 0 0 0 0 0
28 46 29 219 47 154 709 681 530 247 153 215 515 38 0 9 28 17 2 0 0 0 0 0 0 0 0 0 0 0 0 0 0 0 0 0 0 3 0 0 0 0 0
1 1 24 138 1 0 453 640 609 332 292 186 195 8 0 13 20 16 5 0 0 0 0 0 0 0 0 0 0 0 0 0 0 0 0 0 0 1 12 0 0 0 0
16 2 9 6 22 1 12 555 495 380 298 113 112 11 7 9 13 5 7 4 0 36 0 0 0 0 0 0 0 0 0 0 0 0 0 0 0 0 48 68 93 76 73
90 0 9 68 15 0 23 403 336 413 175 45 12 0 14 14 18 2 4 54 19 3 0 0 0 0 0 4 22 7 0 0 0 0 0 0 0 0 3 110 213 209 217
116 7 8 23 9 17 34 135 241 274 112 9 3 0 2 10 26 6 13 18 4 0 0 0 0 0 13 45 37 18 4 0 0 0 0 0 0 0 4 26 39 101 125
103 3 0 0 45 18 34 75 124 117 57 25 6 0 0 17 12 4 5 3 0 0 0 0 0 7 57 59 33 0 0 0 0 0 0 0 0 0 0 8 24 24 36
193 119 12 73 71 70 25 24 4 0 0 2 1 7 5 3 5 4 0 0 0 0 0 12 33 62 92 68 30 0 0 0 0 0 0 0 0 0 1 6 29 12 40
171 136 18 4 128 119 55 23 0 0 0 0 0 9 10 5 0 0 0 0 0 2 33 42 67 95 101 64 2 12 6 0 4 1 1 0 0 0 8 21 52 37 33
223 125 18 1 181 212 107 100 56 1 0 0 5 0 1 0 0 0 0 0 19 79 91 94 156 161 120 156 45 19 3 25 46 22 3 0 0 0 0 4 20 27 33
168 100 2 16 100 211 120 120 137 31 7 3 0 0 0 0 0 0 40 47 137 135 144 221 211 176 258 226 121 5 8 33 29 31 1 0 0 0 0 1 5 18 19
147 87 110 63 46 11 169 222 198 137 122 166 124 132 42 82 118 179 121 206 229 228 237 216 215 231 216 144 53 59 38 12 16 20 0 0 0 0 0 0 0 0 0
143 8 108 71 26 37 115 285 184 184 192 254 252 213 152 202 222 169 208 210 219 209 255 232 184 120 104 58 74 113 47 4 2 5 3 2 4 0 0 0 0 0 0

GFSSE_con_mucape_123.txt.gz
CAPE
1429 1870 2440 2607 2813 2718 2602 2532 2102 1455 1207 1288 1031 959 745 634 447 123 34 77 163 401 140 23 358 307 382 390 332 370 413 315 102 20 68 18 8 7 8 6 10 3 12
1505 1931 2334 2668 2844 2681 2565 2491 2083 1769 1564 1488 1561 951 855 654 624 435 395 291 307 13 7 76 326 227 184 185 267 290 221 67 0 0 0 7 14 15 14 15 28 12 18
1621 1899 2023 2552 2659 2569 2521 2335 2104 1974 1869 1622 1650 995 1056 1042 900 584 629 748 341 442 420 18 145 103 139 347 332 306 320 155 10 0 0 0 0 11 13 25 23 22 16
1610 1703 1789 2402 2564 2566 2470 2275 2120 2091 2018 1774 1550 1562 1447 1236 1075 868 783 856 662 556 718 499 211 161 185 88 14 5 0 65 2 0 0 0 1 21 18 14 17 16 17
1511 1470 1679 2168 2479 2507 2245 2316 2087 2048 1944 1746 1682 1608 1454 1301 1243 1065 1151 1140 809 695 527 498 210 101 47 0 8 2 16 4 0 0 0 0 3 13 18 11 16 16 21
1294 1307 1675 1974 2261 2241 2150 2138 2250 2031 1943 1759 1483 1497 1418 1278 1096 1323 1236 918 711 690 702 308 60 0 0 0 0 0 0 0 0 0 0 0 3 17 18 16 21 20 20
1197 1316 1497 1873 2110 2180 2173 2170 2177 2044 1922 1754 1490 1519 1459 1400 992 1132 919 689 586 471 215 55 1 0 0 0 0 0 0 0 0 0 0 0 5 16 16 17 15 14 19
1256 1214 1352 1607 1684 1889 2025 1989 1979 1881 1822 1677 1423 1509 1278 1143 1155 874 694 493 406 140 32 7 6 0 0 0 0 0 0 0 0 0 0 0 17 11 9 12 9 12 11
1083 1194 1158 1253 1326 1452 1526 1574 1665 1701 1621 1515 1299 1199 850 906 936 766 685 445 240 5 6 3 0 0 0 0 0 0 0 0 0 0 0 0 19 8 7 6 5 8 12
1129 1070 1001 775 928 1102 1292 1403 1532 1517 1251 1160 846 638 478 455 521 535 280 169 82 4 0 0 0 0 0 0 0 0 0 0 0 0 0 0 7 6 5 4 4 4 6
1047 1171 1031 876 983 1047 1021 1207 1282 1222 1073 909 499 219 246 284 231 118 70 0 0 0 3 2 0 0 0 0 0 0 0 0 0 0 0 12 7 4 3 2 2 2 2
277 944 1089 933 869 858 963 969 1077 1000 901 587 248 144 159 128 58 46 5 0 0 0 11 0 0 0 0 0 0 0 0 0 0 0 0 7 4 3 2 1 1 0 0
64 147 834 891 794 706 766 814 820 873 641 444 178 112 92 16 22 33 0 0 0 0 0 0 0 0 0 0 0 0 0 0 0 0 0 0 3 2 1 1 1 0 0
2 35 98 411 702 601 749 723 595 509 409 337 156 34 80 26 6 7 0 0 0 0 0 0 0 0 0 0 0 0 0 0 0 0 0 0 0 1 1 0 0 0 0
0 0 21 98 456 514 726 629 492 378 381 327 150 68 73 27 4 0 0 0 0 0 0 0 0 0 0 0 0 0 0 0 0 0 0 0 0 0 0 0 0 0 0
0 0 0 29 78 266 657 559 505 430 372 305 167 59 53 24 0 0 0 0 0 0 0 0 0 0 0 0 0 0 0 0 0 0 0 0 0 0 14 9 10 7 0
0 0 0 0 73 42 110 37 221 449 272 280 174 93 298 41 0 0 0 0 0 0 0 0 0 0 0 0 0 0 0 0 0 0 0 0 0 0 41 73 89 85 84
27 0 0 0 17 44 39 5 1 377 301 274 132 77 99 31 0 0 0 0 0 0 0 0 0 0 0 0 0 0 0 0 0 0 0 0 0 0 4 102 239 228 207
59 21 0 0 0 32 7 8 1 89 336 254 148 50 80 27 0 0 0 0 0 0 0 0 0 0 0 0 22 3 0 0 0 0 0 0 0 0 0 0 32 105 157
12 34 0 0 0 22 11 8 0 10 381 282 113 86 40 0 0 0 0 0 0 1 0 0 0 0 16 30 17 6 0 0 0 0 0 0 0 0 0 0 3 16 23
251 183 42 15 0 23 56 31 111 156 230 187 103 103 12 2 9 13 0 0 2 0 0 0 0 1 26 29 19 0 0 0 0 0 0 0 0 0 0 0 8 13 23
285 217 151 36 78 95 96 24 74 82 134 127 41 0 6 10 13 7 1 4 19 16 0 0 9 53 55 31 24 0 1 0 0 0 2 0 0 0 0 0 9 20 33
304 407 236 70 61 66 93 14 89 80 132 154 83 33 2 11 15 7 1 13 39 0 0 14 50 56 63 51 27 0 1 0 0 0 5 0 0 0 0 0 0 4 12
240 315 327 141 28 53 172 25 44 70 72 86 99 13 0 7 18 12 21 26 5 0 23 42 82 96 137 63 27 8 0 0 0 0 0 0 0 0 0 0 0 0 5
281 388 297 160 68 160 211 18 16 41 51 60 18 63 24 19 36 30 0 0 0 19 72 106 165 173 203 63 65 83 8 0 0 0 0 0 0 0 0 0 0 0 0
264 365 339 182 98 15 2 32 19 21 28 14 9 39 21 29 65 0 3 6 75 109 121 195 221 190 202 174 95 48 13 0 0 0 0 2 0 0 0 0 0 0 0